<?xml version="1.0" encoding="UTF-8" standalone="no" ?>
<gpx xmlns="http://www.topografix.com/GPX/1/1" xmlns:xsi="http://www.w3.org/2001/XMLSchema-instance" xsi:schemaLocation="http://www.topografix.com/GPX/1/1 http://www.topografix.com/GPX/1/1/gpx.xsd" version="1.1" creator="VisuGPX - https://www.visugpx.com">
  <metadata>
    <name>V-S23</name>
  </metadata>
  <trk>
    <name><![CDATA[Maison TOAC]]></name>
    <trkseg>
      <trkpt lat="43.5433" lon="1.45816">
        <ele>225.97196960449</ele>
        <time>2020-05-31T18:05:37.000Z</time>
      </trkpt>
      <trkpt lat="43.54335" lon="1.45796">
        <ele>226.28971862793</ele>
        <time>2020-05-31T18:05:37.002Z</time>
      </trkpt>
      <trkpt lat="43.54369" lon="1.45745">
        <ele>228.07208251953</ele>
        <time>2020-05-31T18:05:37.013Z</time>
      </trkpt>
      <trkpt lat="43.5438" lon="1.45738">
        <ele>228.2780456543</ele>
        <time>2020-05-31T18:05:37.025Z</time>
      </trkpt>
      <trkpt lat="43.54397" lon="1.45743">
        <ele>228.4326171875</ele>
        <time>2020-05-31T18:05:37.040Z</time>
      </trkpt>
      <trkpt lat="43.54408" lon="1.45712">
        <ele>228.93453979492</ele>
        <time>2020-05-31T18:05:37.059Z</time>
      </trkpt>
      <trkpt lat="43.54426" lon="1.4568">
        <ele>230.05334472656</ele>
        <time>2020-05-31T18:05:37.083Z</time>
      </trkpt>
      <trkpt lat="43.54426" lon="1.4568">
        <ele>230.05354309082</ele>
        <time>2020-05-31T18:05:37.107Z</time>
      </trkpt>
      <trkpt lat="43.54442" lon="1.45671">
        <ele>231.1383972168</ele>
        <time>2020-05-31T18:05:37.134Z</time>
      </trkpt>
      <trkpt lat="43.54439" lon="1.45618">
        <ele>231.64752197266</ele>
        <time>2020-05-31T18:05:37.167Z</time>
      </trkpt>
      <trkpt lat="43.54439" lon="1.45618">
        <ele>231.64701843262</ele>
        <time>2020-05-31T18:05:37.200Z</time>
      </trkpt>
      <trkpt lat="43.54439" lon="1.4561">
        <ele>231.75048828125</ele>
        <time>2020-05-31T18:05:37.234Z</time>
      </trkpt>
      <trkpt lat="43.54444" lon="1.45605">
        <ele>232.12379455566</ele>
        <time>2020-05-31T18:05:37.269Z</time>
      </trkpt>
      <trkpt lat="43.54448" lon="1.45588">
        <ele>232.58720397949</ele>
        <time>2020-05-31T18:05:37.306Z</time>
      </trkpt>
      <trkpt lat="43.54447" lon="1.45586">
        <ele>232.54858398438</ele>
        <time>2020-05-31T18:05:37.343Z</time>
      </trkpt>
      <trkpt lat="43.54442" lon="1.45576">
        <ele>232.34213256836</ele>
        <time>2020-05-31T18:05:37.382Z</time>
      </trkpt>
      <trkpt lat="43.54442" lon="1.45553">
        <ele>232.69003295898</ele>
        <time>2020-05-31T18:05:37.423Z</time>
      </trkpt>
      <trkpt lat="43.54522" lon="1.4543">
        <ele>233.94657897949</ele>
        <time>2020-05-31T18:05:37.484Z</time>
      </trkpt>
      <trkpt lat="43.54542" lon="1.45359">
        <ele>232.70932006836</ele>
        <time>2020-05-31T18:05:37.554Z</time>
      </trkpt>
      <trkpt lat="43.54586" lon="1.45315">
        <ele>232.16572570801</ele>
        <time>2020-05-31T18:05:37.632Z</time>
      </trkpt>
      <trkpt lat="43.54603" lon="1.45306">
        <ele>231.71357727051</ele>
        <time>2020-05-31T18:05:37.713Z</time>
      </trkpt>
      <trkpt lat="43.54616" lon="1.453">
        <ele>231.25016784668</ele>
        <time>2020-05-31T18:05:37.796Z</time>
      </trkpt>
      <trkpt lat="43.54629" lon="1.45315">
        <ele>231.30165100098</ele>
        <time>2020-05-31T18:05:37.882Z</time>
      </trkpt>
      <trkpt lat="43.54641" lon="1.45307">
        <ele>230.81269836426</ele>
        <time>2020-05-31T18:05:37.970Z</time>
      </trkpt>
      <trkpt lat="43.54645" lon="1.45293">
        <ele>230.40078735352</ele>
        <time>2020-05-31T18:05:38.060Z</time>
      </trkpt>
      <trkpt lat="43.54638" lon="1.45277">
        <ele>230.1690826416</ele>
        <time>2020-05-31T18:05:38.152Z</time>
      </trkpt>
      <trkpt lat="43.54648" lon="1.45259">
        <ele>229.24955749512</ele>
        <time>2020-05-31T18:05:38.247Z</time>
      </trkpt>
      <trkpt lat="43.54742" lon="1.45144">
        <ele>223.66690063477</ele>
        <time>2020-05-31T18:05:38.362Z</time>
      </trkpt>
      <trkpt lat="43.54822" lon="1.45022">
        <ele>222.62852478027</ele>
        <time>2020-05-31T18:05:38.496Z</time>
      </trkpt>
      <trkpt lat="43.54846" lon="1.44939">
        <ele>218.38681030273</ele>
        <time>2020-05-31T18:05:38.640Z</time>
      </trkpt>
      <trkpt lat="43.54867" lon="1.4484">
        <ele>216.02980041504</ele>
        <time>2020-05-31T18:05:38.796Z</time>
      </trkpt>
      <trkpt lat="43.54894" lon="1.4477">
        <ele>215.50872802734</ele>
        <time>2020-05-31T18:05:38.962Z</time>
      </trkpt>
      <trkpt lat="43.54946" lon="1.44664">
        <ele>207.35220336914</ele>
        <time>2020-05-31T18:05:39.142Z</time>
      </trkpt>
      <trkpt lat="43.54985" lon="1.44514">
        <ele>202.87208557129</ele>
        <time>2020-05-31T18:05:39.341Z</time>
      </trkpt>
      <trkpt lat="43.54994" lon="1.44435">
        <ele>198.06776428223</ele>
        <time>2020-05-31T18:05:39.549Z</time>
      </trkpt>
      <trkpt lat="43.54993" lon="1.44384">
        <ele>194.20108032227</ele>
        <time>2020-05-31T18:05:39.763Z</time>
      </trkpt>
      <trkpt lat="43.54976" lon="1.44315">
        <ele>190.80798339844</ele>
        <time>2020-05-31T18:05:39.986Z</time>
      </trkpt>
      <trkpt lat="43.54944" lon="1.44246">
        <ele>182.41514587402</ele>
        <time>2020-05-31T18:05:40.218Z</time>
      </trkpt>
      <trkpt lat="43.54933" lon="1.44206">
        <ele>177.89096069336</ele>
        <time>2020-05-31T18:05:40.455Z</time>
      </trkpt>
      <trkpt lat="43.54933" lon="1.44206">
        <ele>177.89115905762</ele>
        <time>2020-05-31T18:05:40.692Z</time>
      </trkpt>
      <trkpt lat="43.5492" lon="1.44122">
        <ele>171.33715820312</ele>
        <time>2020-05-31T18:05:40.939Z</time>
      </trkpt>
      <trkpt lat="43.54926" lon="1.44087">
        <ele>167.42231750488</ele>
        <time>2020-05-31T18:05:41.190Z</time>
      </trkpt>
      <trkpt lat="43.54927" lon="1.44079">
        <ele>166.49549865723</ele>
        <time>2020-05-31T18:05:41.442Z</time>
      </trkpt>
      <trkpt lat="43.54929" lon="1.4407">
        <ele>165.36273193359</ele>
        <time>2020-05-31T18:05:41.695Z</time>
      </trkpt>
      <trkpt lat="43.54947" lon="1.43966">
        <ele>155.74084472656</ele>
        <time>2020-05-31T18:05:41.961Z</time>
      </trkpt>
      <trkpt lat="43.54947" lon="1.43966">
        <ele>155.7406463623</ele>
        <time>2020-05-31T18:05:42.227Z</time>
      </trkpt>
      <trkpt lat="43.55004" lon="1.43983">
        <ele>158.87562561035</ele>
        <time>2020-05-31T18:05:42.502Z</time>
      </trkpt>
      <trkpt lat="43.55122" lon="1.44043">
        <ele>164.26026916504</ele>
        <time>2020-05-31T18:05:42.797Z</time>
      </trkpt>
      <trkpt lat="43.55122" lon="1.44043">
        <ele>164.25735473633</ele>
        <time>2020-05-31T18:05:43.092Z</time>
      </trkpt>
      <trkpt lat="43.55122" lon="1.44043">
        <ele>164.25665283203</ele>
        <time>2020-05-31T18:05:43.387Z</time>
      </trkpt>
      <trkpt lat="43.55122" lon="1.44043">
        <ele>164.25796508789</ele>
        <time>2020-05-31T18:05:43.682Z</time>
      </trkpt>
      <trkpt lat="43.55148" lon="1.44056">
        <ele>163.36985778809</ele>
        <time>2020-05-31T18:05:43.982Z</time>
      </trkpt>
      <trkpt lat="43.55376" lon="1.44101">
        <ele>162.57829284668</ele>
        <time>2020-05-31T18:05:44.319Z</time>
      </trkpt>
      <trkpt lat="43.55531" lon="1.44098">
        <ele>156.57276916504</ele>
        <time>2020-05-31T18:05:44.680Z</time>
      </trkpt>
      <trkpt lat="43.55735" lon="1.44125">
        <ele>159.87663269043</ele>
        <time>2020-05-31T18:05:45.074Z</time>
      </trkpt>
      <trkpt lat="43.55769" lon="1.44114">
        <ele>159.9660949707</ele>
        <time>2020-05-31T18:05:45.474Z</time>
      </trkpt>
      <trkpt lat="43.55814" lon="1.44075">
        <ele>160.69389343262</ele>
        <time>2020-05-31T18:05:45.882Z</time>
      </trkpt>
      <trkpt lat="43.55857" lon="1.44034">
        <ele>158.51786804199</ele>
        <time>2020-05-31T18:05:46.299Z</time>
      </trkpt>
      <trkpt lat="43.5593" lon="1.43997">
        <ele>155.01655578613</ele>
        <time>2020-05-31T18:05:46.728Z</time>
      </trkpt>
      <trkpt lat="43.56052" lon="1.43998">
        <ele>149.44596862793</ele>
        <time>2020-05-31T18:05:47.177Z</time>
      </trkpt>
      <trkpt lat="43.5626" lon="1.43945">
        <ele>151.64456176758</ele>
        <time>2020-05-31T18:05:47.660Z</time>
      </trkpt>
      <trkpt lat="43.56328" lon="1.43935">
        <ele>149.29942321777</ele>
        <time>2020-05-31T18:05:48.153Z</time>
      </trkpt>
      <trkpt lat="43.56359" lon="1.43937">
        <ele>149.47958374023</ele>
        <time>2020-05-31T18:05:48.651Z</time>
      </trkpt>
      <trkpt lat="43.56391" lon="1.43949">
        <ele>151.84811401367</ele>
        <time>2020-05-31T18:05:49.155Z</time>
      </trkpt>
      <trkpt lat="43.56479" lon="1.43979">
        <ele>155.34257507324</ele>
        <time>2020-05-31T18:05:49.673Z</time>
      </trkpt>
      <trkpt lat="43.56601" lon="1.43984">
        <ele>154.4017791748</ele>
        <time>2020-05-31T18:05:50.211Z</time>
      </trkpt>
      <trkpt lat="43.56601" lon="1.43984">
        <ele>154.4017791748</ele>
        <time>2020-05-31T18:05:50.749Z</time>
      </trkpt>
      <trkpt lat="43.56709" lon="1.43986">
        <ele>157.72099304199</ele>
        <time>2020-05-31T18:05:51.304Z</time>
      </trkpt>
      <trkpt lat="43.57058" lon="1.4392">
        <ele>141.9910736084</ele>
        <time>2020-05-31T18:05:51.915Z</time>
      </trkpt>
      <trkpt lat="43.57058" lon="1.4392">
        <ele>141.99217224121</ele>
        <time>2020-05-31T18:05:52.526Z</time>
      </trkpt>
      <trkpt lat="43.57101" lon="1.43909">
        <ele>146.2389831543</ele>
        <time>2020-05-31T18:05:53.144Z</time>
      </trkpt>
      <trkpt lat="43.57138" lon="1.43904">
        <ele>145.45509338379</ele>
        <time>2020-05-31T18:05:53.768Z</time>
      </trkpt>
      <trkpt lat="43.57138" lon="1.43904">
        <ele>145.45509338379</ele>
        <time>2020-05-31T18:05:54.392Z</time>
      </trkpt>
      <trkpt lat="43.57182" lon="1.43881">
        <ele>142.65222167969</ele>
        <time>2020-05-31T18:05:55.024Z</time>
      </trkpt>
      <trkpt lat="43.57205" lon="1.43864">
        <ele>140.86689758301</ele>
        <time>2020-05-31T18:05:55.660Z</time>
      </trkpt>
      <trkpt lat="43.57252" lon="1.43814">
        <ele>143.67681884766</ele>
        <time>2020-05-31T18:05:56.306Z</time>
      </trkpt>
      <trkpt lat="43.57257" lon="1.43809">
        <ele>144.44917297363</ele>
        <time>2020-05-31T18:05:56.953Z</time>
      </trkpt>
      <trkpt lat="43.57373" lon="1.437">
        <ele>142.56072998047</ele>
        <time>2020-05-31T18:05:57.622Z</time>
      </trkpt>
      <trkpt lat="43.574" lon="1.43696">
        <ele>143.58279418945</ele>
        <time>2020-05-31T18:05:58.295Z</time>
      </trkpt>
      <trkpt lat="43.57473" lon="1.43736">
        <ele>145.7353515625</ele>
        <time>2020-05-31T18:05:58.981Z</time>
      </trkpt>
      <trkpt lat="43.5748" lon="1.4374">
        <ele>146.0181427002</ele>
        <time>2020-05-31T18:05:59.668Z</time>
      </trkpt>
      <trkpt lat="43.57498" lon="1.43747">
        <ele>146.66175842285</ele>
        <time>2020-05-31T18:06:00.358Z</time>
      </trkpt>
      <trkpt lat="43.57511" lon="1.43739">
        <ele>147.53709411621</ele>
        <time>2020-05-31T18:06:01.051Z</time>
      </trkpt>
      <trkpt lat="43.57545" lon="1.43653">
        <ele>146.04473876953</ele>
        <time>2020-05-31T18:06:01.755Z</time>
      </trkpt>
      <trkpt lat="43.57558" lon="1.4364">
        <ele>145.34156799316</ele>
        <time>2020-05-31T18:06:02.461Z</time>
      </trkpt>
      <trkpt lat="43.57623" lon="1.43628">
        <ele>145.76654052734</ele>
        <time>2020-05-31T18:06:03.178Z</time>
      </trkpt>
      <trkpt lat="43.5766" lon="1.43633">
        <ele>146.8349609375</ele>
        <time>2020-05-31T18:06:03.901Z</time>
      </trkpt>
      <trkpt lat="43.57676" lon="1.43634">
        <ele>146.99905395508</ele>
        <time>2020-05-31T18:06:04.626Z</time>
      </trkpt>
      <trkpt lat="43.57723" lon="1.43641">
        <ele>145.49189758301</ele>
        <time>2020-05-31T18:06:05.359Z</time>
      </trkpt>
      <trkpt lat="43.57737" lon="1.43643">
        <ele>145.00314331055</ele>
        <time>2020-05-31T18:06:06.094Z</time>
      </trkpt>
      <trkpt lat="43.57749" lon="1.43644">
        <ele>144.52645874023</ele>
        <time>2020-05-31T18:06:06.831Z</time>
      </trkpt>
      <trkpt lat="43.57749" lon="1.43644">
        <ele>144.52687072754</ele>
        <time>2020-05-31T18:06:07.568Z</time>
      </trkpt>
      <trkpt lat="43.57771" lon="1.4365">
        <ele>143.86514282227</ele>
        <time>2020-05-31T18:06:08.309Z</time>
      </trkpt>
      <trkpt lat="43.57871" lon="1.43675">
        <ele>140.63011169434</ele>
        <time>2020-05-31T18:06:09.066Z</time>
      </trkpt>
      <trkpt lat="43.57943" lon="1.43711">
        <ele>141.47969055176</ele>
        <time>2020-05-31T18:06:09.835Z</time>
      </trkpt>
      <trkpt lat="43.5802" lon="1.43762">
        <ele>142.06954956055</ele>
        <time>2020-05-31T18:06:10.618Z</time>
      </trkpt>
      <trkpt lat="43.58119" lon="1.4384">
        <ele>145.6223449707</ele>
        <time>2020-05-31T18:06:11.419Z</time>
      </trkpt>
      <trkpt lat="43.58127" lon="1.43846">
        <ele>145.93128967285</ele>
        <time>2020-05-31T18:06:12.222Z</time>
      </trkpt>
      <trkpt lat="43.58127" lon="1.43846">
        <ele>145.93098449707</ele>
        <time>2020-05-31T18:06:13.025Z</time>
      </trkpt>
      <trkpt lat="43.58246" lon="1.43915">
        <ele>147.8176574707</ele>
        <time>2020-05-31T18:06:13.848Z</time>
      </trkpt>
      <trkpt lat="43.58297" lon="1.43939">
        <ele>148.1008605957</ele>
        <time>2020-05-31T18:06:14.680Z</time>
      </trkpt>
      <trkpt lat="43.58385" lon="1.43963">
        <ele>148.05949401855</ele>
        <time>2020-05-31T18:06:15.526Z</time>
      </trkpt>
      <trkpt lat="43.584" lon="1.43974">
        <ele>148.57438659668</ele>
        <time>2020-05-31T18:06:16.375Z</time>
      </trkpt>
      <trkpt lat="43.584" lon="1.43974">
        <ele>148.57438659668</ele>
        <time>2020-05-31T18:06:17.224Z</time>
      </trkpt>
      <trkpt lat="43.58401" lon="1.43975">
        <ele>148.62586975098</ele>
        <time>2020-05-31T18:06:18.073Z</time>
      </trkpt>
      <trkpt lat="43.58407" lon="1.4398">
        <ele>148.88333129883</ele>
        <time>2020-05-31T18:06:18.923Z</time>
      </trkpt>
      <trkpt lat="43.58409" lon="1.43931">
        <ele>145.24644470215</ele>
        <time>2020-05-31T18:06:19.779Z</time>
      </trkpt>
      <trkpt lat="43.58412" lon="1.43883">
        <ele>140.89735412598</ele>
        <time>2020-05-31T18:06:20.641Z</time>
      </trkpt>
      <trkpt lat="43.58412" lon="1.43883">
        <ele>140.90367126465</ele>
        <time>2020-05-31T18:06:21.503Z</time>
      </trkpt>
      <trkpt lat="43.58412" lon="1.43883">
        <ele>140.90548706055</ele>
        <time>2020-05-31T18:06:22.365Z</time>
      </trkpt>
      <trkpt lat="43.58412" lon="1.43883">
        <ele>140.90367126465</ele>
        <time>2020-05-31T18:06:23.227Z</time>
      </trkpt>
      <trkpt lat="43.58418" lon="1.4378">
        <ele>138.97903442383</ele>
        <time>2020-05-31T18:06:24.101Z</time>
      </trkpt>
      <trkpt lat="43.58418" lon="1.4378">
        <ele>138.97882080078</ele>
        <time>2020-05-31T18:06:24.975Z</time>
      </trkpt>
      <trkpt lat="43.58419" lon="1.4374">
        <ele>138.46412658691</ele>
        <time>2020-05-31T18:06:25.853Z</time>
      </trkpt>
      <trkpt lat="43.58421" lon="1.43698">
        <ele>138.99186706543</ele>
        <time>2020-05-31T18:06:26.736Z</time>
      </trkpt>
      <trkpt lat="43.58444" lon="1.43187">
        <ele>139.13467407227</ele>
        <time>2020-05-31T18:06:27.679Z</time>
      </trkpt>
      <trkpt lat="43.58447" lon="1.43148">
        <ele>139</ele>
        <time>2020-05-31T18:06:28.626Z</time>
      </trkpt>
      <trkpt lat="43.58447" lon="1.43148">
        <ele>139</ele>
        <time>2020-05-31T18:06:29.573Z</time>
      </trkpt>
      <trkpt lat="43.58456" lon="1.43088">
        <ele>139</ele>
        <time>2020-05-31T18:06:30.528Z</time>
      </trkpt>
      <trkpt lat="43.58488" lon="1.42901">
        <ele>144.89508056641</ele>
        <time>2020-05-31T18:06:31.505Z</time>
      </trkpt>
      <trkpt lat="43.58507" lon="1.42863">
        <ele>143.98303222656</ele>
        <time>2020-05-31T18:06:32.487Z</time>
      </trkpt>
      <trkpt lat="43.58515" lon="1.42847">
        <ele>144.57516479492</ele>
        <time>2020-05-31T18:06:33.472Z</time>
      </trkpt>
      <trkpt lat="43.58518" lon="1.42845">
        <ele>144.60111999512</ele>
        <time>2020-05-31T18:06:34.457Z</time>
      </trkpt>
      <trkpt lat="43.58523" lon="1.42848">
        <ele>144.74026489258</ele>
        <time>2020-05-31T18:06:35.443Z</time>
      </trkpt>
      <trkpt lat="43.58527" lon="1.42852">
        <ele>144.79125976562</ele>
        <time>2020-05-31T18:06:36.430Z</time>
      </trkpt>
      <trkpt lat="43.58522" lon="1.42868">
        <ele>143.69760131836</ele>
        <time>2020-05-31T18:06:37.419Z</time>
      </trkpt>
      <trkpt lat="43.58506" lon="1.4291">
        <ele>143.02777099609</ele>
        <time>2020-05-31T18:06:38.413Z</time>
      </trkpt>
      <trkpt lat="43.58501" lon="1.42917">
        <ele>143.4662322998</ele>
        <time>2020-05-31T18:06:39.409Z</time>
      </trkpt>
      <trkpt lat="43.58522" lon="1.42939">
        <ele>141.56285095215</ele>
        <time>2020-05-31T18:06:40.409Z</time>
      </trkpt>
      <trkpt lat="43.58522" lon="1.42942">
        <ele>141.52423095703</ele>
        <time>2020-05-31T18:06:41.409Z</time>
      </trkpt>
      <trkpt lat="43.58602" lon="1.42994">
        <ele>141.57682800293</ele>
        <time>2020-05-31T18:06:42.423Z</time>
      </trkpt>
      <trkpt lat="43.58602" lon="1.42994">
        <ele>141.57704162598</ele>
        <time>2020-05-31T18:06:43.437Z</time>
      </trkpt>
      <trkpt lat="43.58791" lon="1.43128">
        <ele>140.44805908203</ele>
        <time>2020-05-31T18:06:44.485Z</time>
      </trkpt>
      <trkpt lat="43.5887" lon="1.43193">
        <ele>143.23327636719</ele>
        <time>2020-05-31T18:06:45.548Z</time>
      </trkpt>
      <trkpt lat="43.5887" lon="1.43193">
        <ele>143.23510742188</ele>
        <time>2020-05-31T18:06:46.611Z</time>
      </trkpt>
      <trkpt lat="43.5887" lon="1.43193">
        <ele>143.2345123291</ele>
        <time>2020-05-31T18:06:47.674Z</time>
      </trkpt>
      <trkpt lat="43.5887" lon="1.43193">
        <ele>143.23510742188</ele>
        <time>2020-05-31T18:06:48.737Z</time>
      </trkpt>
      <trkpt lat="43.58924" lon="1.43238">
        <ele>144.93254089355</ele>
        <time>2020-05-31T18:06:49.810Z</time>
      </trkpt>
      <trkpt lat="43.58927" lon="1.4324">
        <ele>144.95767211914</ele>
        <time>2020-05-31T18:06:50.884Z</time>
      </trkpt>
      <trkpt lat="43.58929" lon="1.43242">
        <ele>144.98341369629</ele>
        <time>2020-05-31T18:06:51.958Z</time>
      </trkpt>
      <trkpt lat="43.58929" lon="1.43242">
        <ele>144.98402404785</ele>
        <time>2020-05-31T18:06:53.032Z</time>
      </trkpt>
      <trkpt lat="43.59118" lon="1.43404">
        <ele>145.72174072266</ele>
        <time>2020-05-31T18:06:54.142Z</time>
      </trkpt>
      <trkpt lat="43.59118" lon="1.43404">
        <ele>145.7261505127</ele>
        <time>2020-05-31T18:06:55.252Z</time>
      </trkpt>
      <trkpt lat="43.59118" lon="1.43404">
        <ele>145.7254486084</ele>
        <time>2020-05-31T18:06:56.362Z</time>
      </trkpt>
      <trkpt lat="43.59208" lon="1.43481">
        <ele>148.33291625977</ele>
        <time>2020-05-31T18:06:57.489Z</time>
      </trkpt>
      <trkpt lat="43.59251" lon="1.43507">
        <ele>143.5087890625</ele>
        <time>2020-05-31T18:06:58.623Z</time>
      </trkpt>
      <trkpt lat="43.59257" lon="1.43498">
        <ele>143.66325378418</ele>
        <time>2020-05-31T18:06:59.759Z</time>
      </trkpt>
      <trkpt lat="43.5926" lon="1.43498">
        <ele>143.43095397949</ele>
        <time>2020-05-31T18:07:00.895Z</time>
      </trkpt>
      <trkpt lat="43.59262" lon="1.43499">
        <ele>143.19985961914</ele>
        <time>2020-05-31T18:07:02.032Z</time>
      </trkpt>
      <trkpt lat="43.59262" lon="1.43499">
        <ele>143.19924926758</ele>
        <time>2020-05-31T18:07:03.169Z</time>
      </trkpt>
      <trkpt lat="43.59272" lon="1.435">
        <ele>142.88031005859</ele>
        <time>2020-05-31T18:07:04.307Z</time>
      </trkpt>
      <trkpt lat="43.59274" lon="1.435">
        <ele>142.98329162598</ele>
        <time>2020-05-31T18:07:05.445Z</time>
      </trkpt>
      <trkpt lat="43.59278" lon="1.43485">
        <ele>144.0126953125</ele>
        <time>2020-05-31T18:07:06.585Z</time>
      </trkpt>
      <trkpt lat="43.59285" lon="1.4348">
        <ele>144.25527954102</ele>
        <time>2020-05-31T18:07:07.727Z</time>
      </trkpt>
      <trkpt lat="43.59288" lon="1.43477">
        <ele>144.37112426758</ele>
        <time>2020-05-31T18:07:08.869Z</time>
      </trkpt>
      <trkpt lat="43.59292" lon="1.43457">
        <ele>144.88592529297</ele>
        <time>2020-05-31T18:07:10.013Z</time>
      </trkpt>
      <trkpt lat="43.59306" lon="1.43436">
        <ele>145.54273986816</ele>
        <time>2020-05-31T18:07:11.161Z</time>
      </trkpt>
      <trkpt lat="43.59315" lon="1.4343">
        <ele>145.43975830078</ele>
        <time>2020-05-31T18:07:12.310Z</time>
      </trkpt>
      <trkpt lat="43.59322" lon="1.43422">
        <ele>145.34965515137</ele>
        <time>2020-05-31T18:07:13.461Z</time>
      </trkpt>
      <trkpt lat="43.59342" lon="1.43409">
        <ele>145.11795043945</ele>
        <time>2020-05-31T18:07:14.615Z</time>
      </trkpt>
      <trkpt lat="43.59354" lon="1.43402">
        <ele>145</ele>
        <time>2020-05-31T18:07:15.771Z</time>
      </trkpt>
      <trkpt lat="43.59354" lon="1.43402">
        <ele>145</ele>
        <time>2020-05-31T18:07:16.927Z</time>
      </trkpt>
      <trkpt lat="43.59385" lon="1.43379">
        <ele>144.04690551758</ele>
        <time>2020-05-31T18:07:18.089Z</time>
      </trkpt>
      <trkpt lat="43.59405" lon="1.43363">
        <ele>143.50625610352</ele>
        <time>2020-05-31T18:07:19.255Z</time>
      </trkpt>
      <trkpt lat="43.59436" lon="1.43341">
        <ele>142.73080444336</ele>
        <time>2020-05-31T18:07:20.426Z</time>
      </trkpt>
      <trkpt lat="43.59444" lon="1.43335">
        <ele>142.97538757324</ele>
        <time>2020-05-31T18:07:21.599Z</time>
      </trkpt>
      <trkpt lat="43.5946" lon="1.43323">
        <ele>143.29801940918</ele>
        <time>2020-05-31T18:07:22.775Z</time>
      </trkpt>
      <trkpt lat="43.5946" lon="1.43323">
        <ele>143.29791259766</ele>
        <time>2020-05-31T18:07:23.951Z</time>
      </trkpt>
      <trkpt lat="43.59515" lon="1.43285">
        <ele>145.39111328125</ele>
        <time>2020-05-31T18:07:25.137Z</time>
      </trkpt>
      <trkpt lat="43.59565" lon="1.43246">
        <ele>145.20239257812</ele>
        <time>2020-05-31T18:07:26.332Z</time>
      </trkpt>
      <trkpt lat="43.5958" lon="1.43234">
        <ele>144.30131530762</ele>
        <time>2020-05-31T18:07:27.530Z</time>
      </trkpt>
      <trkpt lat="43.59599" lon="1.4322">
        <ele>143.11430358887</ele>
        <time>2020-05-31T18:07:28.731Z</time>
      </trkpt>
      <trkpt lat="43.596" lon="1.43219">
        <ele>143.1400604248</ele>
        <time>2020-05-31T18:07:29.932Z</time>
      </trkpt>
      <trkpt lat="43.59604" lon="1.43216">
        <ele>143.17143249512</ele>
        <time>2020-05-31T18:07:31.134Z</time>
      </trkpt>
      <trkpt lat="43.59618" lon="1.43206">
        <ele>143.12004089355</ele>
        <time>2020-05-31T18:07:32.338Z</time>
      </trkpt>
      <trkpt lat="43.59631" lon="1.43201">
        <ele>143.01695251465</ele>
        <time>2020-05-31T18:07:33.545Z</time>
      </trkpt>
      <trkpt lat="43.59708" lon="1.43146">
        <ele>144.91377258301</ele>
        <time>2020-05-31T18:07:34.765Z</time>
      </trkpt>
      <trkpt lat="43.59716" lon="1.4314">
        <ele>144.50184631348</ele>
        <time>2020-05-31T18:07:35.987Z</time>
      </trkpt>
      <trkpt lat="43.59744" lon="1.43121">
        <ele>143.11387634277</ele>
        <time>2020-05-31T18:07:37.214Z</time>
      </trkpt>
      <trkpt lat="43.59744" lon="1.43121">
        <ele>143.11437988281</ele>
        <time>2020-05-31T18:07:38.441Z</time>
      </trkpt>
      <trkpt lat="43.59769" lon="1.43103">
        <ele>141.44874572754</ele>
        <time>2020-05-31T18:07:39.672Z</time>
      </trkpt>
      <trkpt lat="43.59769" lon="1.43103">
        <ele>141.44885253906</ele>
        <time>2020-05-31T18:07:40.903Z</time>
      </trkpt>
      <trkpt lat="43.59777" lon="1.43098">
        <ele>141.28150939941</ele>
        <time>2020-05-31T18:07:42.136Z</time>
      </trkpt>
      <trkpt lat="43.5978" lon="1.43099">
        <ele>141.26863098145</ele>
        <time>2020-05-31T18:07:43.369Z</time>
      </trkpt>
      <trkpt lat="43.59793" lon="1.43093">
        <ele>141.02395629883</ele>
        <time>2020-05-31T18:07:44.605Z</time>
      </trkpt>
      <trkpt lat="43.59793" lon="1.43093">
        <ele>141.02404785156</ele>
        <time>2020-05-31T18:07:45.841Z</time>
      </trkpt>
      <trkpt lat="43.59797" lon="1.43082">
        <ele>141</ele>
        <time>2020-05-31T18:07:47.078Z</time>
      </trkpt>
      <trkpt lat="43.59804" lon="1.43077">
        <ele>141</ele>
        <time>2020-05-31T18:07:48.316Z</time>
      </trkpt>
      <trkpt lat="43.59804" lon="1.43077">
        <ele>141</ele>
        <time>2020-05-31T18:07:49.554Z</time>
      </trkpt>
      <trkpt lat="43.59836" lon="1.43052">
        <ele>141</ele>
        <time>2020-05-31T18:07:50.798Z</time>
      </trkpt>
      <trkpt lat="43.59866" lon="1.43027">
        <ele>141.45991516113</ele>
        <time>2020-05-31T18:07:52.048Z</time>
      </trkpt>
      <trkpt lat="43.59881" lon="1.43015">
        <ele>141.60150146484</ele>
        <time>2020-05-31T18:07:53.301Z</time>
      </trkpt>
      <trkpt lat="43.59898" lon="1.43004">
        <ele>140.86413574219</ele>
        <time>2020-05-31T18:07:54.557Z</time>
      </trkpt>
      <trkpt lat="43.59945" lon="1.42969">
        <ele>139.19367980957</ele>
        <time>2020-05-31T18:07:55.821Z</time>
      </trkpt>
      <trkpt lat="43.59952" lon="1.42965">
        <ele>139.20664978027</ele>
        <time>2020-05-31T18:07:57.086Z</time>
      </trkpt>
      <trkpt lat="43.60027" lon="1.42912">
        <ele>138</ele>
        <time>2020-05-31T18:07:58.365Z</time>
      </trkpt>
      <trkpt lat="43.60065" lon="1.42882">
        <ele>139.51156616211</ele>
        <time>2020-05-31T18:07:59.651Z</time>
      </trkpt>
      <trkpt lat="43.60065" lon="1.42882">
        <ele>139.51135253906</ele>
        <time>2020-05-31T18:08:00.937Z</time>
      </trkpt>
      <trkpt lat="43.6009" lon="1.42864">
        <ele>140.54135131836</ele>
        <time>2020-05-31T18:08:02.227Z</time>
      </trkpt>
      <trkpt lat="43.60094" lon="1.42862">
        <ele>140.69561767578</ele>
        <time>2020-05-31T18:08:03.518Z</time>
      </trkpt>
      <trkpt lat="43.60195" lon="1.42794">
        <ele>142.91627502441</ele>
        <time>2020-05-31T18:08:04.827Z</time>
      </trkpt>
      <trkpt lat="43.60211" lon="1.42793">
        <ele>138.9644317627</ele>
        <time>2020-05-31T18:08:06.139Z</time>
      </trkpt>
      <trkpt lat="43.60434" lon="1.42808">
        <ele>140.87756347656</ele>
        <time>2020-05-31T18:08:07.486Z</time>
      </trkpt>
      <trkpt lat="43.60443" lon="1.42809">
        <ele>141.42938232422</ele>
        <time>2020-05-31T18:08:08.835Z</time>
      </trkpt>
      <trkpt lat="43.60537" lon="1.42816">
        <ele>144.77381896973</ele>
        <time>2020-05-31T18:08:10.199Z</time>
      </trkpt>
      <trkpt lat="43.60537" lon="1.42816">
        <ele>144.77391052246</ele>
        <time>2020-05-31T18:08:11.563Z</time>
      </trkpt>
      <trkpt lat="43.60548" lon="1.42817">
        <ele>144.63221740723</ele>
        <time>2020-05-31T18:08:12.929Z</time>
      </trkpt>
      <trkpt lat="43.60553" lon="1.42817">
        <ele>144.56785583496</ele>
        <time>2020-05-31T18:08:14.295Z</time>
      </trkpt>
      <trkpt lat="43.60594" lon="1.4282">
        <ele>144.04019165039</ele>
        <time>2020-05-31T18:08:15.668Z</time>
      </trkpt>
      <trkpt lat="43.60595" lon="1.42811">
        <ele>143.84242248535</ele>
        <time>2020-05-31T18:08:17.042Z</time>
      </trkpt>
      <trkpt lat="43.60596" lon="1.42805">
        <ele>143.46307373047</ele>
        <time>2020-05-31T18:08:18.417Z</time>
      </trkpt>
      <trkpt lat="43.60596" lon="1.42801">
        <ele>143.1544342041</ele>
        <time>2020-05-31T18:08:19.792Z</time>
      </trkpt>
      <trkpt lat="43.60602" lon="1.42752">
        <ele>139.38401794434</ele>
        <time>2020-05-31T18:08:21.173Z</time>
      </trkpt>
      <trkpt lat="43.60611" lon="1.42684">
        <ele>137.28247070312</ele>
        <time>2020-05-31T18:08:22.562Z</time>
      </trkpt>
      <trkpt lat="43.60622" lon="1.42608">
        <ele>137.94165039062</ele>
        <time>2020-05-31T18:08:23.960Z</time>
      </trkpt>
      <trkpt lat="43.60622" lon="1.42608">
        <ele>137.94125366211</ele>
        <time>2020-05-31T18:08:25.358Z</time>
      </trkpt>
      <trkpt lat="43.60625" lon="1.42585">
        <ele>138.43240356445</ele>
        <time>2020-05-31T18:08:26.759Z</time>
      </trkpt>
      <trkpt lat="43.60625" lon="1.42585">
        <ele>138.43249511719</ele>
        <time>2020-05-31T18:08:28.160Z</time>
      </trkpt>
      <trkpt lat="43.60629" lon="1.42542">
        <ele>137.39273071289</ele>
        <time>2020-05-31T18:08:29.566Z</time>
      </trkpt>
      <trkpt lat="43.60628" lon="1.42488">
        <ele>136.74911499023</ele>
        <time>2020-05-31T18:08:30.978Z</time>
      </trkpt>
      <trkpt lat="43.60628" lon="1.42436">
        <ele>135.57859802246</ele>
        <time>2020-05-31T18:08:32.396Z</time>
      </trkpt>
      <trkpt lat="43.60628" lon="1.42436">
        <ele>135.57870483398</ele>
        <time>2020-05-31T18:08:33.814Z</time>
      </trkpt>
      <trkpt lat="43.60626" lon="1.42258">
        <ele>138.29028320312</ele>
        <time>2020-05-31T18:08:35.253Z</time>
      </trkpt>
      <trkpt lat="43.60631" lon="1.4221">
        <ele>137.19383239746</ele>
        <time>2020-05-31T18:08:36.697Z</time>
      </trkpt>
      <trkpt lat="43.60647" lon="1.4209">
        <ele>138.38502502441</ele>
        <time>2020-05-31T18:08:38.156Z</time>
      </trkpt>
      <trkpt lat="43.60656" lon="1.42063">
        <ele>138.3016204834</ele>
        <time>2020-05-31T18:08:39.618Z</time>
      </trkpt>
      <trkpt lat="43.60654" lon="1.42043">
        <ele>138.24993896484</ele>
        <time>2020-05-31T18:08:41.082Z</time>
      </trkpt>
      <trkpt lat="43.60716" lon="1.41888">
        <ele>135.87359619141</ele>
        <time>2020-05-31T18:08:42.567Z</time>
      </trkpt>
      <trkpt lat="43.60847" lon="1.41632">
        <ele>136.94200134277</ele>
        <time>2020-05-31T18:08:44.088Z</time>
      </trkpt>
      <trkpt lat="43.60861" lon="1.41612">
        <ele>136.89065551758</ele>
        <time>2020-05-31T18:08:45.613Z</time>
      </trkpt>
      <trkpt lat="43.60888" lon="1.41586">
        <ele>136.74761962891</ele>
        <time>2020-05-31T18:08:47.143Z</time>
      </trkpt>
      <trkpt lat="43.60978" lon="1.41513">
        <ele>137.75834655762</ele>
        <time>2020-05-31T18:08:48.690Z</time>
      </trkpt>
      <trkpt lat="43.6098" lon="1.41487">
        <ele>138.42771911621</ele>
        <time>2020-05-31T18:08:50.240Z</time>
      </trkpt>
      <trkpt lat="43.60973" lon="1.41445">
        <ele>138.00129699707</ele>
        <time>2020-05-31T18:08:51.795Z</time>
      </trkpt>
      <trkpt lat="43.60935" lon="1.41369">
        <ele>136.60986328125</ele>
        <time>2020-05-31T18:08:53.360Z</time>
      </trkpt>
      <trkpt lat="43.60933" lon="1.41339">
        <ele>135.94171142578</ele>
        <time>2020-05-31T18:08:54.929Z</time>
      </trkpt>
      <trkpt lat="43.60967" lon="1.41275">
        <ele>136.7674407959</ele>
        <time>2020-05-31T18:08:56.507Z</time>
      </trkpt>
      <trkpt lat="43.60975" lon="1.41272">
        <ele>136.94364929199</ele>
        <time>2020-05-31T18:08:58.086Z</time>
      </trkpt>
      <trkpt lat="43.60975" lon="1.41272">
        <ele>136.94564819336</ele>
        <time>2020-05-31T18:08:59.665Z</time>
      </trkpt>
      <trkpt lat="43.60975" lon="1.41271">
        <ele>136.94705200195</ele>
        <time>2020-05-31T18:09:01.244Z</time>
      </trkpt>
      <trkpt lat="43.60978" lon="1.4127">
        <ele>136.85255432129</ele>
        <time>2020-05-31T18:09:02.824Z</time>
      </trkpt>
      <trkpt lat="43.6099" lon="1.41277">
        <ele>136.98118591309</ele>
        <time>2020-05-31T18:09:04.406Z</time>
      </trkpt>
      <trkpt lat="43.61019" lon="1.41341">
        <ele>137.99839782715</ele>
        <time>2020-05-31T18:09:05.997Z</time>
      </trkpt>
      <trkpt lat="43.61038" lon="1.41374">
        <ele>137.76658630371</ele>
        <time>2020-05-31T18:09:07.593Z</time>
      </trkpt>
      <trkpt lat="43.6108" lon="1.41421">
        <ele>137.80470275879</ele>
        <time>2020-05-31T18:09:09.197Z</time>
      </trkpt>
      <trkpt lat="43.61109" lon="1.41425">
        <ele>137.56002807617</ele>
        <time>2020-05-31T18:09:10.806Z</time>
      </trkpt>
      <trkpt lat="43.61109" lon="1.41425">
        <ele>137.5601348877</ele>
        <time>2020-05-31T18:09:12.415Z</time>
      </trkpt>
      <trkpt lat="43.61128" lon="1.41442">
        <ele>137.71459960938</ele>
        <time>2020-05-31T18:09:14.028Z</time>
      </trkpt>
      <trkpt lat="43.61145" lon="1.41474">
        <ele>138.28099060059</ele>
        <time>2020-05-31T18:09:15.645Z</time>
      </trkpt>
      <trkpt lat="43.61152" lon="1.41477">
        <ele>138.28088378906</ele>
        <time>2020-05-31T18:09:17.263Z</time>
      </trkpt>
      <trkpt lat="43.61161" lon="1.41476">
        <ele>138.13938903809</ele>
        <time>2020-05-31T18:09:18.883Z</time>
      </trkpt>
      <trkpt lat="43.61182" lon="1.41399">
        <ele>136.04138183594</ele>
        <time>2020-05-31T18:09:20.512Z</time>
      </trkpt>
      <trkpt lat="43.61226" lon="1.41334">
        <ele>135.51391601562</ele>
        <time>2020-05-31T18:09:22.152Z</time>
      </trkpt>
      <trkpt lat="43.61255" lon="1.413">
        <ele>135.01820373535</ele>
        <time>2020-05-31T18:09:23.798Z</time>
      </trkpt>
      <trkpt lat="43.61303" lon="1.41248">
        <ele>135.58720397949</ele>
        <time>2020-05-31T18:09:25.454Z</time>
      </trkpt>
      <trkpt lat="43.61311" lon="1.41242">
        <ele>135.49699401855</ele>
        <time>2020-05-31T18:09:27.111Z</time>
      </trkpt>
      <trkpt lat="43.61387" lon="1.41164">
        <ele>135.58303833008</ele>
        <time>2020-05-31T18:09:28.783Z</time>
      </trkpt>
      <trkpt lat="43.61387" lon="1.41164">
        <ele>135.5831451416</ele>
        <time>2020-05-31T18:09:30.455Z</time>
      </trkpt>
      <trkpt lat="43.61402" lon="1.41149">
        <ele>135.40292358398</ele>
        <time>2020-05-31T18:09:32.130Z</time>
      </trkpt>
      <trkpt lat="43.61422" lon="1.41126">
        <ele>135.26991271973</ele>
        <time>2020-05-31T18:09:33.809Z</time>
      </trkpt>
      <trkpt lat="43.61451" lon="1.41097">
        <ele>135.42816162109</ele>
        <time>2020-05-31T18:09:35.494Z</time>
      </trkpt>
      <trkpt lat="43.61478" lon="1.41069">
        <ele>135.44104003906</ele>
        <time>2020-05-31T18:09:37.184Z</time>
      </trkpt>
      <trkpt lat="43.61478" lon="1.41069">
        <ele>135.4411315918</ele>
        <time>2020-05-31T18:09:38.874Z</time>
      </trkpt>
      <trkpt lat="43.61549" lon="1.40991">
        <ele>135.81004333496</ele>
        <time>2020-05-31T18:09:40.579Z</time>
      </trkpt>
      <trkpt lat="43.61585" lon="1.40952">
        <ele>134</ele>
        <time>2020-05-31T18:09:42.291Z</time>
      </trkpt>
      <trkpt lat="43.61623" lon="1.40914">
        <ele>133.38850402832</ele>
        <time>2020-05-31T18:09:44.011Z</time>
      </trkpt>
      <trkpt lat="43.61639" lon="1.40895">
        <ele>133.59550476074</ele>
        <time>2020-05-31T18:09:45.734Z</time>
      </trkpt>
      <trkpt lat="43.6165" lon="1.40883">
        <ele>133.62124633789</ele>
        <time>2020-05-31T18:09:47.459Z</time>
      </trkpt>
      <trkpt lat="43.61655" lon="1.40877">
        <ele>133.62135314941</ele>
        <time>2020-05-31T18:09:49.186Z</time>
      </trkpt>
      <trkpt lat="43.61659" lon="1.40873">
        <ele>133.62124633789</ele>
        <time>2020-05-31T18:09:50.913Z</time>
      </trkpt>
      <trkpt lat="43.61659" lon="1.40873">
        <ele>133.62135314941</ele>
        <time>2020-05-31T18:09:52.640Z</time>
      </trkpt>
      <trkpt lat="43.61669" lon="1.40861">
        <ele>133.64698791504</ele>
        <time>2020-05-31T18:09:54.369Z</time>
      </trkpt>
      <trkpt lat="43.61695" lon="1.40832">
        <ele>133.79696655273</ele>
        <time>2020-05-31T18:09:56.104Z</time>
      </trkpt>
      <trkpt lat="43.61703" lon="1.40825">
        <ele>133.88706970215</ele>
        <time>2020-05-31T18:09:57.840Z</time>
      </trkpt>
      <trkpt lat="43.61719" lon="1.40817">
        <ele>133.97717285156</ele>
        <time>2020-05-31T18:09:59.579Z</time>
      </trkpt>
      <trkpt lat="43.61729" lon="1.40827">
        <ele>133.861328125</ele>
        <time>2020-05-31T18:10:01.320Z</time>
      </trkpt>
      <trkpt lat="43.61738" lon="1.40818">
        <ele>133.96430969238</ele>
        <time>2020-05-31T18:10:03.063Z</time>
      </trkpt>
      <trkpt lat="43.61746" lon="1.40818">
        <ele>133.96430969238</ele>
        <time>2020-05-31T18:10:04.807Z</time>
      </trkpt>
      <trkpt lat="43.61871" lon="1.40817">
        <ele>132.2452545166</ele>
        <time>2020-05-31T18:10:06.571Z</time>
      </trkpt>
      <trkpt lat="43.61887" lon="1.40818">
        <ele>132.45121765137</ele>
        <time>2020-05-31T18:10:08.338Z</time>
      </trkpt>
      <trkpt lat="43.61914" lon="1.40818">
        <ele>132.7730255127</ele>
        <time>2020-05-31T18:10:10.109Z</time>
      </trkpt>
      <trkpt lat="43.61945" lon="1.40818">
        <ele>133</ele>
        <time>2020-05-31T18:10:11.885Z</time>
      </trkpt>
      <trkpt lat="43.61946" lon="1.40818">
        <ele>133</ele>
        <time>2020-05-31T18:10:13.661Z</time>
      </trkpt>
      <trkpt lat="43.61954" lon="1.40818">
        <ele>133</ele>
        <time>2020-05-31T18:10:15.438Z</time>
      </trkpt>
      <trkpt lat="43.62004" lon="1.40819">
        <ele>133</ele>
        <time>2020-05-31T18:10:17.223Z</time>
      </trkpt>
      <trkpt lat="43.62008" lon="1.40819">
        <ele>133</ele>
        <time>2020-05-31T18:10:19.009Z</time>
      </trkpt>
      <trkpt lat="43.62145" lon="1.40819">
        <ele>132</ele>
        <time>2020-05-31T18:10:20.817Z</time>
      </trkpt>
      <trkpt lat="43.62145" lon="1.40819">
        <ele>132</ele>
        <time>2020-05-31T18:10:22.625Z</time>
      </trkpt>
      <trkpt lat="43.62231" lon="1.40819">
        <ele>131.95143127441</ele>
        <time>2020-05-31T18:10:24.447Z</time>
      </trkpt>
    </trkseg>
  </trk>
  <trk>
    <name><![CDATA[S23 siam (89 Kms / 515 m d+)]]></name>
    <trkseg>
      <trkpt lat="43.62226" lon="1.40819">
        <ele>132.21</ele>
      </trkpt>
      <trkpt lat="43.62277" lon="1.40819">
        <ele>132.35</ele>
      </trkpt>
      <trkpt lat="43.62327" lon="1.40819">
        <ele>132.04</ele>
      </trkpt>
      <trkpt lat="43.62363" lon="1.40889">
        <ele>130.61</ele>
      </trkpt>
      <trkpt lat="43.624" lon="1.40958">
        <ele>129.93</ele>
      </trkpt>
      <trkpt lat="43.62436" lon="1.41028">
        <ele>129.51</ele>
      </trkpt>
      <trkpt lat="43.62439" lon="1.41042">
        <ele>129.97</ele>
      </trkpt>
      <trkpt lat="43.62434" lon="1.41057">
        <ele>130.37</ele>
      </trkpt>
      <trkpt lat="43.62422" lon="1.41078">
        <ele>131.3</ele>
      </trkpt>
      <trkpt lat="43.62418" lon="1.4109">
        <ele>131.37</ele>
      </trkpt>
      <trkpt lat="43.62422" lon="1.41111">
        <ele>132.12</ele>
      </trkpt>
      <trkpt lat="43.62418" lon="1.41118">
        <ele>132.12</ele>
      </trkpt>
      <trkpt lat="43.62417" lon="1.41131">
        <ele>132.65</ele>
      </trkpt>
      <trkpt lat="43.62419" lon="1.41138">
        <ele>132.65</ele>
      </trkpt>
      <trkpt lat="43.62426" lon="1.41149">
        <ele>132.65</ele>
      </trkpt>
      <trkpt lat="43.62436" lon="1.41152">
        <ele>132.65</ele>
      </trkpt>
      <trkpt lat="43.62446" lon="1.41147">
        <ele>132.05</ele>
      </trkpt>
      <trkpt lat="43.62453" lon="1.41134">
        <ele>132.05</ele>
      </trkpt>
      <trkpt lat="43.62473" lon="1.41126">
        <ele>132.05</ele>
      </trkpt>
      <trkpt lat="43.62499" lon="1.41128">
        <ele>132.18</ele>
      </trkpt>
      <trkpt lat="43.62565" lon="1.41127">
        <ele>133.1</ele>
      </trkpt>
      <trkpt lat="43.62581" lon="1.41137">
        <ele>133.37</ele>
      </trkpt>
      <trkpt lat="43.6259" lon="1.41149">
        <ele>133.37</ele>
      </trkpt>
      <trkpt lat="43.62596" lon="1.41152">
        <ele>133.3</ele>
      </trkpt>
      <trkpt lat="43.62602" lon="1.41151">
        <ele>133.3</ele>
      </trkpt>
      <trkpt lat="43.62612" lon="1.41139">
        <ele>133.16</ele>
      </trkpt>
      <trkpt lat="43.6263" lon="1.41137">
        <ele>133.05</ele>
      </trkpt>
      <trkpt lat="43.62641" lon="1.41134">
        <ele>133.05</ele>
      </trkpt>
      <trkpt lat="43.62693" lon="1.41096">
        <ele>130.91</ele>
      </trkpt>
      <trkpt lat="43.62733" lon="1.41075">
        <ele>130.84</ele>
      </trkpt>
      <trkpt lat="43.62766" lon="1.41061">
        <ele>130.91</ele>
      </trkpt>
      <trkpt lat="43.62816" lon="1.41047">
        <ele>131.46</ele>
      </trkpt>
      <trkpt lat="43.62865" lon="1.41032">
        <ele>131.07</ele>
      </trkpt>
      <trkpt lat="43.62896" lon="1.41027">
        <ele>131.85</ele>
      </trkpt>
      <trkpt lat="43.62897" lon="1.41033">
        <ele>131.85</ele>
      </trkpt>
      <trkpt lat="43.62901" lon="1.41043">
        <ele>131.85</ele>
      </trkpt>
      <trkpt lat="43.62911" lon="1.41048">
        <ele>131.92</ele>
      </trkpt>
      <trkpt lat="43.6292" lon="1.41042">
        <ele>131.92</ele>
      </trkpt>
      <trkpt lat="43.62924" lon="1.41031">
        <ele>131.92</ele>
      </trkpt>
      <trkpt lat="43.62951" lon="1.41044">
        <ele>132.41</ele>
      </trkpt>
      <trkpt lat="43.62978" lon="1.41068">
        <ele>131.84</ele>
      </trkpt>
      <trkpt lat="43.62992" lon="1.41088">
        <ele>131.99</ele>
      </trkpt>
      <trkpt lat="43.63002" lon="1.41106">
        <ele>131.99</ele>
      </trkpt>
      <trkpt lat="43.63042" lon="1.41217">
        <ele>132.26</ele>
      </trkpt>
      <trkpt lat="43.63082" lon="1.41328">
        <ele>132.18</ele>
      </trkpt>
      <trkpt lat="43.63122" lon="1.41439">
        <ele>131.89</ele>
      </trkpt>
      <trkpt lat="43.63162" lon="1.4155">
        <ele>130.43</ele>
      </trkpt>
      <trkpt lat="43.63158" lon="1.41556">
        <ele>130.43</ele>
      </trkpt>
      <trkpt lat="43.63158" lon="1.41564">
        <ele>130.3</ele>
      </trkpt>
      <trkpt lat="43.63162" lon="1.41569">
        <ele>130.3</ele>
      </trkpt>
      <trkpt lat="43.63169" lon="1.41567">
        <ele>130.33</ele>
      </trkpt>
      <trkpt lat="43.63198" lon="1.41648">
        <ele>130.67</ele>
      </trkpt>
      <trkpt lat="43.63213" lon="1.4167">
        <ele>130.72</ele>
      </trkpt>
      <trkpt lat="43.6323" lon="1.41686">
        <ele>131.26</ele>
      </trkpt>
      <trkpt lat="43.6325" lon="1.41696">
        <ele>131.48</ele>
      </trkpt>
      <trkpt lat="43.63266" lon="1.41699">
        <ele>131.43</ele>
      </trkpt>
      <trkpt lat="43.63337" lon="1.41709">
        <ele>130.64</ele>
      </trkpt>
      <trkpt lat="43.63407" lon="1.4172">
        <ele>130.95</ele>
      </trkpt>
      <trkpt lat="43.63478" lon="1.4173">
        <ele>131.78</ele>
      </trkpt>
      <trkpt lat="43.63501" lon="1.41744">
        <ele>130.97</ele>
      </trkpt>
      <trkpt lat="43.6351" lon="1.41757">
        <ele>130.97</ele>
      </trkpt>
      <trkpt lat="43.63511" lon="1.41763">
        <ele>130.97</ele>
      </trkpt>
      <trkpt lat="43.63519" lon="1.41774">
        <ele>130.91</ele>
      </trkpt>
      <trkpt lat="43.63524" lon="1.41776">
        <ele>130.91</ele>
      </trkpt>
      <trkpt lat="43.63535" lon="1.41795">
        <ele>130.91</ele>
      </trkpt>
      <trkpt lat="43.63546" lon="1.41821">
        <ele>131.22</ele>
      </trkpt>
      <trkpt lat="43.63558" lon="1.41862">
        <ele>132.1</ele>
      </trkpt>
      <trkpt lat="43.63587" lon="1.41944">
        <ele>132.87</ele>
      </trkpt>
      <trkpt lat="43.63615" lon="1.42025">
        <ele>133</ele>
      </trkpt>
      <trkpt lat="43.6361" lon="1.4203">
        <ele>133</ele>
      </trkpt>
      <trkpt lat="43.63607" lon="1.42037">
        <ele>133.12</ele>
      </trkpt>
      <trkpt lat="43.63606" lon="1.42045">
        <ele>133.12</ele>
      </trkpt>
      <trkpt lat="43.6361" lon="1.42059">
        <ele>133.12</ele>
      </trkpt>
      <trkpt lat="43.63614" lon="1.42063">
        <ele>133.12</ele>
      </trkpt>
      <trkpt lat="43.6362" lon="1.42065">
        <ele>133.37</ele>
      </trkpt>
      <trkpt lat="43.63625" lon="1.42064">
        <ele>133.37</ele>
      </trkpt>
      <trkpt lat="43.6363" lon="1.42061">
        <ele>133.37</ele>
      </trkpt>
      <trkpt lat="43.63636" lon="1.42044">
        <ele>133.28</ele>
      </trkpt>
      <trkpt lat="43.63663" lon="1.42042">
        <ele>133.71</ele>
      </trkpt>
      <trkpt lat="43.63683" lon="1.42036">
        <ele>133.89</ele>
      </trkpt>
      <trkpt lat="43.63699" lon="1.42028">
        <ele>133.9</ele>
      </trkpt>
      <trkpt lat="43.63751" lon="1.42006">
        <ele>133.94</ele>
      </trkpt>
      <trkpt lat="43.63829" lon="1.41964">
        <ele>134.39</ele>
      </trkpt>
      <trkpt lat="43.63876" lon="1.41935">
        <ele>133.14</ele>
      </trkpt>
      <trkpt lat="43.63923" lon="1.41905">
        <ele>132.94</ele>
      </trkpt>
      <trkpt lat="43.63964" lon="1.41873">
        <ele>132.42</ele>
      </trkpt>
      <trkpt lat="43.64023" lon="1.41819">
        <ele>132.6</ele>
      </trkpt>
      <trkpt lat="43.64081" lon="1.41765">
        <ele>133.16</ele>
      </trkpt>
      <trkpt lat="43.64147" lon="1.41703">
        <ele>132.36</ele>
      </trkpt>
      <trkpt lat="43.64212" lon="1.41641">
        <ele>132.04</ele>
      </trkpt>
      <trkpt lat="43.64263" lon="1.41598">
        <ele>132.54</ele>
      </trkpt>
      <trkpt lat="43.64305" lon="1.41572">
        <ele>132.62</ele>
      </trkpt>
      <trkpt lat="43.64346" lon="1.41546">
        <ele>131.57</ele>
      </trkpt>
      <trkpt lat="43.6441" lon="1.41512">
        <ele>130.61</ele>
      </trkpt>
      <trkpt lat="43.64459" lon="1.41491">
        <ele>130.68</ele>
      </trkpt>
      <trkpt lat="43.64508" lon="1.4147">
        <ele>130.71</ele>
      </trkpt>
      <trkpt lat="43.64572" lon="1.41456">
        <ele>131.73</ele>
      </trkpt>
      <trkpt lat="43.64651" lon="1.41449">
        <ele>131.8</ele>
      </trkpt>
      <trkpt lat="43.64692" lon="1.41439">
        <ele>131.58</ele>
      </trkpt>
      <trkpt lat="43.64731" lon="1.41427">
        <ele>130.88</ele>
      </trkpt>
      <trkpt lat="43.64737" lon="1.41427">
        <ele>130.88</ele>
      </trkpt>
      <trkpt lat="43.64749" lon="1.41433">
        <ele>130.86</ele>
      </trkpt>
      <trkpt lat="43.64751" lon="1.41423">
        <ele>130.86</ele>
      </trkpt>
      <trkpt lat="43.64755" lon="1.41417">
        <ele>130.86</ele>
      </trkpt>
      <trkpt lat="43.64801" lon="1.41401">
        <ele>130.6</ele>
      </trkpt>
      <trkpt lat="43.64847" lon="1.41384">
        <ele>130.34</ele>
      </trkpt>
      <trkpt lat="43.64869" lon="1.41379">
        <ele>130.34</ele>
      </trkpt>
      <trkpt lat="43.64938" lon="1.41367">
        <ele>129.23</ele>
      </trkpt>
      <trkpt lat="43.65006" lon="1.41354">
        <ele>128.87</ele>
      </trkpt>
      <trkpt lat="43.65074" lon="1.41336">
        <ele>128.18</ele>
      </trkpt>
      <trkpt lat="43.65127" lon="1.41307">
        <ele>128.55</ele>
      </trkpt>
      <trkpt lat="43.65179" lon="1.41278">
        <ele>128.55</ele>
      </trkpt>
      <trkpt lat="43.65248" lon="1.4125">
        <ele>128.9</ele>
      </trkpt>
      <trkpt lat="43.65316" lon="1.41222">
        <ele>128.9</ele>
      </trkpt>
      <trkpt lat="43.65358" lon="1.41202">
        <ele>130.08</ele>
      </trkpt>
      <trkpt lat="43.65417" lon="1.4119">
        <ele>130.41</ele>
      </trkpt>
      <trkpt lat="43.65494" lon="1.4117">
        <ele>131.33</ele>
      </trkpt>
      <trkpt lat="43.65567" lon="1.41154">
        <ele>129.84</ele>
      </trkpt>
      <trkpt lat="43.65639" lon="1.41138">
        <ele>130.35</ele>
      </trkpt>
      <trkpt lat="43.6566" lon="1.41131">
        <ele>130.34</ele>
      </trkpt>
      <trkpt lat="43.65664" lon="1.41139">
        <ele>130.2</ele>
      </trkpt>
      <trkpt lat="43.65668" lon="1.4114">
        <ele>130.2</ele>
      </trkpt>
      <trkpt lat="43.65674" lon="1.41136">
        <ele>130.21</ele>
      </trkpt>
      <trkpt lat="43.65675" lon="1.41127">
        <ele>130.29</ele>
      </trkpt>
      <trkpt lat="43.65718" lon="1.41109">
        <ele>129.81</ele>
      </trkpt>
      <trkpt lat="43.65748" lon="1.41093">
        <ele>129.81</ele>
      </trkpt>
      <trkpt lat="43.65824" lon="1.4105">
        <ele>129.18</ele>
      </trkpt>
      <trkpt lat="43.65899" lon="1.41006">
        <ele>129.02</ele>
      </trkpt>
      <trkpt lat="43.65921" lon="1.40986">
        <ele>129.03</ele>
      </trkpt>
      <trkpt lat="43.65925" lon="1.4099">
        <ele>128.93</ele>
      </trkpt>
      <trkpt lat="43.6593" lon="1.4099">
        <ele>128.93</ele>
      </trkpt>
      <trkpt lat="43.65933" lon="1.40988">
        <ele>128.91</ele>
      </trkpt>
      <trkpt lat="43.65935" lon="1.40978">
        <ele>129.16</ele>
      </trkpt>
      <trkpt lat="43.65931" lon="1.4097">
        <ele>129.16</ele>
      </trkpt>
      <trkpt lat="43.65955" lon="1.40889">
        <ele>127.98</ele>
      </trkpt>
      <trkpt lat="43.65963" lon="1.40876">
        <ele>127.98</ele>
      </trkpt>
      <trkpt lat="43.65995" lon="1.40843">
        <ele>127.58</ele>
      </trkpt>
      <trkpt lat="43.6602" lon="1.40826">
        <ele>127.58</ele>
      </trkpt>
      <trkpt lat="43.66061" lon="1.40807">
        <ele>127.93</ele>
      </trkpt>
      <trkpt lat="43.66132" lon="1.40779">
        <ele>128.11</ele>
      </trkpt>
      <trkpt lat="43.66204" lon="1.40751">
        <ele>127.71</ele>
      </trkpt>
      <trkpt lat="43.66275" lon="1.40723">
        <ele>127.95</ele>
      </trkpt>
      <trkpt lat="43.66345" lon="1.4068">
        <ele>127.92</ele>
      </trkpt>
      <trkpt lat="43.66415" lon="1.40637">
        <ele>127.13</ele>
      </trkpt>
      <trkpt lat="43.66484" lon="1.40593">
        <ele>127.33</ele>
      </trkpt>
      <trkpt lat="43.66554" lon="1.4055">
        <ele>127.79</ele>
      </trkpt>
      <trkpt lat="43.66606" lon="1.40524">
        <ele>127.66</ele>
      </trkpt>
      <trkpt lat="43.66628" lon="1.40516">
        <ele>127.19</ele>
      </trkpt>
      <trkpt lat="43.66648" lon="1.40506">
        <ele>126.84</ele>
      </trkpt>
      <trkpt lat="43.66662" lon="1.40496">
        <ele>126.79</ele>
      </trkpt>
      <trkpt lat="43.66738" lon="1.40459">
        <ele>126.73</ele>
      </trkpt>
      <trkpt lat="43.66785" lon="1.40438">
        <ele>125.8</ele>
      </trkpt>
      <trkpt lat="43.66805" lon="1.40427">
        <ele>125.8</ele>
      </trkpt>
      <trkpt lat="43.66823" lon="1.40423">
        <ele>125.76</ele>
      </trkpt>
      <trkpt lat="43.66825" lon="1.40429">
        <ele>125.76</ele>
      </trkpt>
      <trkpt lat="43.66828" lon="1.40434">
        <ele>125.89</ele>
      </trkpt>
      <trkpt lat="43.66832" lon="1.40436">
        <ele>125.89</ele>
      </trkpt>
      <trkpt lat="43.6684" lon="1.40433">
        <ele>125.79</ele>
      </trkpt>
      <trkpt lat="43.66842" lon="1.40425">
        <ele>125.79</ele>
      </trkpt>
      <trkpt lat="43.66842" lon="1.40424">
        <ele>125.8</ele>
      </trkpt>
      <trkpt lat="43.66842" lon="1.40416">
        <ele>125.73</ele>
      </trkpt>
      <trkpt lat="43.66839" lon="1.40412">
        <ele>125.73</ele>
      </trkpt>
      <trkpt lat="43.66851" lon="1.40391">
        <ele>125.15</ele>
      </trkpt>
      <trkpt lat="43.66882" lon="1.403">
        <ele>124.58</ele>
      </trkpt>
      <trkpt lat="43.66895" lon="1.40272">
        <ele>124.12</ele>
      </trkpt>
      <trkpt lat="43.66905" lon="1.40261">
        <ele>124.12</ele>
      </trkpt>
      <trkpt lat="43.66921" lon="1.40248">
        <ele>124.12</ele>
      </trkpt>
      <trkpt lat="43.66972" lon="1.40215">
        <ele>124.12</ele>
      </trkpt>
      <trkpt lat="43.67023" lon="1.40181">
        <ele>124.12</ele>
      </trkpt>
      <trkpt lat="43.67037" lon="1.4017">
        <ele>124.12</ele>
      </trkpt>
      <trkpt lat="43.67088" lon="1.40123">
        <ele>124.17</ele>
      </trkpt>
      <trkpt lat="43.67117" lon="1.40087">
        <ele>124.17</ele>
      </trkpt>
      <trkpt lat="43.67149" lon="1.40035">
        <ele>124.17</ele>
      </trkpt>
      <trkpt lat="43.67167" lon="1.40011">
        <ele>124.17</ele>
      </trkpt>
      <trkpt lat="43.67177" lon="1.4">
        <ele>124.1</ele>
      </trkpt>
      <trkpt lat="43.67202" lon="1.39979">
        <ele>123.85</ele>
      </trkpt>
      <trkpt lat="43.67244" lon="1.39952">
        <ele>123.39</ele>
      </trkpt>
      <trkpt lat="43.67272" lon="1.39938">
        <ele>123.45</ele>
      </trkpt>
      <trkpt lat="43.67305" lon="1.39925">
        <ele>123.95</ele>
      </trkpt>
      <trkpt lat="43.6738" lon="1.39906">
        <ele>125.09</ele>
      </trkpt>
      <trkpt lat="43.67402" lon="1.39895">
        <ele>125.09</ele>
      </trkpt>
      <trkpt lat="43.67413" lon="1.39888">
        <ele>125.09</ele>
      </trkpt>
      <trkpt lat="43.67427" lon="1.39876">
        <ele>124.7</ele>
      </trkpt>
      <trkpt lat="43.67458" lon="1.39844">
        <ele>124.66</ele>
      </trkpt>
      <trkpt lat="43.67519" lon="1.3981">
        <ele>124.44</ele>
      </trkpt>
      <trkpt lat="43.67542" lon="1.39793">
        <ele>124.44</ele>
      </trkpt>
      <trkpt lat="43.67546" lon="1.39788">
        <ele>124.44</ele>
      </trkpt>
      <trkpt lat="43.67572" lon="1.39732">
        <ele>124.64</ele>
      </trkpt>
      <trkpt lat="43.67598" lon="1.39676">
        <ele>125.61</ele>
      </trkpt>
      <trkpt lat="43.6761" lon="1.3963">
        <ele>125.69</ele>
      </trkpt>
      <trkpt lat="43.67677" lon="1.39664">
        <ele>127.09</ele>
      </trkpt>
      <trkpt lat="43.67688" lon="1.39673">
        <ele>127.42</ele>
      </trkpt>
      <trkpt lat="43.67716" lon="1.39729">
        <ele>127.63</ele>
      </trkpt>
      <trkpt lat="43.67744" lon="1.39784">
        <ele>126.95</ele>
      </trkpt>
      <trkpt lat="43.67767" lon="1.39773">
        <ele>126.37</ele>
      </trkpt>
      <trkpt lat="43.6781" lon="1.39717">
        <ele>125.24</ele>
      </trkpt>
      <trkpt lat="43.67821" lon="1.39706">
        <ele>125.22</ele>
      </trkpt>
      <trkpt lat="43.67858" lon="1.3969">
        <ele>125.44</ele>
      </trkpt>
      <trkpt lat="43.67868" lon="1.39694">
        <ele>125.44</ele>
      </trkpt>
      <trkpt lat="43.67879" lon="1.39692">
        <ele>125.73</ele>
      </trkpt>
      <trkpt lat="43.67911" lon="1.39673">
        <ele>125.89</ele>
      </trkpt>
      <trkpt lat="43.67942" lon="1.39649">
        <ele>126.12</ele>
      </trkpt>
      <trkpt lat="43.67956" lon="1.39645">
        <ele>125.75</ele>
      </trkpt>
      <trkpt lat="43.67963" lon="1.39652">
        <ele>125.71</ele>
      </trkpt>
      <trkpt lat="43.67967" lon="1.39648">
        <ele>125.71</ele>
      </trkpt>
      <trkpt lat="43.67981" lon="1.39666">
        <ele>125.8</ele>
      </trkpt>
      <trkpt lat="43.6798" lon="1.39671">
        <ele>125.8</ele>
      </trkpt>
      <trkpt lat="43.67982" lon="1.39676">
        <ele>125.8</ele>
      </trkpt>
      <trkpt lat="43.67988" lon="1.3968">
        <ele>125.76</ele>
      </trkpt>
      <trkpt lat="43.67991" lon="1.39678">
        <ele>125.76</ele>
      </trkpt>
      <trkpt lat="43.67997" lon="1.39692">
        <ele>125.76</ele>
      </trkpt>
      <trkpt lat="43.68054" lon="1.39786">
        <ele>125.8</ele>
      </trkpt>
      <trkpt lat="43.68096" lon="1.39811">
        <ele>125.8</ele>
      </trkpt>
      <trkpt lat="43.68159" lon="1.39843">
        <ele>126.37</ele>
      </trkpt>
      <trkpt lat="43.68222" lon="1.39874">
        <ele>126.15</ele>
      </trkpt>
      <trkpt lat="43.68285" lon="1.39906">
        <ele>124.96</ele>
      </trkpt>
      <trkpt lat="43.68305" lon="1.39925">
        <ele>125.03</ele>
      </trkpt>
      <trkpt lat="43.6832" lon="1.39953">
        <ele>125.35</ele>
      </trkpt>
      <trkpt lat="43.68319" lon="1.3996">
        <ele>125.35</ele>
      </trkpt>
      <trkpt lat="43.68322" lon="1.39973">
        <ele>125.62</ele>
      </trkpt>
      <trkpt lat="43.68329" lon="1.3998">
        <ele>125.83</ele>
      </trkpt>
      <trkpt lat="43.68334" lon="1.39981">
        <ele>125.83</ele>
      </trkpt>
      <trkpt lat="43.68341" lon="1.39979">
        <ele>125.86</ele>
      </trkpt>
      <trkpt lat="43.6835" lon="1.39987">
        <ele>126.21</ele>
      </trkpt>
      <trkpt lat="43.68359" lon="1.39991">
        <ele>126.21</ele>
      </trkpt>
      <trkpt lat="43.68369" lon="1.40002">
        <ele>126.4</ele>
      </trkpt>
      <trkpt lat="43.68418" lon="1.40099">
        <ele>126.12</ele>
      </trkpt>
      <trkpt lat="43.68466" lon="1.40195">
        <ele>127.15</ele>
      </trkpt>
      <trkpt lat="43.68495" lon="1.40241">
        <ele>128.35</ele>
      </trkpt>
      <trkpt lat="43.68537" lon="1.40287">
        <ele>128.74</ele>
      </trkpt>
      <trkpt lat="43.68558" lon="1.40305">
        <ele>127.93</ele>
      </trkpt>
      <trkpt lat="43.68638" lon="1.40353">
        <ele>126.45</ele>
      </trkpt>
      <trkpt lat="43.68645" lon="1.40362">
        <ele>126.22</ele>
      </trkpt>
      <trkpt lat="43.68653" lon="1.40365">
        <ele>126.1</ele>
      </trkpt>
      <trkpt lat="43.68659" lon="1.40363">
        <ele>126.1</ele>
      </trkpt>
      <trkpt lat="43.68664" lon="1.40359">
        <ele>126.16</ele>
      </trkpt>
      <trkpt lat="43.68674" lon="1.40362">
        <ele>126.21</ele>
      </trkpt>
      <trkpt lat="43.68686" lon="1.40373">
        <ele>126.23</ele>
      </trkpt>
      <trkpt lat="43.68708" lon="1.40387">
        <ele>126.23</ele>
      </trkpt>
      <trkpt lat="43.68734" lon="1.40402">
        <ele>126.85</ele>
      </trkpt>
      <trkpt lat="43.68745" lon="1.40411">
        <ele>127</ele>
      </trkpt>
      <trkpt lat="43.68748" lon="1.4042">
        <ele>127</ele>
      </trkpt>
      <trkpt lat="43.68752" lon="1.40424">
        <ele>127</ele>
      </trkpt>
      <trkpt lat="43.68761" lon="1.40426">
        <ele>126.98</ele>
      </trkpt>
      <trkpt lat="43.68769" lon="1.4042">
        <ele>126.98</ele>
      </trkpt>
      <trkpt lat="43.68772" lon="1.40413">
        <ele>126.93</ele>
      </trkpt>
      <trkpt lat="43.68782" lon="1.40406">
        <ele>126.93</ele>
      </trkpt>
      <trkpt lat="43.68833" lon="1.40385">
        <ele>126.92</ele>
      </trkpt>
      <trkpt lat="43.68847" lon="1.40385">
        <ele>127.27</ele>
      </trkpt>
      <trkpt lat="43.68867" lon="1.40394">
        <ele>127.49</ele>
      </trkpt>
      <trkpt lat="43.68873" lon="1.40403">
        <ele>127.63</ele>
      </trkpt>
      <trkpt lat="43.68883" lon="1.40433">
        <ele>128.18</ele>
      </trkpt>
      <trkpt lat="43.68895" lon="1.40485">
        <ele>128.9</ele>
      </trkpt>
      <trkpt lat="43.68897" lon="1.40509">
        <ele>128.21</ele>
      </trkpt>
      <trkpt lat="43.68896" lon="1.40522">
        <ele>128.12</ele>
      </trkpt>
      <trkpt lat="43.68893" lon="1.40533">
        <ele>128.2</ele>
      </trkpt>
      <trkpt lat="43.68882" lon="1.40552">
        <ele>128.62</ele>
      </trkpt>
      <trkpt lat="43.68876" lon="1.40559">
        <ele>128.77</ele>
      </trkpt>
      <trkpt lat="43.68846" lon="1.40577">
        <ele>129.03</ele>
      </trkpt>
      <trkpt lat="43.68824" lon="1.40585">
        <ele>129.03</ele>
      </trkpt>
      <trkpt lat="43.68791" lon="1.40591">
        <ele>129.12</ele>
      </trkpt>
      <trkpt lat="43.68786" lon="1.40588">
        <ele>129</ele>
      </trkpt>
      <trkpt lat="43.6878" lon="1.40592">
        <ele>128.94</ele>
      </trkpt>
      <trkpt lat="43.68778" lon="1.40596">
        <ele>128.94</ele>
      </trkpt>
      <trkpt lat="43.68779" lon="1.40603">
        <ele>129.23</ele>
      </trkpt>
      <trkpt lat="43.68783" lon="1.40609">
        <ele>129.23</ele>
      </trkpt>
      <trkpt lat="43.68807" lon="1.40702">
        <ele>129.71</ele>
      </trkpt>
      <trkpt lat="43.68831" lon="1.40796">
        <ele>130.59</ele>
      </trkpt>
      <trkpt lat="43.68855" lon="1.40889">
        <ele>129.57</ele>
      </trkpt>
      <trkpt lat="43.68851" lon="1.40892">
        <ele>129.57</ele>
      </trkpt>
      <trkpt lat="43.68848" lon="1.40896">
        <ele>129.43</ele>
      </trkpt>
      <trkpt lat="43.68846" lon="1.40904">
        <ele>129.43</ele>
      </trkpt>
      <trkpt lat="43.68846" lon="1.40911">
        <ele>129.43</ele>
      </trkpt>
      <trkpt lat="43.68852" lon="1.4092">
        <ele>129.17</ele>
      </trkpt>
      <trkpt lat="43.68857" lon="1.40922">
        <ele>129.17</ele>
      </trkpt>
      <trkpt lat="43.68851" lon="1.40977">
        <ele>128.85</ele>
      </trkpt>
      <trkpt lat="43.68836" lon="1.41081">
        <ele>129.25</ele>
      </trkpt>
      <trkpt lat="43.6882" lon="1.41184">
        <ele>128.9</ele>
      </trkpt>
      <trkpt lat="43.68805" lon="1.41288">
        <ele>128.18</ele>
      </trkpt>
      <trkpt lat="43.68789" lon="1.41391">
        <ele>129.4</ele>
      </trkpt>
      <trkpt lat="43.68774" lon="1.41503">
        <ele>130.73</ele>
      </trkpt>
      <trkpt lat="43.68774" lon="1.41551">
        <ele>131.34</ele>
      </trkpt>
      <trkpt lat="43.68776" lon="1.4161">
        <ele>131.98</ele>
      </trkpt>
      <trkpt lat="43.68775" lon="1.4164">
        <ele>131.75</ele>
      </trkpt>
      <trkpt lat="43.68781" lon="1.41677">
        <ele>131.57</ele>
      </trkpt>
      <trkpt lat="43.68779" lon="1.41684">
        <ele>131.57</ele>
      </trkpt>
      <trkpt lat="43.6878" lon="1.41698">
        <ele>131.35</ele>
      </trkpt>
      <trkpt lat="43.68788" lon="1.41712">
        <ele>131.35</ele>
      </trkpt>
      <trkpt lat="43.68796" lon="1.41715">
        <ele>131.43</ele>
      </trkpt>
      <trkpt lat="43.68806" lon="1.41726">
        <ele>131.35</ele>
      </trkpt>
      <trkpt lat="43.68811" lon="1.41741">
        <ele>131</ele>
      </trkpt>
      <trkpt lat="43.68812" lon="1.41756">
        <ele>131</ele>
      </trkpt>
      <trkpt lat="43.6881" lon="1.41779">
        <ele>130.36</ele>
      </trkpt>
      <trkpt lat="43.6881" lon="1.41805">
        <ele>130.36</ele>
      </trkpt>
      <trkpt lat="43.68817" lon="1.41848">
        <ele>129.76</ele>
      </trkpt>
      <trkpt lat="43.68838" lon="1.41936">
        <ele>128.69</ele>
      </trkpt>
      <trkpt lat="43.68858" lon="1.42025">
        <ele>127.99</ele>
      </trkpt>
      <trkpt lat="43.68879" lon="1.42113">
        <ele>127.78</ele>
      </trkpt>
      <trkpt lat="43.68877" lon="1.42143">
        <ele>127.92</ele>
      </trkpt>
      <trkpt lat="43.68874" lon="1.42157">
        <ele>127.92</ele>
      </trkpt>
      <trkpt lat="43.68877" lon="1.42166">
        <ele>127.98</ele>
      </trkpt>
      <trkpt lat="43.6888" lon="1.4217">
        <ele>127.98</ele>
      </trkpt>
      <trkpt lat="43.68889" lon="1.422">
        <ele>128.03</ele>
      </trkpt>
      <trkpt lat="43.68889" lon="1.42222">
        <ele>128.03</ele>
      </trkpt>
      <trkpt lat="43.68884" lon="1.42255">
        <ele>128.04</ele>
      </trkpt>
      <trkpt lat="43.68875" lon="1.42284">
        <ele>128.04</ele>
      </trkpt>
      <trkpt lat="43.68866" lon="1.42299">
        <ele>128.04</ele>
      </trkpt>
      <trkpt lat="43.68845" lon="1.42314">
        <ele>128.03</ele>
      </trkpt>
      <trkpt lat="43.68836" lon="1.42313">
        <ele>128.1</ele>
      </trkpt>
      <trkpt lat="43.68829" lon="1.42319">
        <ele>128.1</ele>
      </trkpt>
      <trkpt lat="43.68824" lon="1.42334">
        <ele>128.2</ele>
      </trkpt>
      <trkpt lat="43.68825" lon="1.42342">
        <ele>128.2</ele>
      </trkpt>
      <trkpt lat="43.6883" lon="1.42351">
        <ele>128.2</ele>
      </trkpt>
      <trkpt lat="43.68837" lon="1.42356">
        <ele>128.19</ele>
      </trkpt>
      <trkpt lat="43.68852" lon="1.4236">
        <ele>128.28</ele>
      </trkpt>
      <trkpt lat="43.68868" lon="1.42376">
        <ele>128.35</ele>
      </trkpt>
      <trkpt lat="43.68927" lon="1.42422">
        <ele>127.85</ele>
      </trkpt>
      <trkpt lat="43.68991" lon="1.42475">
        <ele>126.58</ele>
      </trkpt>
      <trkpt lat="43.69055" lon="1.42527">
        <ele>126.45</ele>
      </trkpt>
      <trkpt lat="43.69068" lon="1.4254">
        <ele>126.45</ele>
      </trkpt>
      <trkpt lat="43.69082" lon="1.42563">
        <ele>126.86</ele>
      </trkpt>
      <trkpt lat="43.69098" lon="1.42623">
        <ele>127.19</ele>
      </trkpt>
      <trkpt lat="43.69099" lon="1.4263">
        <ele>127.19</ele>
      </trkpt>
      <trkpt lat="43.69104" lon="1.42645">
        <ele>128.21</ele>
      </trkpt>
      <trkpt lat="43.69103" lon="1.42653">
        <ele>128.73</ele>
      </trkpt>
      <trkpt lat="43.69105" lon="1.42661">
        <ele>128.73</ele>
      </trkpt>
      <trkpt lat="43.6911" lon="1.42668">
        <ele>129.86</ele>
      </trkpt>
      <trkpt lat="43.69117" lon="1.4267">
        <ele>129.71</ele>
      </trkpt>
      <trkpt lat="43.69123" lon="1.42667">
        <ele>129.71</ele>
      </trkpt>
      <trkpt lat="43.69141" lon="1.42676">
        <ele>130.62</ele>
      </trkpt>
      <trkpt lat="43.69187" lon="1.4272">
        <ele>131.2</ele>
      </trkpt>
      <trkpt lat="43.69232" lon="1.42763">
        <ele>131.64</ele>
      </trkpt>
      <trkpt lat="43.69261" lon="1.42783">
        <ele>131.39</ele>
      </trkpt>
      <trkpt lat="43.69261" lon="1.42792">
        <ele>131.39</ele>
      </trkpt>
      <trkpt lat="43.69265" lon="1.42796">
        <ele>131.23</ele>
      </trkpt>
      <trkpt lat="43.69268" lon="1.42796">
        <ele>131.23</ele>
      </trkpt>
      <trkpt lat="43.69273" lon="1.42825">
        <ele>130.79</ele>
      </trkpt>
      <trkpt lat="43.69287" lon="1.42865">
        <ele>130.67</ele>
      </trkpt>
      <trkpt lat="43.69314" lon="1.42937">
        <ele>132.35</ele>
      </trkpt>
      <trkpt lat="43.6934" lon="1.43008">
        <ele>132.49</ele>
      </trkpt>
      <trkpt lat="43.69367" lon="1.43077">
        <ele>131.39</ele>
      </trkpt>
      <trkpt lat="43.69386" lon="1.43181">
        <ele>131.6</ele>
      </trkpt>
      <trkpt lat="43.69382" lon="1.43197">
        <ele>131.6</ele>
      </trkpt>
      <trkpt lat="43.69379" lon="1.4323">
        <ele>131.84</ele>
      </trkpt>
      <trkpt lat="43.69374" lon="1.43246">
        <ele>131.84</ele>
      </trkpt>
      <trkpt lat="43.69368" lon="1.43253">
        <ele>131.92</ele>
      </trkpt>
      <trkpt lat="43.69366" lon="1.43262">
        <ele>131.92</ele>
      </trkpt>
      <trkpt lat="43.69372" lon="1.43275">
        <ele>131.91</ele>
      </trkpt>
      <trkpt lat="43.69366" lon="1.43283">
        <ele>131.91</ele>
      </trkpt>
      <trkpt lat="43.69346" lon="1.43376">
        <ele>130.99</ele>
      </trkpt>
      <trkpt lat="43.69338" lon="1.43415">
        <ele>130.68</ele>
      </trkpt>
      <trkpt lat="43.69337" lon="1.43436">
        <ele>130.46</ele>
      </trkpt>
      <trkpt lat="43.69343" lon="1.43465">
        <ele>130.46</ele>
      </trkpt>
      <trkpt lat="43.69399" lon="1.43558">
        <ele>130.66</ele>
      </trkpt>
      <trkpt lat="43.69428" lon="1.43617">
        <ele>130.71</ele>
      </trkpt>
      <trkpt lat="43.69479" lon="1.43709">
        <ele>130.91</ele>
      </trkpt>
      <trkpt lat="43.69529" lon="1.438">
        <ele>131.78</ele>
      </trkpt>
      <trkpt lat="43.69568" lon="1.43862">
        <ele>132.58</ele>
      </trkpt>
      <trkpt lat="43.69607" lon="1.43923">
        <ele>133.08</ele>
      </trkpt>
      <trkpt lat="43.69654" lon="1.44">
        <ele>133.25</ele>
      </trkpt>
      <trkpt lat="43.69676" lon="1.44041">
        <ele>133.61</ele>
      </trkpt>
      <trkpt lat="43.69682" lon="1.44063">
        <ele>133.72</ele>
      </trkpt>
      <trkpt lat="43.69681" lon="1.44097">
        <ele>133.72</ele>
      </trkpt>
      <trkpt lat="43.69668" lon="1.44197">
        <ele>133.93</ele>
      </trkpt>
      <trkpt lat="43.69655" lon="1.44296">
        <ele>134.92</ele>
      </trkpt>
      <trkpt lat="43.69641" lon="1.44396">
        <ele>136.43</ele>
      </trkpt>
      <trkpt lat="43.69628" lon="1.44495">
        <ele>136.65</ele>
      </trkpt>
      <trkpt lat="43.69623" lon="1.44515">
        <ele>136.8</ele>
      </trkpt>
      <trkpt lat="43.69619" lon="1.44521">
        <ele>136.8</ele>
      </trkpt>
      <trkpt lat="43.69616" lon="1.44523">
        <ele>136.8</ele>
      </trkpt>
      <trkpt lat="43.69611" lon="1.44529">
        <ele>136.73</ele>
      </trkpt>
      <trkpt lat="43.69593" lon="1.446">
        <ele>137.3</ele>
      </trkpt>
      <trkpt lat="43.69604" lon="1.44634">
        <ele>137.33</ele>
      </trkpt>
      <trkpt lat="43.69606" lon="1.44655">
        <ele>137.33</ele>
      </trkpt>
      <trkpt lat="43.69592" lon="1.44771">
        <ele>137.96</ele>
      </trkpt>
      <trkpt lat="43.69577" lon="1.44887">
        <ele>140.71</ele>
      </trkpt>
      <trkpt lat="43.69567" lon="1.4499">
        <ele>142.51</ele>
      </trkpt>
      <trkpt lat="43.69555" lon="1.45056">
        <ele>142.62</ele>
      </trkpt>
      <trkpt lat="43.69549" lon="1.45059">
        <ele>142.49</ele>
      </trkpt>
      <trkpt lat="43.69546" lon="1.45065">
        <ele>142.49</ele>
      </trkpt>
      <trkpt lat="43.69548" lon="1.45077">
        <ele>142.48</ele>
      </trkpt>
      <trkpt lat="43.6954" lon="1.45178">
        <ele>143.33</ele>
      </trkpt>
      <trkpt lat="43.69532" lon="1.45279">
        <ele>144.98</ele>
      </trkpt>
      <trkpt lat="43.69462" lon="1.45305">
        <ele>146.62</ele>
      </trkpt>
      <trkpt lat="43.69404" lon="1.45332">
        <ele>147.05</ele>
      </trkpt>
      <trkpt lat="43.69396" lon="1.45343">
        <ele>147.55</ele>
      </trkpt>
      <trkpt lat="43.69395" lon="1.45361">
        <ele>147.89</ele>
      </trkpt>
      <trkpt lat="43.69398" lon="1.45376">
        <ele>148.76</ele>
      </trkpt>
      <trkpt lat="43.69414" lon="1.45431">
        <ele>151.8</ele>
      </trkpt>
      <trkpt lat="43.69414" lon="1.4543">
        <ele>151.81</ele>
      </trkpt>
      <trkpt lat="43.69431" lon="1.45487">
        <ele>154.61</ele>
      </trkpt>
      <trkpt lat="43.69433" lon="1.45498">
        <ele>154.61</ele>
      </trkpt>
      <trkpt lat="43.69429" lon="1.45515">
        <ele>156.8</ele>
      </trkpt>
      <trkpt lat="43.69424" lon="1.45527">
        <ele>157.09</ele>
      </trkpt>
      <trkpt lat="43.69396" lon="1.45551">
        <ele>158.69</ele>
      </trkpt>
      <trkpt lat="43.69386" lon="1.45568">
        <ele>160.65</ele>
      </trkpt>
      <trkpt lat="43.69381" lon="1.45611">
        <ele>162.51</ele>
      </trkpt>
      <trkpt lat="43.69356" lon="1.45677">
        <ele>168.3</ele>
      </trkpt>
      <trkpt lat="43.69351" lon="1.45685">
        <ele>168.88</ele>
      </trkpt>
      <trkpt lat="43.69346" lon="1.45688">
        <ele>168.88</ele>
      </trkpt>
      <trkpt lat="43.69326" lon="1.45685">
        <ele>170.59</ele>
      </trkpt>
      <trkpt lat="43.69321" lon="1.45687">
        <ele>172.04</ele>
      </trkpt>
      <trkpt lat="43.69319" lon="1.4569">
        <ele>172.04</ele>
      </trkpt>
      <trkpt lat="43.69375" lon="1.45717">
        <ele>173.77</ele>
      </trkpt>
      <trkpt lat="43.69419" lon="1.45722">
        <ele>175.24</ele>
      </trkpt>
      <trkpt lat="43.69418" lon="1.45722">
        <ele>175.23</ele>
      </trkpt>
      <trkpt lat="43.6944" lon="1.45722">
        <ele>176.04</ele>
      </trkpt>
      <trkpt lat="43.69463" lon="1.45715">
        <ele>176.57</ele>
      </trkpt>
      <trkpt lat="43.69486" lon="1.45703">
        <ele>177.01</ele>
      </trkpt>
      <trkpt lat="43.69552" lon="1.45655">
        <ele>179.42</ele>
      </trkpt>
      <trkpt lat="43.6958" lon="1.4564">
        <ele>179.8</ele>
      </trkpt>
      <trkpt lat="43.69597" lon="1.45636">
        <ele>180.57</ele>
      </trkpt>
      <trkpt lat="43.6961" lon="1.45635">
        <ele>180.57</ele>
      </trkpt>
      <trkpt lat="43.69625" lon="1.45637">
        <ele>181.06</ele>
      </trkpt>
      <trkpt lat="43.69646" lon="1.45648">
        <ele>182.11</ele>
      </trkpt>
      <trkpt lat="43.69666" lon="1.45666">
        <ele>182.83</ele>
      </trkpt>
      <trkpt lat="43.69682" lon="1.45694">
        <ele>183.31</ele>
      </trkpt>
      <trkpt lat="43.69692" lon="1.45722">
        <ele>184.34</ele>
      </trkpt>
      <trkpt lat="43.69696" lon="1.4575">
        <ele>185.08</ele>
      </trkpt>
      <trkpt lat="43.69696" lon="1.45775">
        <ele>185.5</ele>
      </trkpt>
      <trkpt lat="43.69691" lon="1.45798">
        <ele>186.02</ele>
      </trkpt>
      <trkpt lat="43.69659" lon="1.4588">
        <ele>188.59</ele>
      </trkpt>
      <trkpt lat="43.69627" lon="1.45963">
        <ele>190.68</ele>
      </trkpt>
      <trkpt lat="43.69595" lon="1.46045">
        <ele>191.56</ele>
      </trkpt>
      <trkpt lat="43.69563" lon="1.46127">
        <ele>189.71</ele>
      </trkpt>
      <trkpt lat="43.69545" lon="1.46177">
        <ele>191.36</ele>
      </trkpt>
      <trkpt lat="43.69528" lon="1.46229">
        <ele>193.39</ele>
      </trkpt>
      <trkpt lat="43.69515" lon="1.46272">
        <ele>195.03</ele>
      </trkpt>
      <trkpt lat="43.69497" lon="1.46344">
        <ele>195.99</ele>
      </trkpt>
      <trkpt lat="43.69479" lon="1.46415">
        <ele>195.43</ele>
      </trkpt>
      <trkpt lat="43.69539" lon="1.46449">
        <ele>190.58</ele>
      </trkpt>
      <trkpt lat="43.69598" lon="1.46482">
        <ele>187.28</ele>
      </trkpt>
      <trkpt lat="43.69664" lon="1.46493">
        <ele>189.97</ele>
      </trkpt>
      <trkpt lat="43.6969" lon="1.46508">
        <ele>191.04</ele>
      </trkpt>
      <trkpt lat="43.6971" lon="1.46528">
        <ele>191.27</ele>
      </trkpt>
      <trkpt lat="43.69729" lon="1.4656">
        <ele>191.33</ele>
      </trkpt>
      <trkpt lat="43.69744" lon="1.46606">
        <ele>192.11</ele>
      </trkpt>
      <trkpt lat="43.69762" lon="1.46672">
        <ele>196.94</ele>
      </trkpt>
      <trkpt lat="43.69774" lon="1.46698">
        <ele>198.69</ele>
      </trkpt>
      <trkpt lat="43.69786" lon="1.46713">
        <ele>200.49</ele>
      </trkpt>
      <trkpt lat="43.69811" lon="1.46722">
        <ele>202.38</ele>
      </trkpt>
      <trkpt lat="43.69897" lon="1.46718">
        <ele>204</ele>
      </trkpt>
      <trkpt lat="43.69931" lon="1.46703">
        <ele>203.2</ele>
      </trkpt>
      <trkpt lat="43.70008" lon="1.46698">
        <ele>199.26</ele>
      </trkpt>
      <trkpt lat="43.70041" lon="1.46693">
        <ele>198.17</ele>
      </trkpt>
      <trkpt lat="43.70067" lon="1.46677">
        <ele>197.82</ele>
      </trkpt>
      <trkpt lat="43.70098" lon="1.4667">
        <ele>197.77</ele>
      </trkpt>
      <trkpt lat="43.701" lon="1.46677">
        <ele>197.77</ele>
      </trkpt>
      <trkpt lat="43.70105" lon="1.46683">
        <ele>198.63</ele>
      </trkpt>
      <trkpt lat="43.70112" lon="1.46682">
        <ele>198.63</ele>
      </trkpt>
      <trkpt lat="43.70115" lon="1.46679">
        <ele>198.63</ele>
      </trkpt>
      <trkpt lat="43.70157" lon="1.46731">
        <ele>201.47</ele>
      </trkpt>
      <trkpt lat="43.70157" lon="1.4673">
        <ele>201.39</ele>
      </trkpt>
      <trkpt lat="43.70175" lon="1.46752">
        <ele>203.28</ele>
      </trkpt>
      <trkpt lat="43.70188" lon="1.46759">
        <ele>204.38</ele>
      </trkpt>
      <trkpt lat="43.70197" lon="1.46759">
        <ele>204.69</ele>
      </trkpt>
      <trkpt lat="43.70228" lon="1.46776">
        <ele>206.57</ele>
      </trkpt>
      <trkpt lat="43.7024" lon="1.46762">
        <ele>206.49</ele>
      </trkpt>
      <trkpt lat="43.70299" lon="1.46707">
        <ele>205.85</ele>
      </trkpt>
      <trkpt lat="43.7035" lon="1.46665">
        <ele>205.83</ele>
      </trkpt>
      <trkpt lat="43.7036" lon="1.46661">
        <ele>205.83</ele>
      </trkpt>
      <trkpt lat="43.70375" lon="1.46658">
        <ele>205.86</ele>
      </trkpt>
      <trkpt lat="43.7038" lon="1.4666">
        <ele>205.89</ele>
      </trkpt>
      <trkpt lat="43.70402" lon="1.46658">
        <ele>205.88</ele>
      </trkpt>
      <trkpt lat="43.70409" lon="1.4666">
        <ele>205.5</ele>
      </trkpt>
      <trkpt lat="43.70423" lon="1.46669">
        <ele>205.5</ele>
      </trkpt>
      <trkpt lat="43.7047" lon="1.46702">
        <ele>204.19</ele>
      </trkpt>
      <trkpt lat="43.70516" lon="1.46735">
        <ele>202.89</ele>
      </trkpt>
      <trkpt lat="43.70535" lon="1.46748">
        <ele>202.82</ele>
      </trkpt>
      <trkpt lat="43.70556" lon="1.46759">
        <ele>202.66</ele>
      </trkpt>
      <trkpt lat="43.70586" lon="1.4678">
        <ele>201.8</ele>
      </trkpt>
      <trkpt lat="43.70604" lon="1.468">
        <ele>200.97</ele>
      </trkpt>
      <trkpt lat="43.70608" lon="1.46806">
        <ele>200.85</ele>
      </trkpt>
      <trkpt lat="43.70613" lon="1.46808">
        <ele>200.51</ele>
      </trkpt>
      <trkpt lat="43.70616" lon="1.46808">
        <ele>200.44</ele>
      </trkpt>
      <trkpt lat="43.70623" lon="1.46796">
        <ele>200.53</ele>
      </trkpt>
      <trkpt lat="43.70623" lon="1.46791">
        <ele>200.72</ele>
      </trkpt>
      <trkpt lat="43.70629" lon="1.46778">
        <ele>200.8</ele>
      </trkpt>
      <trkpt lat="43.70635" lon="1.46769">
        <ele>200.8</ele>
      </trkpt>
      <trkpt lat="43.70679" lon="1.46723">
        <ele>199.8</ele>
      </trkpt>
      <trkpt lat="43.70703" lon="1.4671">
        <ele>198.93</ele>
      </trkpt>
      <trkpt lat="43.7071" lon="1.4671">
        <ele>198.93</ele>
      </trkpt>
      <trkpt lat="43.70716" lon="1.46706">
        <ele>198.19</ele>
      </trkpt>
      <trkpt lat="43.70719" lon="1.46693">
        <ele>198.19</ele>
      </trkpt>
      <trkpt lat="43.70732" lon="1.46673">
        <ele>197.43</ele>
      </trkpt>
      <trkpt lat="43.70801" lon="1.46609">
        <ele>196.25</ele>
      </trkpt>
      <trkpt lat="43.70871" lon="1.46545">
        <ele>194.66</ele>
      </trkpt>
      <trkpt lat="43.7094" lon="1.46481">
        <ele>192.48</ele>
      </trkpt>
      <trkpt lat="43.7097" lon="1.46444">
        <ele>191.65</ele>
      </trkpt>
      <trkpt lat="43.7101" lon="1.46387">
        <ele>191.01</ele>
      </trkpt>
      <trkpt lat="43.71054" lon="1.46341">
        <ele>190.53</ele>
      </trkpt>
      <trkpt lat="43.71057" lon="1.46345">
        <ele>190.53</ele>
      </trkpt>
      <trkpt lat="43.71061" lon="1.46346">
        <ele>190.53</ele>
      </trkpt>
      <trkpt lat="43.71068" lon="1.46341">
        <ele>190</ele>
      </trkpt>
      <trkpt lat="43.71069" lon="1.46332">
        <ele>189.83</ele>
      </trkpt>
      <trkpt lat="43.71066" lon="1.46325">
        <ele>189.99</ele>
      </trkpt>
      <trkpt lat="43.71088" lon="1.46289">
        <ele>188.94</ele>
      </trkpt>
      <trkpt lat="43.71098" lon="1.46275">
        <ele>188.69</ele>
      </trkpt>
      <trkpt lat="43.71134" lon="1.46237">
        <ele>187.54</ele>
      </trkpt>
      <trkpt lat="43.71169" lon="1.46198">
        <ele>186.25</ele>
      </trkpt>
      <trkpt lat="43.71179" lon="1.46181">
        <ele>185.51</ele>
      </trkpt>
      <trkpt lat="43.71187" lon="1.46161">
        <ele>185.02</ele>
      </trkpt>
      <trkpt lat="43.71207" lon="1.46092">
        <ele>185.31</ele>
      </trkpt>
      <trkpt lat="43.71227" lon="1.46022">
        <ele>186.51</ele>
      </trkpt>
      <trkpt lat="43.71249" lon="1.45958">
        <ele>186.62</ele>
      </trkpt>
      <trkpt lat="43.71271" lon="1.45894">
        <ele>186.75</ele>
      </trkpt>
      <trkpt lat="43.71292" lon="1.45852">
        <ele>185.81</ele>
      </trkpt>
      <trkpt lat="43.71329" lon="1.45783">
        <ele>185.63</ele>
      </trkpt>
      <trkpt lat="43.71366" lon="1.45713">
        <ele>184.57</ele>
      </trkpt>
      <trkpt lat="43.71401" lon="1.45664">
        <ele>184.16</ele>
      </trkpt>
      <trkpt lat="43.71435" lon="1.45615">
        <ele>183.68</ele>
      </trkpt>
      <trkpt lat="43.7145" lon="1.45586">
        <ele>182.97</ele>
      </trkpt>
      <trkpt lat="43.71468" lon="1.45532">
        <ele>182.45</ele>
      </trkpt>
      <trkpt lat="43.71484" lon="1.45468">
        <ele>182.26</ele>
      </trkpt>
      <trkpt lat="43.71499" lon="1.45403">
        <ele>182.92</ele>
      </trkpt>
      <trkpt lat="43.71508" lon="1.45376">
        <ele>182.92</ele>
      </trkpt>
      <trkpt lat="43.71523" lon="1.45336">
        <ele>182.54</ele>
      </trkpt>
      <trkpt lat="43.71556" lon="1.45262">
        <ele>182.21</ele>
      </trkpt>
      <trkpt lat="43.71609" lon="1.45167">
        <ele>183.43</ele>
      </trkpt>
      <trkpt lat="43.71646" lon="1.45069">
        <ele>185.08</ele>
      </trkpt>
      <trkpt lat="43.71662" lon="1.45037">
        <ele>183.92</ele>
      </trkpt>
      <trkpt lat="43.71679" lon="1.44996">
        <ele>183.92</ele>
      </trkpt>
      <trkpt lat="43.71684" lon="1.44976">
        <ele>183.56</ele>
      </trkpt>
      <trkpt lat="43.71692" lon="1.44919">
        <ele>183.23</ele>
      </trkpt>
      <trkpt lat="43.71703" lon="1.44881">
        <ele>183.2</ele>
      </trkpt>
      <trkpt lat="43.71744" lon="1.44788">
        <ele>183.25</ele>
      </trkpt>
      <trkpt lat="43.71749" lon="1.44789">
        <ele>183.08</ele>
      </trkpt>
      <trkpt lat="43.71753" lon="1.44787">
        <ele>183.08</ele>
      </trkpt>
      <trkpt lat="43.71759" lon="1.44777">
        <ele>182.98</ele>
      </trkpt>
      <trkpt lat="43.71776" lon="1.44782">
        <ele>182.98</ele>
      </trkpt>
      <trkpt lat="43.71794" lon="1.44793">
        <ele>182.67</ele>
      </trkpt>
      <trkpt lat="43.71812" lon="1.44796">
        <ele>182.38</ele>
      </trkpt>
      <trkpt lat="43.71836" lon="1.44804">
        <ele>182.14</ele>
      </trkpt>
      <trkpt lat="43.71835" lon="1.44804">
        <ele>182.15</ele>
      </trkpt>
      <trkpt lat="43.71881" lon="1.4483">
        <ele>182.01</ele>
      </trkpt>
      <trkpt lat="43.71926" lon="1.44856">
        <ele>182.08</ele>
      </trkpt>
      <trkpt lat="43.71943" lon="1.44867">
        <ele>181.92</ele>
      </trkpt>
      <trkpt lat="43.71973" lon="1.44891">
        <ele>181.32</ele>
      </trkpt>
      <trkpt lat="43.72028" lon="1.44941">
        <ele>180.17</ele>
      </trkpt>
      <trkpt lat="43.72082" lon="1.4499">
        <ele>179.34</ele>
      </trkpt>
      <trkpt lat="43.72102" lon="1.45006">
        <ele>179.11</ele>
      </trkpt>
      <trkpt lat="43.72121" lon="1.45017">
        <ele>178.6</ele>
      </trkpt>
      <trkpt lat="43.72147" lon="1.45028">
        <ele>178.34</ele>
      </trkpt>
      <trkpt lat="43.72161" lon="1.45039">
        <ele>178.27</ele>
      </trkpt>
      <trkpt lat="43.7218" lon="1.45068">
        <ele>178.51</ele>
      </trkpt>
      <trkpt lat="43.72219" lon="1.45143">
        <ele>177.75</ele>
      </trkpt>
      <trkpt lat="43.72245" lon="1.45199">
        <ele>177.67</ele>
      </trkpt>
      <trkpt lat="43.72271" lon="1.45255">
        <ele>177.64</ele>
      </trkpt>
      <trkpt lat="43.72301" lon="1.45302">
        <ele>179.34</ele>
      </trkpt>
      <trkpt lat="43.72323" lon="1.4533">
        <ele>180.48</ele>
      </trkpt>
      <trkpt lat="43.72389" lon="1.45404">
        <ele>181.25</ele>
      </trkpt>
      <trkpt lat="43.7241" lon="1.45431">
        <ele>181.87</ele>
      </trkpt>
      <trkpt lat="43.72438" lon="1.45471">
        <ele>181.87</ele>
      </trkpt>
      <trkpt lat="43.72488" lon="1.45555">
        <ele>181.52</ele>
      </trkpt>
      <trkpt lat="43.72524" lon="1.45601">
        <ele>181.62</ele>
      </trkpt>
      <trkpt lat="43.72553" lon="1.45625">
        <ele>181.87</ele>
      </trkpt>
      <trkpt lat="43.72569" lon="1.45635">
        <ele>181.87</ele>
      </trkpt>
      <trkpt lat="43.72578" lon="1.45638">
        <ele>182.42</ele>
      </trkpt>
      <trkpt lat="43.72624" lon="1.45684">
        <ele>183.39</ele>
      </trkpt>
      <trkpt lat="43.72669" lon="1.45718">
        <ele>183.96</ele>
      </trkpt>
      <trkpt lat="43.72713" lon="1.45752">
        <ele>184.62</ele>
      </trkpt>
      <trkpt lat="43.72769" lon="1.45788">
        <ele>184.76</ele>
      </trkpt>
      <trkpt lat="43.72805" lon="1.45825">
        <ele>184.44</ele>
      </trkpt>
      <trkpt lat="43.72814" lon="1.45847">
        <ele>184.21</ele>
      </trkpt>
      <trkpt lat="43.72817" lon="1.45874">
        <ele>183.71</ele>
      </trkpt>
      <trkpt lat="43.72817" lon="1.45908">
        <ele>182.74</ele>
      </trkpt>
      <trkpt lat="43.72821" lon="1.45928">
        <ele>181.8</ele>
      </trkpt>
      <trkpt lat="43.72831" lon="1.4594">
        <ele>181.31</ele>
      </trkpt>
      <trkpt lat="43.72893" lon="1.45958">
        <ele>176.14</ele>
      </trkpt>
      <trkpt lat="43.72921" lon="1.45999">
        <ele>172.6</ele>
      </trkpt>
      <trkpt lat="43.72958" lon="1.4606">
        <ele>170.57</ele>
      </trkpt>
      <trkpt lat="43.73012" lon="1.46105">
        <ele>169.36</ele>
      </trkpt>
      <trkpt lat="43.73065" lon="1.46149">
        <ele>166.3</ele>
      </trkpt>
      <trkpt lat="43.73111" lon="1.46192">
        <ele>162.23</ele>
      </trkpt>
      <trkpt lat="43.73149" lon="1.4626">
        <ele>159.09</ele>
      </trkpt>
      <trkpt lat="43.73194" lon="1.46322">
        <ele>154.6</ele>
      </trkpt>
      <trkpt lat="43.73231" lon="1.46361">
        <ele>153.13</ele>
      </trkpt>
      <trkpt lat="43.73268" lon="1.464">
        <ele>152.12</ele>
      </trkpt>
      <trkpt lat="43.73317" lon="1.4646">
        <ele>149.03</ele>
      </trkpt>
      <trkpt lat="43.73349" lon="1.46496">
        <ele>147.99</ele>
      </trkpt>
      <trkpt lat="43.73404" lon="1.46555">
        <ele>145.59</ele>
      </trkpt>
      <trkpt lat="43.7346" lon="1.46613">
        <ele>143.21</ele>
      </trkpt>
      <trkpt lat="43.73515" lon="1.46672">
        <ele>143.54</ele>
      </trkpt>
      <trkpt lat="43.73577" lon="1.46722">
        <ele>143.83</ele>
      </trkpt>
      <trkpt lat="43.73604" lon="1.46738">
        <ele>143.35</ele>
      </trkpt>
      <trkpt lat="43.73603" lon="1.46738">
        <ele>143.36</ele>
      </trkpt>
      <trkpt lat="43.73638" lon="1.46759">
        <ele>143.12</ele>
      </trkpt>
      <trkpt lat="43.73648" lon="1.46764">
        <ele>143.12</ele>
      </trkpt>
      <trkpt lat="43.73656" lon="1.46765">
        <ele>143.12</ele>
      </trkpt>
      <trkpt lat="43.7366" lon="1.46763">
        <ele>143.12</ele>
      </trkpt>
      <trkpt lat="43.73679" lon="1.46853">
        <ele>143.89</ele>
      </trkpt>
      <trkpt lat="43.73684" lon="1.46885">
        <ele>143.62</ele>
      </trkpt>
      <trkpt lat="43.73694" lon="1.46901">
        <ele>143.53</ele>
      </trkpt>
      <trkpt lat="43.73751" lon="1.46958">
        <ele>142.12</ele>
      </trkpt>
      <trkpt lat="43.73809" lon="1.47015">
        <ele>139.84</ele>
      </trkpt>
      <trkpt lat="43.73866" lon="1.47072">
        <ele>136.77</ele>
      </trkpt>
      <trkpt lat="43.73921" lon="1.47117">
        <ele>134.46</ele>
      </trkpt>
      <trkpt lat="43.73953" lon="1.4714">
        <ele>133.99</ele>
      </trkpt>
      <trkpt lat="43.73976" lon="1.47154">
        <ele>132.65</ele>
      </trkpt>
      <trkpt lat="43.7401" lon="1.47063">
        <ele>134.71</ele>
      </trkpt>
      <trkpt lat="43.74039" lon="1.46975">
        <ele>133.76</ele>
      </trkpt>
      <trkpt lat="43.74055" lon="1.46931">
        <ele>131.75</ele>
      </trkpt>
      <trkpt lat="43.74066" lon="1.46905">
        <ele>130.12</ele>
      </trkpt>
      <trkpt lat="43.74148" lon="1.46949">
        <ele>129.39</ele>
      </trkpt>
      <trkpt lat="43.74211" lon="1.46968">
        <ele>129.02</ele>
      </trkpt>
      <trkpt lat="43.74274" lon="1.46987">
        <ele>127.2</ele>
      </trkpt>
      <trkpt lat="43.74329" lon="1.47013">
        <ele>127.18</ele>
      </trkpt>
      <trkpt lat="43.74384" lon="1.47038">
        <ele>127.2</ele>
      </trkpt>
      <trkpt lat="43.74436" lon="1.47066">
        <ele>127.51</ele>
      </trkpt>
      <trkpt lat="43.74473" lon="1.47094">
        <ele>127.61</ele>
      </trkpt>
      <trkpt lat="43.74485" lon="1.47105">
        <ele>127.61</ele>
      </trkpt>
      <trkpt lat="43.74539" lon="1.47166">
        <ele>127.88</ele>
      </trkpt>
      <trkpt lat="43.74594" lon="1.47227">
        <ele>129.46</ele>
      </trkpt>
      <trkpt lat="43.74648" lon="1.47288">
        <ele>129.79</ele>
      </trkpt>
      <trkpt lat="43.74703" lon="1.47342">
        <ele>130.84</ele>
      </trkpt>
      <trkpt lat="43.74759" lon="1.47397">
        <ele>131.78</ele>
      </trkpt>
      <trkpt lat="43.74814" lon="1.47451">
        <ele>132.95</ele>
      </trkpt>
      <trkpt lat="43.74869" lon="1.47505">
        <ele>135.23</ele>
      </trkpt>
      <trkpt lat="43.74882" lon="1.47501">
        <ele>135.95</ele>
      </trkpt>
      <trkpt lat="43.74884" lon="1.47559">
        <ele>136.3</ele>
      </trkpt>
      <trkpt lat="43.7494" lon="1.47601">
        <ele>138</ele>
      </trkpt>
      <trkpt lat="43.74996" lon="1.47642">
        <ele>142.56</ele>
      </trkpt>
      <trkpt lat="43.75052" lon="1.47684">
        <ele>147.24</ele>
      </trkpt>
      <trkpt lat="43.751" lon="1.47724">
        <ele>153.31</ele>
      </trkpt>
      <trkpt lat="43.75146" lon="1.47771">
        <ele>157.56</ele>
      </trkpt>
      <trkpt lat="43.75217" lon="1.47813">
        <ele>163.14</ele>
      </trkpt>
      <trkpt lat="43.75285" lon="1.47876">
        <ele>166.34</ele>
      </trkpt>
      <trkpt lat="43.75352" lon="1.47939">
        <ele>169.2</ele>
      </trkpt>
      <trkpt lat="43.7538" lon="1.4796">
        <ele>170.15</ele>
      </trkpt>
      <trkpt lat="43.75423" lon="1.47979">
        <ele>171.39</ele>
      </trkpt>
      <trkpt lat="43.75467" lon="1.47994">
        <ele>172.14</ele>
      </trkpt>
      <trkpt lat="43.75512" lon="1.4802">
        <ele>173.52</ele>
      </trkpt>
      <trkpt lat="43.75572" lon="1.48064">
        <ele>176.09</ele>
      </trkpt>
      <trkpt lat="43.75631" lon="1.48107">
        <ele>179.31</ele>
      </trkpt>
      <trkpt lat="43.75689" lon="1.48154">
        <ele>181.4</ele>
      </trkpt>
      <trkpt lat="43.75748" lon="1.48205">
        <ele>183.62</ele>
      </trkpt>
      <trkpt lat="43.75816" lon="1.48282">
        <ele>187.28</ele>
      </trkpt>
      <trkpt lat="43.75833" lon="1.48302">
        <ele>187.85</ele>
      </trkpt>
      <trkpt lat="43.75848" lon="1.48313">
        <ele>188.47</ele>
      </trkpt>
      <trkpt lat="43.7589" lon="1.48322">
        <ele>190.5</ele>
      </trkpt>
      <trkpt lat="43.759" lon="1.48327">
        <ele>190.5</ele>
      </trkpt>
      <trkpt lat="43.75952" lon="1.48313">
        <ele>190.5</ele>
      </trkpt>
      <trkpt lat="43.76003" lon="1.48298">
        <ele>190.33</ele>
      </trkpt>
      <trkpt lat="43.76029" lon="1.48288">
        <ele>190.33</ele>
      </trkpt>
      <trkpt lat="43.76051" lon="1.48277">
        <ele>190.33</ele>
      </trkpt>
      <trkpt lat="43.7611" lon="1.48223">
        <ele>190.21</ele>
      </trkpt>
      <trkpt lat="43.76168" lon="1.48169">
        <ele>188.2</ele>
      </trkpt>
      <trkpt lat="43.76194" lon="1.48153">
        <ele>188.2</ele>
      </trkpt>
      <trkpt lat="43.76219" lon="1.48146">
        <ele>187.96</ele>
      </trkpt>
      <trkpt lat="43.7628" lon="1.48146">
        <ele>187.96</ele>
      </trkpt>
      <trkpt lat="43.7632" lon="1.48141">
        <ele>187.06</ele>
      </trkpt>
      <trkpt lat="43.76376" lon="1.48123">
        <ele>184.97</ele>
      </trkpt>
      <trkpt lat="43.76426" lon="1.48118">
        <ele>182.88</ele>
      </trkpt>
      <trkpt lat="43.76474" lon="1.48116">
        <ele>181.29</ele>
      </trkpt>
      <trkpt lat="43.76522" lon="1.48113">
        <ele>179.12</ele>
      </trkpt>
      <trkpt lat="43.76557" lon="1.48107">
        <ele>178.49</ele>
      </trkpt>
      <trkpt lat="43.76604" lon="1.48088">
        <ele>178.47</ele>
      </trkpt>
      <trkpt lat="43.76684" lon="1.48048">
        <ele>180.27</ele>
      </trkpt>
      <trkpt lat="43.76726" lon="1.48035">
        <ele>180.18</ele>
      </trkpt>
      <trkpt lat="43.76811" lon="1.48019">
        <ele>178.05</ele>
      </trkpt>
      <trkpt lat="43.76855" lon="1.48007">
        <ele>173.59</ele>
      </trkpt>
      <trkpt lat="43.76908" lon="1.47988">
        <ele>168.93</ele>
      </trkpt>
      <trkpt lat="43.76961" lon="1.47968">
        <ele>165.29</ele>
      </trkpt>
      <trkpt lat="43.77015" lon="1.47965">
        <ele>161.87</ele>
      </trkpt>
      <trkpt lat="43.77062" lon="1.47967">
        <ele>160.71</ele>
      </trkpt>
      <trkpt lat="43.77108" lon="1.47968">
        <ele>160.23</ele>
      </trkpt>
      <trkpt lat="43.77132" lon="1.47973">
        <ele>160.54</ele>
      </trkpt>
      <trkpt lat="43.77143" lon="1.47977">
        <ele>160.54</ele>
      </trkpt>
      <trkpt lat="43.77153" lon="1.47986">
        <ele>160.75</ele>
      </trkpt>
      <trkpt lat="43.77168" lon="1.4801">
        <ele>161.74</ele>
      </trkpt>
      <trkpt lat="43.7718" lon="1.48038">
        <ele>162.06</ele>
      </trkpt>
      <trkpt lat="43.7721" lon="1.48084">
        <ele>163.13</ele>
      </trkpt>
      <trkpt lat="43.77254" lon="1.4812">
        <ele>164.68</ele>
      </trkpt>
      <trkpt lat="43.77253" lon="1.4812">
        <ele>164.67</ele>
      </trkpt>
      <trkpt lat="43.7727" lon="1.48131">
        <ele>164.87</ele>
      </trkpt>
      <trkpt lat="43.77324" lon="1.48158">
        <ele>169.6</ele>
      </trkpt>
      <trkpt lat="43.77377" lon="1.48185">
        <ele>175.74</ele>
      </trkpt>
      <trkpt lat="43.77382" lon="1.4819">
        <ele>175.74</ele>
      </trkpt>
      <trkpt lat="43.77384" lon="1.48195">
        <ele>176.31</ele>
      </trkpt>
      <trkpt lat="43.77461" lon="1.48159">
        <ele>185.4</ele>
      </trkpt>
      <trkpt lat="43.77537" lon="1.48123">
        <ele>186.7</ele>
      </trkpt>
      <trkpt lat="43.7755" lon="1.48119">
        <ele>186.7</ele>
      </trkpt>
      <trkpt lat="43.77564" lon="1.48119">
        <ele>187.37</ele>
      </trkpt>
      <trkpt lat="43.77577" lon="1.48127">
        <ele>187.9</ele>
      </trkpt>
      <trkpt lat="43.77624" lon="1.48176">
        <ele>189.84</ele>
      </trkpt>
      <trkpt lat="43.7763" lon="1.48179">
        <ele>190.1</ele>
      </trkpt>
      <trkpt lat="43.77638" lon="1.4818">
        <ele>190.1</ele>
      </trkpt>
      <trkpt lat="43.77653" lon="1.48173">
        <ele>190.25</ele>
      </trkpt>
      <trkpt lat="43.7766" lon="1.48166">
        <ele>190.25</ele>
      </trkpt>
      <trkpt lat="43.77694" lon="1.48108">
        <ele>190.98</ele>
      </trkpt>
      <trkpt lat="43.7773" lon="1.48055">
        <ele>194.34</ele>
      </trkpt>
      <trkpt lat="43.77753" lon="1.48027">
        <ele>196.37</ele>
      </trkpt>
      <trkpt lat="43.7777" lon="1.48018">
        <ele>198.48</ele>
      </trkpt>
      <trkpt lat="43.77809" lon="1.48004">
        <ele>201.15</ele>
      </trkpt>
      <trkpt lat="43.77819" lon="1.48003">
        <ele>201.11</ele>
      </trkpt>
      <trkpt lat="43.77843" lon="1.48011">
        <ele>200.68</ele>
      </trkpt>
      <trkpt lat="43.77854" lon="1.48012">
        <ele>200.43</ele>
      </trkpt>
      <trkpt lat="43.77894" lon="1.48013">
        <ele>199.73</ele>
      </trkpt>
      <trkpt lat="43.7789" lon="1.47995">
        <ele>200.71</ele>
      </trkpt>
      <trkpt lat="43.77868" lon="1.47937">
        <ele>202.41</ele>
      </trkpt>
      <trkpt lat="43.77864" lon="1.47929">
        <ele>202.41</ele>
      </trkpt>
      <trkpt lat="43.77857" lon="1.47924">
        <ele>202.62</ele>
      </trkpt>
      <trkpt lat="43.77858" lon="1.47918">
        <ele>202.66</ele>
      </trkpt>
      <trkpt lat="43.77867" lon="1.47917">
        <ele>202.54</ele>
      </trkpt>
      <trkpt lat="43.77913" lon="1.47903">
        <ele>200.89</ele>
      </trkpt>
      <trkpt lat="43.77958" lon="1.47888">
        <ele>199.76</ele>
      </trkpt>
      <trkpt lat="43.77968" lon="1.47883">
        <ele>199.76</ele>
      </trkpt>
      <trkpt lat="43.78016" lon="1.47852">
        <ele>197.93</ele>
      </trkpt>
      <trkpt lat="43.78064" lon="1.4782">
        <ele>197.09</ele>
      </trkpt>
      <trkpt lat="43.78092" lon="1.47803">
        <ele>197.17</ele>
      </trkpt>
      <trkpt lat="43.78128" lon="1.4777">
        <ele>198.53</ele>
      </trkpt>
      <trkpt lat="43.7821" lon="1.47725">
        <ele>198.33</ele>
      </trkpt>
      <trkpt lat="43.78217" lon="1.47724">
        <ele>198.03</ele>
      </trkpt>
      <trkpt lat="43.78304" lon="1.47735">
        <ele>191.59</ele>
      </trkpt>
      <trkpt lat="43.78371" lon="1.47733">
        <ele>187.05</ele>
      </trkpt>
      <trkpt lat="43.78437" lon="1.47731">
        <ele>184.08</ele>
      </trkpt>
      <trkpt lat="43.78504" lon="1.47729">
        <ele>181.21</ele>
      </trkpt>
      <trkpt lat="43.78554" lon="1.47724">
        <ele>179.14</ele>
      </trkpt>
      <trkpt lat="43.78629" lon="1.47714">
        <ele>175.2</ele>
      </trkpt>
      <trkpt lat="43.78703" lon="1.47704">
        <ele>173.21</ele>
      </trkpt>
      <trkpt lat="43.78778" lon="1.47694">
        <ele>171.04</ele>
      </trkpt>
      <trkpt lat="43.78814" lon="1.47685">
        <ele>169.25</ele>
      </trkpt>
      <trkpt lat="43.78894" lon="1.47662">
        <ele>167.63</ele>
      </trkpt>
      <trkpt lat="43.78973" lon="1.47639">
        <ele>166.8</ele>
      </trkpt>
      <trkpt lat="43.7903" lon="1.47623">
        <ele>166.78</ele>
      </trkpt>
      <trkpt lat="43.79086" lon="1.47607">
        <ele>166.2</ele>
      </trkpt>
      <trkpt lat="43.79157" lon="1.47585">
        <ele>164.93</ele>
      </trkpt>
      <trkpt lat="43.79228" lon="1.47562">
        <ele>164.05</ele>
      </trkpt>
      <trkpt lat="43.79284" lon="1.47549">
        <ele>164.07</ele>
      </trkpt>
      <trkpt lat="43.79318" lon="1.47535">
        <ele>164.03</ele>
      </trkpt>
      <trkpt lat="43.7934" lon="1.47523">
        <ele>161.78</ele>
      </trkpt>
      <trkpt lat="43.79368" lon="1.47505">
        <ele>159.55</ele>
      </trkpt>
      <trkpt lat="43.79426" lon="1.47456">
        <ele>159.23</ele>
      </trkpt>
      <trkpt lat="43.79442" lon="1.47445">
        <ele>159.02</ele>
      </trkpt>
      <trkpt lat="43.79455" lon="1.4744">
        <ele>158.64</ele>
      </trkpt>
      <trkpt lat="43.79544" lon="1.47427">
        <ele>157.69</ele>
      </trkpt>
      <trkpt lat="43.79593" lon="1.47418">
        <ele>157.74</ele>
      </trkpt>
      <trkpt lat="43.79646" lon="1.47396">
        <ele>158.6</ele>
      </trkpt>
      <trkpt lat="43.79723" lon="1.47358">
        <ele>159.46</ele>
      </trkpt>
      <trkpt lat="43.79757" lon="1.47343">
        <ele>159.27</ele>
      </trkpt>
      <trkpt lat="43.79785" lon="1.47336">
        <ele>158.6</ele>
      </trkpt>
      <trkpt lat="43.79797" lon="1.47335">
        <ele>158.6</ele>
      </trkpt>
      <trkpt lat="43.79822" lon="1.4734">
        <ele>158.21</ele>
      </trkpt>
      <trkpt lat="43.79854" lon="1.47354">
        <ele>157.93</ele>
      </trkpt>
      <trkpt lat="43.79873" lon="1.4736">
        <ele>157.93</ele>
      </trkpt>
      <trkpt lat="43.79932" lon="1.47358">
        <ele>157.44</ele>
      </trkpt>
      <trkpt lat="43.7999" lon="1.47356">
        <ele>157.18</ele>
      </trkpt>
      <trkpt lat="43.80048" lon="1.47351">
        <ele>156.81</ele>
      </trkpt>
      <trkpt lat="43.80083" lon="1.47353">
        <ele>156.43</ele>
      </trkpt>
      <trkpt lat="43.80149" lon="1.4736">
        <ele>157</ele>
      </trkpt>
      <trkpt lat="43.80215" lon="1.47367">
        <ele>156.75</ele>
      </trkpt>
      <trkpt lat="43.80252" lon="1.47364">
        <ele>156.48</ele>
      </trkpt>
      <trkpt lat="43.80315" lon="1.47356">
        <ele>156.43</ele>
      </trkpt>
      <trkpt lat="43.80378" lon="1.47348">
        <ele>156.96</ele>
      </trkpt>
      <trkpt lat="43.80454" lon="1.47334">
        <ele>156.32</ele>
      </trkpt>
      <trkpt lat="43.80522" lon="1.47306">
        <ele>155.82</ele>
      </trkpt>
      <trkpt lat="43.80589" lon="1.47277">
        <ele>155.23</ele>
      </trkpt>
      <trkpt lat="43.80657" lon="1.47249">
        <ele>154</ele>
      </trkpt>
      <trkpt lat="43.80679" lon="1.47236">
        <ele>154.19</ele>
      </trkpt>
      <trkpt lat="43.80718" lon="1.47198">
        <ele>154.32</ele>
      </trkpt>
      <trkpt lat="43.80757" lon="1.47159">
        <ele>150.27</ele>
      </trkpt>
      <trkpt lat="43.80778" lon="1.47155">
        <ele>149.01</ele>
      </trkpt>
      <trkpt lat="43.80792" lon="1.47155">
        <ele>147.36</ele>
      </trkpt>
      <trkpt lat="43.80818" lon="1.47159">
        <ele>146.98</ele>
      </trkpt>
      <trkpt lat="43.80886" lon="1.47178">
        <ele>147.89</ele>
      </trkpt>
      <trkpt lat="43.80926" lon="1.47194">
        <ele>148.57</ele>
      </trkpt>
      <trkpt lat="43.80972" lon="1.4723">
        <ele>147.98</ele>
      </trkpt>
      <trkpt lat="43.81041" lon="1.47293">
        <ele>142.67</ele>
      </trkpt>
      <trkpt lat="43.81053" lon="1.473">
        <ele>142.47</ele>
      </trkpt>
      <trkpt lat="43.81062" lon="1.47303">
        <ele>142.47</ele>
      </trkpt>
      <trkpt lat="43.81076" lon="1.47303">
        <ele>140.85</ele>
      </trkpt>
      <trkpt lat="43.81119" lon="1.47299">
        <ele>140.83</ele>
      </trkpt>
      <trkpt lat="43.81168" lon="1.47303">
        <ele>140.06</ele>
      </trkpt>
      <trkpt lat="43.81207" lon="1.47301">
        <ele>139.85</ele>
      </trkpt>
      <trkpt lat="43.81246" lon="1.47301">
        <ele>140.98</ele>
      </trkpt>
      <trkpt lat="43.81268" lon="1.47298">
        <ele>140.98</ele>
      </trkpt>
      <trkpt lat="43.81283" lon="1.47294">
        <ele>142.73</ele>
      </trkpt>
      <trkpt lat="43.81316" lon="1.47274">
        <ele>143.76</ele>
      </trkpt>
      <trkpt lat="43.8134" lon="1.47265">
        <ele>143.34</ele>
      </trkpt>
      <trkpt lat="43.81349" lon="1.47264">
        <ele>143.34</ele>
      </trkpt>
      <trkpt lat="43.8136" lon="1.4727">
        <ele>143.26</ele>
      </trkpt>
      <trkpt lat="43.8137" lon="1.47198">
        <ele>144.76</ele>
      </trkpt>
      <trkpt lat="43.81383" lon="1.4715">
        <ele>145.31</ele>
      </trkpt>
      <trkpt lat="43.814" lon="1.47108">
        <ele>145.8</ele>
      </trkpt>
      <trkpt lat="43.81422" lon="1.47066">
        <ele>146.36</ele>
      </trkpt>
      <trkpt lat="43.8147" lon="1.46989">
        <ele>147.17</ele>
      </trkpt>
      <trkpt lat="43.81519" lon="1.46913">
        <ele>147.4</ele>
      </trkpt>
      <trkpt lat="43.81567" lon="1.46836">
        <ele>147.4</ele>
      </trkpt>
      <trkpt lat="43.81609" lon="1.46775">
        <ele>147.4</ele>
      </trkpt>
      <trkpt lat="43.81651" lon="1.46713">
        <ele>147.4</ele>
      </trkpt>
      <trkpt lat="43.81693" lon="1.46652">
        <ele>147.38</ele>
      </trkpt>
      <trkpt lat="43.81735" lon="1.46586">
        <ele>147.38</ele>
      </trkpt>
      <trkpt lat="43.81776" lon="1.46521">
        <ele>147.38</ele>
      </trkpt>
      <trkpt lat="43.81818" lon="1.46455">
        <ele>147.38</ele>
      </trkpt>
      <trkpt lat="43.81865" lon="1.46491">
        <ele>146.41</ele>
      </trkpt>
      <trkpt lat="43.81885" lon="1.46509">
        <ele>146.4</ele>
      </trkpt>
      <trkpt lat="43.81899" lon="1.46524">
        <ele>146.41</ele>
      </trkpt>
      <trkpt lat="43.8192" lon="1.46551">
        <ele>146.41</ele>
      </trkpt>
      <trkpt lat="43.81971" lon="1.46615">
        <ele>146.41</ele>
      </trkpt>
      <trkpt lat="43.82022" lon="1.46679">
        <ele>146.47</ele>
      </trkpt>
      <trkpt lat="43.82083" lon="1.46744">
        <ele>146.39</ele>
      </trkpt>
      <trkpt lat="43.82143" lon="1.46809">
        <ele>143.57</ele>
      </trkpt>
      <trkpt lat="43.82204" lon="1.46874">
        <ele>140.23</ele>
      </trkpt>
      <trkpt lat="43.82279" lon="1.46937">
        <ele>135.67</ele>
      </trkpt>
      <trkpt lat="43.82354" lon="1.47">
        <ele>129.52</ele>
      </trkpt>
      <trkpt lat="43.82429" lon="1.47062">
        <ele>123.63</ele>
      </trkpt>
      <trkpt lat="43.82504" lon="1.47125">
        <ele>120.3</ele>
      </trkpt>
      <trkpt lat="43.82566" lon="1.47176">
        <ele>120.56</ele>
      </trkpt>
      <trkpt lat="43.82629" lon="1.47227">
        <ele>119.64</ele>
      </trkpt>
      <trkpt lat="43.82691" lon="1.47278">
        <ele>117.68</ele>
      </trkpt>
      <trkpt lat="43.82759" lon="1.47324">
        <ele>117.45</ele>
      </trkpt>
      <trkpt lat="43.82777" lon="1.47338">
        <ele>117.53</ele>
      </trkpt>
      <trkpt lat="43.82825" lon="1.47389">
        <ele>117.53</ele>
      </trkpt>
      <trkpt lat="43.82873" lon="1.47439">
        <ele>116.93</ele>
      </trkpt>
      <trkpt lat="43.82877" lon="1.47466">
        <ele>117.19</ele>
      </trkpt>
      <trkpt lat="43.82883" lon="1.47471">
        <ele>117.15</ele>
      </trkpt>
      <trkpt lat="43.82887" lon="1.47471">
        <ele>117.09</ele>
      </trkpt>
      <trkpt lat="43.82894" lon="1.47463">
        <ele>116.87</ele>
      </trkpt>
      <trkpt lat="43.82896" lon="1.47441">
        <ele>116.64</ele>
      </trkpt>
      <trkpt lat="43.82949" lon="1.47356">
        <ele>115.61</ele>
      </trkpt>
      <trkpt lat="43.82974" lon="1.47306">
        <ele>115.61</ele>
      </trkpt>
      <trkpt lat="43.83013" lon="1.47198">
        <ele>115.7</ele>
      </trkpt>
      <trkpt lat="43.83051" lon="1.47089">
        <ele>115.3</ele>
      </trkpt>
      <trkpt lat="43.83072" lon="1.47039">
        <ele>114.63</ele>
      </trkpt>
      <trkpt lat="43.83102" lon="1.46993">
        <ele>115.14</ele>
      </trkpt>
      <trkpt lat="43.83148" lon="1.46934">
        <ele>115.51</ele>
      </trkpt>
      <trkpt lat="43.83194" lon="1.46875">
        <ele>115.64</ele>
      </trkpt>
      <trkpt lat="43.83202" lon="1.46866">
        <ele>115.59</ele>
      </trkpt>
      <trkpt lat="43.83224" lon="1.46829">
        <ele>115.66</ele>
      </trkpt>
      <trkpt lat="43.83237" lon="1.468">
        <ele>116.19</ele>
      </trkpt>
      <trkpt lat="43.83271" lon="1.46696">
        <ele>116.4</ele>
      </trkpt>
      <trkpt lat="43.83305" lon="1.46592">
        <ele>116.2</ele>
      </trkpt>
      <trkpt lat="43.83317" lon="1.4657">
        <ele>115.38</ele>
      </trkpt>
      <trkpt lat="43.83331" lon="1.46561">
        <ele>115.43</ele>
      </trkpt>
      <trkpt lat="43.83398" lon="1.46526">
        <ele>115.61</ele>
      </trkpt>
      <trkpt lat="43.83447" lon="1.46486">
        <ele>117.06</ele>
      </trkpt>
      <trkpt lat="43.83495" lon="1.46446">
        <ele>116.47</ele>
      </trkpt>
      <trkpt lat="43.83553" lon="1.46409">
        <ele>116.68</ele>
      </trkpt>
      <trkpt lat="43.83604" lon="1.46374">
        <ele>117.43</ele>
      </trkpt>
      <trkpt lat="43.83673" lon="1.46311">
        <ele>117.47</ele>
      </trkpt>
      <trkpt lat="43.83719" lon="1.46271">
        <ele>117.35</ele>
      </trkpt>
      <trkpt lat="43.83757" lon="1.4623">
        <ele>116.78</ele>
      </trkpt>
      <trkpt lat="43.83794" lon="1.46189">
        <ele>116.61</ele>
      </trkpt>
      <trkpt lat="43.838" lon="1.46186">
        <ele>116.5</ele>
      </trkpt>
      <trkpt lat="43.83806" lon="1.46181">
        <ele>116.13</ele>
      </trkpt>
      <trkpt lat="43.83855" lon="1.4609">
        <ele>114.18</ele>
      </trkpt>
      <trkpt lat="43.83906" lon="1.46044">
        <ele>114.05</ele>
      </trkpt>
      <trkpt lat="43.83982" lon="1.45983">
        <ele>114.07</ele>
      </trkpt>
      <trkpt lat="43.83995" lon="1.45977">
        <ele>114.07</ele>
      </trkpt>
      <trkpt lat="43.84037" lon="1.46008">
        <ele>114.74</ele>
      </trkpt>
      <trkpt lat="43.84079" lon="1.46038">
        <ele>114.83</ele>
      </trkpt>
      <trkpt lat="43.84107" lon="1.46065">
        <ele>114.83</ele>
      </trkpt>
      <trkpt lat="43.8413" lon="1.46105">
        <ele>114.67</ele>
      </trkpt>
      <trkpt lat="43.84174" lon="1.46194">
        <ele>114.2</ele>
      </trkpt>
      <trkpt lat="43.84218" lon="1.46282">
        <ele>113.36</ele>
      </trkpt>
      <trkpt lat="43.84299" lon="1.46263">
        <ele>113.37</ele>
      </trkpt>
      <trkpt lat="43.84381" lon="1.46288">
        <ele>113.44</ele>
      </trkpt>
      <trkpt lat="43.8445" lon="1.46301">
        <ele>113.36</ele>
      </trkpt>
      <trkpt lat="43.84523" lon="1.46311">
        <ele>112.59</ele>
      </trkpt>
      <trkpt lat="43.84551" lon="1.46309">
        <ele>112.41</ele>
      </trkpt>
      <trkpt lat="43.84587" lon="1.46267">
        <ele>112.4</ele>
      </trkpt>
      <trkpt lat="43.84648" lon="1.46234">
        <ele>112.29</ele>
      </trkpt>
      <trkpt lat="43.84719" lon="1.462">
        <ele>111.24</ele>
      </trkpt>
      <trkpt lat="43.8479" lon="1.46167">
        <ele>110.49</ele>
      </trkpt>
      <trkpt lat="43.8486" lon="1.46133">
        <ele>110.59</ele>
      </trkpt>
      <trkpt lat="43.84931" lon="1.46099">
        <ele>110.38</ele>
      </trkpt>
      <trkpt lat="43.84966" lon="1.46085">
        <ele>109.69</ele>
      </trkpt>
      <trkpt lat="43.85007" lon="1.46074">
        <ele>109.72</ele>
      </trkpt>
      <trkpt lat="43.85057" lon="1.46056">
        <ele>109.19</ele>
      </trkpt>
      <trkpt lat="43.85069" lon="1.46048">
        <ele>109</ele>
      </trkpt>
      <trkpt lat="43.85129" lon="1.46002">
        <ele>108.91</ele>
      </trkpt>
      <trkpt lat="43.85193" lon="1.4594">
        <ele>108.93</ele>
      </trkpt>
      <trkpt lat="43.85256" lon="1.45878">
        <ele>109.79</ele>
      </trkpt>
      <trkpt lat="43.85273" lon="1.45863">
        <ele>109.83</ele>
      </trkpt>
      <trkpt lat="43.8534" lon="1.45814">
        <ele>110.65</ele>
      </trkpt>
      <trkpt lat="43.85406" lon="1.45765">
        <ele>112.01</ele>
      </trkpt>
      <trkpt lat="43.85424" lon="1.45742">
        <ele>112.11</ele>
      </trkpt>
      <trkpt lat="43.85446" lon="1.45685">
        <ele>111.8</ele>
      </trkpt>
      <trkpt lat="43.85466" lon="1.45653">
        <ele>111.61</ele>
      </trkpt>
      <trkpt lat="43.85501" lon="1.45609">
        <ele>110.55</ele>
      </trkpt>
      <trkpt lat="43.85536" lon="1.45565">
        <ele>110.01</ele>
      </trkpt>
      <trkpt lat="43.85554" lon="1.45544">
        <ele>109.92</ele>
      </trkpt>
      <trkpt lat="43.85606" lon="1.45498">
        <ele>109.14</ele>
      </trkpt>
      <trkpt lat="43.85642" lon="1.45461">
        <ele>108.88</ele>
      </trkpt>
      <trkpt lat="43.85684" lon="1.45427">
        <ele>108.16</ele>
      </trkpt>
      <trkpt lat="43.85718" lon="1.4539">
        <ele>107.25</ele>
      </trkpt>
      <trkpt lat="43.85773" lon="1.45323">
        <ele>107.84</ele>
      </trkpt>
      <trkpt lat="43.85827" lon="1.45256">
        <ele>108.48</ele>
      </trkpt>
      <trkpt lat="43.859" lon="1.4519">
        <ele>108.09</ele>
      </trkpt>
      <trkpt lat="43.85974" lon="1.45124">
        <ele>108.33</ele>
      </trkpt>
      <trkpt lat="43.86047" lon="1.45057">
        <ele>109.23</ele>
      </trkpt>
      <trkpt lat="43.86121" lon="1.44991">
        <ele>108.54</ele>
      </trkpt>
      <trkpt lat="43.86194" lon="1.44925">
        <ele>108.46</ele>
      </trkpt>
      <trkpt lat="43.86266" lon="1.44867">
        <ele>108.57</ele>
      </trkpt>
      <trkpt lat="43.86338" lon="1.44809">
        <ele>108.4</ele>
      </trkpt>
      <trkpt lat="43.86409" lon="1.4475">
        <ele>108.55</ele>
      </trkpt>
      <trkpt lat="43.86481" lon="1.44692">
        <ele>108.42</ele>
      </trkpt>
      <trkpt lat="43.86557" lon="1.44634">
        <ele>108.69</ele>
      </trkpt>
      <trkpt lat="43.86632" lon="1.44575">
        <ele>109.3</ele>
      </trkpt>
      <trkpt lat="43.86683" lon="1.44546">
        <ele>109.3</ele>
      </trkpt>
      <trkpt lat="43.86725" lon="1.44528">
        <ele>109.17</ele>
      </trkpt>
      <trkpt lat="43.86805" lon="1.44507">
        <ele>108.12</ele>
      </trkpt>
      <trkpt lat="43.86884" lon="1.44487">
        <ele>108.04</ele>
      </trkpt>
      <trkpt lat="43.86964" lon="1.44466">
        <ele>108.87</ele>
      </trkpt>
      <trkpt lat="43.87043" lon="1.44445">
        <ele>108.9</ele>
      </trkpt>
      <trkpt lat="43.87123" lon="1.44424">
        <ele>107.96</ele>
      </trkpt>
      <trkpt lat="43.87202" lon="1.44404">
        <ele>107.37</ele>
      </trkpt>
      <trkpt lat="43.87282" lon="1.44383">
        <ele>105.72</ele>
      </trkpt>
      <trkpt lat="43.8734" lon="1.44373">
        <ele>106.01</ele>
      </trkpt>
      <trkpt lat="43.87398" lon="1.44363">
        <ele>104.28</ele>
      </trkpt>
      <trkpt lat="43.87485" lon="1.4434">
        <ele>104.06</ele>
      </trkpt>
      <trkpt lat="43.87571" lon="1.44317">
        <ele>104.17</ele>
      </trkpt>
      <trkpt lat="43.87658" lon="1.44294">
        <ele>104.17</ele>
      </trkpt>
      <trkpt lat="43.87703" lon="1.44281">
        <ele>103.61</ele>
      </trkpt>
      <trkpt lat="43.87748" lon="1.44267">
        <ele>103.32</ele>
      </trkpt>
      <trkpt lat="43.87767" lon="1.44254">
        <ele>103.91</ele>
      </trkpt>
      <trkpt lat="43.87833" lon="1.44196">
        <ele>104.28</ele>
      </trkpt>
      <trkpt lat="43.87898" lon="1.44138">
        <ele>104.28</ele>
      </trkpt>
      <trkpt lat="43.87964" lon="1.44096">
        <ele>104.28</ele>
      </trkpt>
      <trkpt lat="43.88022" lon="1.44049">
        <ele>104.07</ele>
      </trkpt>
      <trkpt lat="43.88079" lon="1.44002">
        <ele>104.07</ele>
      </trkpt>
      <trkpt lat="43.88137" lon="1.43955">
        <ele>104.07</ele>
      </trkpt>
      <trkpt lat="43.88191" lon="1.43906">
        <ele>104.07</ele>
      </trkpt>
      <trkpt lat="43.88244" lon="1.43856">
        <ele>103.16</ele>
      </trkpt>
      <trkpt lat="43.88254" lon="1.43841">
        <ele>103.15</ele>
      </trkpt>
      <trkpt lat="43.88297" lon="1.43747">
        <ele>103.69</ele>
      </trkpt>
      <trkpt lat="43.88339" lon="1.43653">
        <ele>102.7</ele>
      </trkpt>
      <trkpt lat="43.88362" lon="1.43626">
        <ele>102.47</ele>
      </trkpt>
      <trkpt lat="43.8839" lon="1.43611">
        <ele>102.46</ele>
      </trkpt>
      <trkpt lat="43.88408" lon="1.43592">
        <ele>102.46</ele>
      </trkpt>
      <trkpt lat="43.88463" lon="1.43513">
        <ele>103.03</ele>
      </trkpt>
      <trkpt lat="43.88518" lon="1.43433">
        <ele>103.72</ele>
      </trkpt>
      <trkpt lat="43.88555" lon="1.43378">
        <ele>103.99</ele>
      </trkpt>
      <trkpt lat="43.88592" lon="1.43322">
        <ele>104.69</ele>
      </trkpt>
      <trkpt lat="43.88628" lon="1.4324">
        <ele>103.78</ele>
      </trkpt>
      <trkpt lat="43.887" lon="1.4331">
        <ele>100.41</ele>
      </trkpt>
      <trkpt lat="43.88771" lon="1.4338">
        <ele>97.82</ele>
      </trkpt>
      <trkpt lat="43.88843" lon="1.43449">
        <ele>97.59</ele>
      </trkpt>
      <trkpt lat="43.88914" lon="1.43519">
        <ele>95.85</ele>
      </trkpt>
      <trkpt lat="43.88926" lon="1.43534">
        <ele>95.85</ele>
      </trkpt>
      <trkpt lat="43.88924" lon="1.43548">
        <ele>95.4</ele>
      </trkpt>
      <trkpt lat="43.88927" lon="1.43559">
        <ele>95.4</ele>
      </trkpt>
      <trkpt lat="43.88934" lon="1.43565">
        <ele>95.38</ele>
      </trkpt>
      <trkpt lat="43.88941" lon="1.43566">
        <ele>95.38</ele>
      </trkpt>
      <trkpt lat="43.88949" lon="1.4356">
        <ele>95.38</ele>
      </trkpt>
      <trkpt lat="43.88968" lon="1.43572">
        <ele>95.91</ele>
      </trkpt>
      <trkpt lat="43.89008" lon="1.43612">
        <ele>97.21</ele>
      </trkpt>
      <trkpt lat="43.89048" lon="1.43652">
        <ele>98.03</ele>
      </trkpt>
      <trkpt lat="43.89056" lon="1.43668">
        <ele>98.3</ele>
      </trkpt>
      <trkpt lat="43.89061" lon="1.43691">
        <ele>98.3</ele>
      </trkpt>
      <trkpt lat="43.89078" lon="1.43694">
        <ele>97.4</ele>
      </trkpt>
      <trkpt lat="43.89131" lon="1.4372">
        <ele>95.75</ele>
      </trkpt>
      <trkpt lat="43.89144" lon="1.43724">
        <ele>95.75</ele>
      </trkpt>
      <trkpt lat="43.89156" lon="1.43724">
        <ele>95.36</ele>
      </trkpt>
      <trkpt lat="43.8923" lon="1.4369">
        <ele>94.66</ele>
      </trkpt>
      <trkpt lat="43.89238" lon="1.43686">
        <ele>94.66</ele>
      </trkpt>
      <trkpt lat="43.89254" lon="1.43673">
        <ele>94.73</ele>
      </trkpt>
      <trkpt lat="43.89296" lon="1.43611">
        <ele>94.13</ele>
      </trkpt>
      <trkpt lat="43.89343" lon="1.43561">
        <ele>93.85</ele>
      </trkpt>
      <trkpt lat="43.89342" lon="1.43562">
        <ele>93.85</ele>
      </trkpt>
      <trkpt lat="43.89388" lon="1.43514">
        <ele>93.8</ele>
      </trkpt>
      <trkpt lat="43.89435" lon="1.4346">
        <ele>93.8</ele>
      </trkpt>
      <trkpt lat="43.89484" lon="1.43399">
        <ele>93.87</ele>
      </trkpt>
      <trkpt lat="43.89525" lon="1.4334">
        <ele>92.97</ele>
      </trkpt>
      <trkpt lat="43.89566" lon="1.4328">
        <ele>93.08</ele>
      </trkpt>
      <trkpt lat="43.89593" lon="1.43232">
        <ele>92.74</ele>
      </trkpt>
      <trkpt lat="43.89603" lon="1.4321">
        <ele>92.3</ele>
      </trkpt>
      <trkpt lat="43.8963" lon="1.43111">
        <ele>92.58</ele>
      </trkpt>
      <trkpt lat="43.89654" lon="1.4306">
        <ele>91.78</ele>
      </trkpt>
      <trkpt lat="43.89679" lon="1.43015">
        <ele>92.4</ele>
      </trkpt>
      <trkpt lat="43.89706" lon="1.42975">
        <ele>92.45</ele>
      </trkpt>
      <trkpt lat="43.89758" lon="1.42911">
        <ele>92.64</ele>
      </trkpt>
      <trkpt lat="43.89806" lon="1.42857">
        <ele>93.29</ele>
      </trkpt>
      <trkpt lat="43.89838" lon="1.42823">
        <ele>93.22</ele>
      </trkpt>
      <trkpt lat="43.89859" lon="1.42804">
        <ele>92.72</ele>
      </trkpt>
      <trkpt lat="43.89877" lon="1.42793">
        <ele>92.72</ele>
      </trkpt>
      <trkpt lat="43.89898" lon="1.42789">
        <ele>92.64</ele>
      </trkpt>
      <trkpt lat="43.89907" lon="1.42789">
        <ele>92.64</ele>
      </trkpt>
      <trkpt lat="43.89906" lon="1.42789">
        <ele>92.64</ele>
      </trkpt>
      <trkpt lat="43.89913" lon="1.4279">
        <ele>92.64</ele>
      </trkpt>
      <trkpt lat="43.89935" lon="1.42799">
        <ele>92.62</ele>
      </trkpt>
      <trkpt lat="43.89955" lon="1.42813">
        <ele>92.58</ele>
      </trkpt>
      <trkpt lat="43.89974" lon="1.42831">
        <ele>92.47</ele>
      </trkpt>
      <trkpt lat="43.90014" lon="1.42883">
        <ele>91.81</ele>
      </trkpt>
      <trkpt lat="43.90049" lon="1.42976">
        <ele>91.47</ele>
      </trkpt>
      <trkpt lat="43.90063" lon="1.43">
        <ele>91.28</ele>
      </trkpt>
      <trkpt lat="43.90105" lon="1.43055">
        <ele>90.7</ele>
      </trkpt>
      <trkpt lat="43.90146" lon="1.4311">
        <ele>90.64</ele>
      </trkpt>
      <trkpt lat="43.90154" lon="1.43117">
        <ele>90.69</ele>
      </trkpt>
      <trkpt lat="43.90161" lon="1.43115">
        <ele>90.69</ele>
      </trkpt>
      <trkpt lat="43.9019" lon="1.43044">
        <ele>90.76</ele>
      </trkpt>
      <trkpt lat="43.90219" lon="1.42973">
        <ele>90.74</ele>
      </trkpt>
      <trkpt lat="43.9026" lon="1.42863">
        <ele>90.03</ele>
      </trkpt>
      <trkpt lat="43.903" lon="1.42752">
        <ele>89.92</ele>
      </trkpt>
      <trkpt lat="43.9034" lon="1.42672">
        <ele>90.05</ele>
      </trkpt>
      <trkpt lat="43.90362" lon="1.42578">
        <ele>90.05</ele>
      </trkpt>
      <trkpt lat="43.90383" lon="1.42484">
        <ele>89.98</ele>
      </trkpt>
      <trkpt lat="43.90405" lon="1.42389">
        <ele>90.13</ele>
      </trkpt>
      <trkpt lat="43.90426" lon="1.42295">
        <ele>90.21</ele>
      </trkpt>
      <trkpt lat="43.90455" lon="1.42209">
        <ele>89.71</ele>
      </trkpt>
      <trkpt lat="43.90484" lon="1.42123">
        <ele>89.76</ele>
      </trkpt>
      <trkpt lat="43.90522" lon="1.42042">
        <ele>90.23</ele>
      </trkpt>
      <trkpt lat="43.90559" lon="1.4196">
        <ele>90.45</ele>
      </trkpt>
      <trkpt lat="43.90547" lon="1.41943">
        <ele>90.18</ele>
      </trkpt>
      <trkpt lat="43.90546" lon="1.4194">
        <ele>90.13</ele>
      </trkpt>
      <trkpt lat="43.90487" lon="1.4185">
        <ele>90.2</ele>
      </trkpt>
      <trkpt lat="43.90427" lon="1.41759">
        <ele>96.52</ele>
      </trkpt>
      <trkpt lat="43.90425" lon="1.4174">
        <ele>96.52</ele>
      </trkpt>
      <trkpt lat="43.90439" lon="1.4168">
        <ele>99.85</ele>
      </trkpt>
      <trkpt lat="43.9044" lon="1.41653">
        <ele>102.17</ele>
      </trkpt>
      <trkpt lat="43.90392" lon="1.41605">
        <ele>106.39</ele>
      </trkpt>
      <trkpt lat="43.9038" lon="1.41587">
        <ele>106.39</ele>
      </trkpt>
      <trkpt lat="43.9044" lon="1.4151">
        <ele>105.82</ele>
      </trkpt>
      <trkpt lat="43.90446" lon="1.41484">
        <ele>105.64</ele>
      </trkpt>
      <trkpt lat="43.90477" lon="1.41449">
        <ele>105.64</ele>
      </trkpt>
      <trkpt lat="43.90534" lon="1.41379">
        <ele>105.9</ele>
      </trkpt>
      <trkpt lat="43.9059" lon="1.41309">
        <ele>105.64</ele>
      </trkpt>
      <trkpt lat="43.90532" lon="1.41244">
        <ele>106.66</ele>
      </trkpt>
      <trkpt lat="43.90488" lon="1.41194">
        <ele>108.23</ele>
      </trkpt>
      <trkpt lat="43.90472" lon="1.41172">
        <ele>109.33</ele>
      </trkpt>
      <trkpt lat="43.9045" lon="1.41129">
        <ele>109.5</ele>
      </trkpt>
      <trkpt lat="43.90436" lon="1.41112">
        <ele>109.47</ele>
      </trkpt>
      <trkpt lat="43.90454" lon="1.41063">
        <ele>109.12</ele>
      </trkpt>
      <trkpt lat="43.9044" lon="1.41052">
        <ele>109.53</ele>
      </trkpt>
      <trkpt lat="43.90399" lon="1.41005">
        <ele>110.16</ele>
      </trkpt>
      <trkpt lat="43.90357" lon="1.40957">
        <ele>110.48</ele>
      </trkpt>
      <trkpt lat="43.90353" lon="1.40949">
        <ele>110.48</ele>
      </trkpt>
      <trkpt lat="43.90344" lon="1.40923">
        <ele>110.39</ele>
      </trkpt>
      <trkpt lat="43.90337" lon="1.4087">
        <ele>110.2</ele>
      </trkpt>
      <trkpt lat="43.90328" lon="1.40835">
        <ele>109.55</ele>
      </trkpt>
      <trkpt lat="43.90307" lon="1.40762">
        <ele>109.43</ele>
      </trkpt>
      <trkpt lat="43.90285" lon="1.40689">
        <ele>109.03</ele>
      </trkpt>
      <trkpt lat="43.90266" lon="1.40636">
        <ele>108.97</ele>
      </trkpt>
      <trkpt lat="43.90225" lon="1.40543">
        <ele>109.85</ele>
      </trkpt>
      <trkpt lat="43.90205" lon="1.40488">
        <ele>109.85</ele>
      </trkpt>
      <trkpt lat="43.90172" lon="1.40387">
        <ele>109.59</ele>
      </trkpt>
      <trkpt lat="43.90138" lon="1.40287">
        <ele>109.59</ele>
      </trkpt>
      <trkpt lat="43.90105" lon="1.40186">
        <ele>109.85</ele>
      </trkpt>
      <trkpt lat="43.90071" lon="1.40086">
        <ele>110.41</ele>
      </trkpt>
      <trkpt lat="43.90038" lon="1.39985">
        <ele>108.98</ele>
      </trkpt>
      <trkpt lat="43.90006" lon="1.39894">
        <ele>107.09</ele>
      </trkpt>
      <trkpt lat="43.89973" lon="1.39803">
        <ele>106.21</ele>
      </trkpt>
      <trkpt lat="43.89949" lon="1.3974">
        <ele>105.98</ele>
      </trkpt>
      <trkpt lat="43.89925" lon="1.39676">
        <ele>105.98</ele>
      </trkpt>
      <trkpt lat="43.89897" lon="1.39608">
        <ele>105.98</ele>
      </trkpt>
      <trkpt lat="43.89868" lon="1.3954">
        <ele>105.98</ele>
      </trkpt>
      <trkpt lat="43.8985" lon="1.39487">
        <ele>105.98</ele>
      </trkpt>
      <trkpt lat="43.89837" lon="1.39458">
        <ele>105.98</ele>
      </trkpt>
      <trkpt lat="43.89782" lon="1.39367">
        <ele>105.96</ele>
      </trkpt>
      <trkpt lat="43.89753" lon="1.39298">
        <ele>105.96</ele>
      </trkpt>
      <trkpt lat="43.89717" lon="1.39238">
        <ele>105.96</ele>
      </trkpt>
      <trkpt lat="43.89686" lon="1.39196">
        <ele>105.96</ele>
      </trkpt>
      <trkpt lat="43.89622" lon="1.39149">
        <ele>107.07</ele>
      </trkpt>
      <trkpt lat="43.89563" lon="1.39074">
        <ele>107.93</ele>
      </trkpt>
      <trkpt lat="43.89519" lon="1.39014">
        <ele>107.9</ele>
      </trkpt>
      <trkpt lat="43.89474" lon="1.38954">
        <ele>108.01</ele>
      </trkpt>
      <trkpt lat="43.89433" lon="1.38879">
        <ele>109.62</ele>
      </trkpt>
      <trkpt lat="43.89392" lon="1.38804">
        <ele>109.91</ele>
      </trkpt>
      <trkpt lat="43.8935" lon="1.38728">
        <ele>110.83</ele>
      </trkpt>
      <trkpt lat="43.89309" lon="1.38653">
        <ele>110.83</ele>
      </trkpt>
      <trkpt lat="43.89277" lon="1.38611">
        <ele>110.98</ele>
      </trkpt>
      <trkpt lat="43.89261" lon="1.3859">
        <ele>111.31</ele>
      </trkpt>
      <trkpt lat="43.89207" lon="1.38542">
        <ele>110.79</ele>
      </trkpt>
      <trkpt lat="43.89129" lon="1.38503">
        <ele>111.56</ele>
      </trkpt>
      <trkpt lat="43.89066" lon="1.38476">
        <ele>112.79</ele>
      </trkpt>
      <trkpt lat="43.89003" lon="1.38448">
        <ele>112.74</ele>
      </trkpt>
      <trkpt lat="43.88931" lon="1.38404">
        <ele>112.7</ele>
      </trkpt>
      <trkpt lat="43.88877" lon="1.38352">
        <ele>112.61</ele>
      </trkpt>
      <trkpt lat="43.88848" lon="1.38314">
        <ele>112.61</ele>
      </trkpt>
      <trkpt lat="43.88833" lon="1.38284">
        <ele>112.23</ele>
      </trkpt>
      <trkpt lat="43.88798" lon="1.38186">
        <ele>112.53</ele>
      </trkpt>
      <trkpt lat="43.88763" lon="1.38087">
        <ele>112.47</ele>
      </trkpt>
      <trkpt lat="43.88754" lon="1.38069">
        <ele>112.51</ele>
      </trkpt>
      <trkpt lat="43.88741" lon="1.38051">
        <ele>112.83</ele>
      </trkpt>
      <trkpt lat="43.8873" lon="1.38044">
        <ele>113.17</ele>
      </trkpt>
      <trkpt lat="43.88719" lon="1.38043">
        <ele>113.3</ele>
      </trkpt>
      <trkpt lat="43.88676" lon="1.38061">
        <ele>113.5</ele>
      </trkpt>
      <trkpt lat="43.88626" lon="1.38073">
        <ele>114.44</ele>
      </trkpt>
      <trkpt lat="43.88609" lon="1.38073">
        <ele>114.55</ele>
      </trkpt>
      <trkpt lat="43.88569" lon="1.38069">
        <ele>115.27</ele>
      </trkpt>
      <trkpt lat="43.88558" lon="1.38066">
        <ele>115.27</ele>
      </trkpt>
      <trkpt lat="43.8855" lon="1.38058">
        <ele>115.27</ele>
      </trkpt>
      <trkpt lat="43.88546" lon="1.38047">
        <ele>114.94</ele>
      </trkpt>
      <trkpt lat="43.88535" lon="1.37946">
        <ele>113.56</ele>
      </trkpt>
      <trkpt lat="43.88525" lon="1.37844">
        <ele>113.56</ele>
      </trkpt>
      <trkpt lat="43.88514" lon="1.37743">
        <ele>113.56</ele>
      </trkpt>
      <trkpt lat="43.88495" lon="1.37694">
        <ele>113.14</ele>
      </trkpt>
      <trkpt lat="43.88466" lon="1.37635">
        <ele>113.14</ele>
      </trkpt>
      <trkpt lat="43.88436" lon="1.37575">
        <ele>113.14</ele>
      </trkpt>
      <trkpt lat="43.88407" lon="1.37477">
        <ele>112.99</ele>
      </trkpt>
      <trkpt lat="43.88384" lon="1.37385">
        <ele>112.14</ele>
      </trkpt>
      <trkpt lat="43.88364" lon="1.37335">
        <ele>111.37</ele>
      </trkpt>
      <trkpt lat="43.88325" lon="1.3726">
        <ele>110.7</ele>
      </trkpt>
      <trkpt lat="43.88285" lon="1.37185">
        <ele>110.67</ele>
      </trkpt>
      <trkpt lat="43.88272" lon="1.37168">
        <ele>110.67</ele>
      </trkpt>
      <trkpt lat="43.88256" lon="1.37152">
        <ele>110.61</ele>
      </trkpt>
      <trkpt lat="43.88212" lon="1.37117">
        <ele>110.61</ele>
      </trkpt>
      <trkpt lat="43.88187" lon="1.37087">
        <ele>110.86</ele>
      </trkpt>
      <trkpt lat="43.88148" lon="1.37029">
        <ele>111.28</ele>
      </trkpt>
      <trkpt lat="43.88108" lon="1.36971">
        <ele>112.23</ele>
      </trkpt>
      <trkpt lat="43.88074" lon="1.36925">
        <ele>112.8</ele>
      </trkpt>
      <trkpt lat="43.8804" lon="1.36879">
        <ele>113.4</ele>
      </trkpt>
      <trkpt lat="43.88031" lon="1.36851">
        <ele>114.04</ele>
      </trkpt>
      <trkpt lat="43.88003" lon="1.36735">
        <ele>114.28</ele>
      </trkpt>
      <trkpt lat="43.8799" lon="1.367">
        <ele>114.77</ele>
      </trkpt>
      <trkpt lat="43.87974" lon="1.36672">
        <ele>115.18</ele>
      </trkpt>
      <trkpt lat="43.87926" lon="1.36602">
        <ele>116.12</ele>
      </trkpt>
      <trkpt lat="43.87877" lon="1.36532">
        <ele>116.34</ele>
      </trkpt>
      <trkpt lat="43.87812" lon="1.36447">
        <ele>118.03</ele>
      </trkpt>
      <trkpt lat="43.87807" lon="1.36436">
        <ele>118.04</ele>
      </trkpt>
      <trkpt lat="43.87798" lon="1.36393">
        <ele>118.12</ele>
      </trkpt>
      <trkpt lat="43.87794" lon="1.36381">
        <ele>118.23</ele>
      </trkpt>
      <trkpt lat="43.87787" lon="1.36368">
        <ele>118.23</ele>
      </trkpt>
      <trkpt lat="43.87748" lon="1.36313">
        <ele>118.57</ele>
      </trkpt>
      <trkpt lat="43.87708" lon="1.36258">
        <ele>117.92</ele>
      </trkpt>
      <trkpt lat="43.87683" lon="1.36229">
        <ele>117.92</ele>
      </trkpt>
      <trkpt lat="43.87647" lon="1.36166">
        <ele>117.6</ele>
      </trkpt>
      <trkpt lat="43.8761" lon="1.36102">
        <ele>118.19</ele>
      </trkpt>
      <trkpt lat="43.87602" lon="1.36083">
        <ele>118.47</ele>
      </trkpt>
      <trkpt lat="43.87584" lon="1.36021">
        <ele>118.36</ele>
      </trkpt>
      <trkpt lat="43.87565" lon="1.35959">
        <ele>117.79</ele>
      </trkpt>
      <trkpt lat="43.87533" lon="1.35871">
        <ele>117.93</ele>
      </trkpt>
      <trkpt lat="43.875" lon="1.35782">
        <ele>118.5</ele>
      </trkpt>
      <trkpt lat="43.87486" lon="1.35751">
        <ele>118.53</ele>
      </trkpt>
      <trkpt lat="43.87472" lon="1.35727">
        <ele>118.53</ele>
      </trkpt>
      <trkpt lat="43.87448" lon="1.35692">
        <ele>118.58</ele>
      </trkpt>
      <trkpt lat="43.8744" lon="1.35677">
        <ele>118.58</ele>
      </trkpt>
      <trkpt lat="43.87415" lon="1.35604">
        <ele>119.43</ele>
      </trkpt>
      <trkpt lat="43.87389" lon="1.35531">
        <ele>119.84</ele>
      </trkpt>
      <trkpt lat="43.87367" lon="1.35476">
        <ele>120.34</ele>
      </trkpt>
      <trkpt lat="43.87339" lon="1.35417">
        <ele>121.09</ele>
      </trkpt>
      <trkpt lat="43.8731" lon="1.35358">
        <ele>121.56</ele>
      </trkpt>
      <trkpt lat="43.87279" lon="1.3529">
        <ele>122.49</ele>
      </trkpt>
      <trkpt lat="43.87247" lon="1.35221">
        <ele>123.37</ele>
      </trkpt>
      <trkpt lat="43.87239" lon="1.35208">
        <ele>123.46</ele>
      </trkpt>
      <trkpt lat="43.87223" lon="1.3519">
        <ele>123.46</ele>
      </trkpt>
      <trkpt lat="43.8716" lon="1.35131">
        <ele>124.31</ele>
      </trkpt>
      <trkpt lat="43.87097" lon="1.35072">
        <ele>125.52</ele>
      </trkpt>
      <trkpt lat="43.87034" lon="1.35013">
        <ele>127.25</ele>
      </trkpt>
      <trkpt lat="43.87023" lon="1.35">
        <ele>127.31</ele>
      </trkpt>
      <trkpt lat="43.87017" lon="1.34989">
        <ele>127.32</ele>
      </trkpt>
      <trkpt lat="43.87012" lon="1.34973">
        <ele>127.32</ele>
      </trkpt>
      <trkpt lat="43.87001" lon="1.34952">
        <ele>127.32</ele>
      </trkpt>
      <trkpt lat="43.86992" lon="1.34942">
        <ele>127.32</ele>
      </trkpt>
      <trkpt lat="43.86958" lon="1.34914">
        <ele>127.32</ele>
      </trkpt>
      <trkpt lat="43.86948" lon="1.34909">
        <ele>127.28</ele>
      </trkpt>
      <trkpt lat="43.86938" lon="1.34908">
        <ele>127.28</ele>
      </trkpt>
      <trkpt lat="43.86865" lon="1.34914">
        <ele>127.28</ele>
      </trkpt>
      <trkpt lat="43.86842" lon="1.34911">
        <ele>127.16</ele>
      </trkpt>
      <trkpt lat="43.8679" lon="1.34894">
        <ele>127.15</ele>
      </trkpt>
      <trkpt lat="43.86738" lon="1.34876">
        <ele>129.26</ele>
      </trkpt>
      <trkpt lat="43.86729" lon="1.34872">
        <ele>129.69</ele>
      </trkpt>
      <trkpt lat="43.86724" lon="1.34867">
        <ele>129.69</ele>
      </trkpt>
      <trkpt lat="43.86718" lon="1.34873">
        <ele>129.69</ele>
      </trkpt>
      <trkpt lat="43.86693" lon="1.34885">
        <ele>129.69</ele>
      </trkpt>
      <trkpt lat="43.8666" lon="1.34889">
        <ele>129.67</ele>
      </trkpt>
      <trkpt lat="43.86636" lon="1.34888">
        <ele>129.67</ele>
      </trkpt>
      <trkpt lat="43.86559" lon="1.34871">
        <ele>130.46</ele>
      </trkpt>
      <trkpt lat="43.86482" lon="1.34853">
        <ele>132.06</ele>
      </trkpt>
      <trkpt lat="43.86445" lon="1.34851">
        <ele>134.62</ele>
      </trkpt>
      <trkpt lat="43.86434" lon="1.34853">
        <ele>135.1</ele>
      </trkpt>
      <trkpt lat="43.86418" lon="1.34867">
        <ele>135.55</ele>
      </trkpt>
      <trkpt lat="43.86378" lon="1.34914">
        <ele>136.21</ele>
      </trkpt>
      <trkpt lat="43.86377" lon="1.34914">
        <ele>136.21</ele>
      </trkpt>
      <trkpt lat="43.86359" lon="1.34935">
        <ele>136.6</ele>
      </trkpt>
      <trkpt lat="43.86337" lon="1.34949">
        <ele>136.96</ele>
      </trkpt>
      <trkpt lat="43.86277" lon="1.34966">
        <ele>137.64</ele>
      </trkpt>
      <trkpt lat="43.86217" lon="1.34984">
        <ele>139.42</ele>
      </trkpt>
      <trkpt lat="43.86157" lon="1.35001">
        <ele>141.53</ele>
      </trkpt>
      <trkpt lat="43.86085" lon="1.35027">
        <ele>141.62</ele>
      </trkpt>
      <trkpt lat="43.86012" lon="1.35052">
        <ele>143.58</ele>
      </trkpt>
      <trkpt lat="43.85938" lon="1.35075">
        <ele>145.63</ele>
      </trkpt>
      <trkpt lat="43.85922" lon="1.35082">
        <ele>146.09</ele>
      </trkpt>
      <trkpt lat="43.85908" lon="1.351">
        <ele>148.44</ele>
      </trkpt>
      <trkpt lat="43.85894" lon="1.35144">
        <ele>148.44</ele>
      </trkpt>
      <trkpt lat="43.85875" lon="1.35182">
        <ele>148.39</ele>
      </trkpt>
      <trkpt lat="43.85854" lon="1.3522">
        <ele>148.15</ele>
      </trkpt>
      <trkpt lat="43.85846" lon="1.35239">
        <ele>147.96</ele>
      </trkpt>
      <trkpt lat="43.85827" lon="1.35301">
        <ele>147.5</ele>
      </trkpt>
      <trkpt lat="43.85807" lon="1.35363">
        <ele>147.36</ele>
      </trkpt>
      <trkpt lat="43.8578" lon="1.35424">
        <ele>147.33</ele>
      </trkpt>
      <trkpt lat="43.85752" lon="1.35485">
        <ele>147.13</ele>
      </trkpt>
      <trkpt lat="43.85716" lon="1.35572">
        <ele>146.95</ele>
      </trkpt>
      <trkpt lat="43.85669" lon="1.35677">
        <ele>148.09</ele>
      </trkpt>
      <trkpt lat="43.85621" lon="1.35781">
        <ele>147.54</ele>
      </trkpt>
      <trkpt lat="43.85584" lon="1.35885">
        <ele>148.81</ele>
      </trkpt>
      <trkpt lat="43.85571" lon="1.35913">
        <ele>148.86</ele>
      </trkpt>
      <trkpt lat="43.85555" lon="1.35938">
        <ele>148.76</ele>
      </trkpt>
      <trkpt lat="43.85495" lon="1.36014">
        <ele>148.52</ele>
      </trkpt>
      <trkpt lat="43.8546" lon="1.3607">
        <ele>148.88</ele>
      </trkpt>
      <trkpt lat="43.85428" lon="1.36131">
        <ele>149.01</ele>
      </trkpt>
      <trkpt lat="43.85398" lon="1.36197">
        <ele>149.54</ele>
      </trkpt>
      <trkpt lat="43.85369" lon="1.36244">
        <ele>150.31</ele>
      </trkpt>
      <trkpt lat="43.85331" lon="1.36301">
        <ele>149.58</ele>
      </trkpt>
      <trkpt lat="43.85292" lon="1.36357">
        <ele>150.07</ele>
      </trkpt>
      <trkpt lat="43.85229" lon="1.36439">
        <ele>151.09</ele>
      </trkpt>
      <trkpt lat="43.85191" lon="1.36482">
        <ele>151.1</ele>
      </trkpt>
      <trkpt lat="43.85157" lon="1.36515">
        <ele>150.9</ele>
      </trkpt>
      <trkpt lat="43.85124" lon="1.36541">
        <ele>150.22</ele>
      </trkpt>
      <trkpt lat="43.85087" lon="1.36565">
        <ele>150.04</ele>
      </trkpt>
      <trkpt lat="43.85032" lon="1.36613">
        <ele>149.18</ele>
      </trkpt>
      <trkpt lat="43.84977" lon="1.36651">
        <ele>149.16</ele>
      </trkpt>
      <trkpt lat="43.84953" lon="1.36675">
        <ele>149.16</ele>
      </trkpt>
      <trkpt lat="43.84933" lon="1.36698">
        <ele>149.19</ele>
      </trkpt>
      <trkpt lat="43.84889" lon="1.36783">
        <ele>149.31</ele>
      </trkpt>
      <trkpt lat="43.8486" lon="1.36861">
        <ele>149.98</ele>
      </trkpt>
      <trkpt lat="43.84831" lon="1.36938">
        <ele>149.23</ele>
      </trkpt>
      <trkpt lat="43.84799" lon="1.37027">
        <ele>149.23</ele>
      </trkpt>
      <trkpt lat="43.84767" lon="1.37116">
        <ele>149.27</ele>
      </trkpt>
      <trkpt lat="43.84735" lon="1.37204">
        <ele>149.26</ele>
      </trkpt>
      <trkpt lat="43.84703" lon="1.37293">
        <ele>148.3</ele>
      </trkpt>
      <trkpt lat="43.84672" lon="1.37357">
        <ele>148.97</ele>
      </trkpt>
      <trkpt lat="43.84648" lon="1.37423">
        <ele>149.37</ele>
      </trkpt>
      <trkpt lat="43.84624" lon="1.37488">
        <ele>150.84</ele>
      </trkpt>
      <trkpt lat="43.84608" lon="1.3753">
        <ele>151.47</ele>
      </trkpt>
      <trkpt lat="43.8459" lon="1.37604">
        <ele>152.27</ele>
      </trkpt>
      <trkpt lat="43.84575" lon="1.37678">
        <ele>151.75</ele>
      </trkpt>
      <trkpt lat="43.84563" lon="1.37713">
        <ele>151.59</ele>
      </trkpt>
      <trkpt lat="43.84549" lon="1.37742">
        <ele>151.52</ele>
      </trkpt>
      <trkpt lat="43.84522" lon="1.37786">
        <ele>151.25</ele>
      </trkpt>
      <trkpt lat="43.84484" lon="1.37839">
        <ele>150.66</ele>
      </trkpt>
      <trkpt lat="43.84449" lon="1.37875">
        <ele>150.14</ele>
      </trkpt>
      <trkpt lat="43.84405" lon="1.37941">
        <ele>148.12</ele>
      </trkpt>
      <trkpt lat="43.84382" lon="1.3797">
        <ele>146.44</ele>
      </trkpt>
      <trkpt lat="43.84346" lon="1.38005">
        <ele>143.32</ele>
      </trkpt>
      <trkpt lat="43.84329" lon="1.38026">
        <ele>141.53</ele>
      </trkpt>
      <trkpt lat="43.84312" lon="1.38063">
        <ele>140.36</ele>
      </trkpt>
      <trkpt lat="43.84298" lon="1.3811">
        <ele>138.19</ele>
      </trkpt>
      <trkpt lat="43.84271" lon="1.38219">
        <ele>134.78</ele>
      </trkpt>
      <trkpt lat="43.84243" lon="1.38328">
        <ele>132.54</ele>
      </trkpt>
      <trkpt lat="43.84216" lon="1.38437">
        <ele>132.01</ele>
      </trkpt>
      <trkpt lat="43.84176" lon="1.38545">
        <ele>133.1</ele>
      </trkpt>
      <trkpt lat="43.84155" lon="1.38525">
        <ele>133.3</ele>
      </trkpt>
      <trkpt lat="43.84146" lon="1.38508">
        <ele>133.46</ele>
      </trkpt>
      <trkpt lat="43.84137" lon="1.38505">
        <ele>133.23</ele>
      </trkpt>
      <trkpt lat="43.84128" lon="1.38508">
        <ele>133.23</ele>
      </trkpt>
      <trkpt lat="43.84109" lon="1.38586">
        <ele>133.53</ele>
      </trkpt>
      <trkpt lat="43.84089" lon="1.38663">
        <ele>135.39</ele>
      </trkpt>
      <trkpt lat="43.84059" lon="1.38763">
        <ele>142.75</ele>
      </trkpt>
      <trkpt lat="43.84054" lon="1.38784">
        <ele>145.57</ele>
      </trkpt>
      <trkpt lat="43.84049" lon="1.38818">
        <ele>149.45</ele>
      </trkpt>
      <trkpt lat="43.84046" lon="1.38825">
        <ele>149.45</ele>
      </trkpt>
      <trkpt lat="43.84033" lon="1.38843">
        <ele>150.41</ele>
      </trkpt>
      <trkpt lat="43.84028" lon="1.38838">
        <ele>150.22</ele>
      </trkpt>
      <trkpt lat="43.84022" lon="1.38838">
        <ele>150.41</ele>
      </trkpt>
      <trkpt lat="43.84019" lon="1.38845">
        <ele>150.41</ele>
      </trkpt>
      <trkpt lat="43.84008" lon="1.38842">
        <ele>150.05</ele>
      </trkpt>
      <trkpt lat="43.83964" lon="1.38837">
        <ele>149.57</ele>
      </trkpt>
      <trkpt lat="43.83913" lon="1.3884">
        <ele>150.83</ele>
      </trkpt>
      <trkpt lat="43.83877" lon="1.38847">
        <ele>152.12</ele>
      </trkpt>
      <trkpt lat="43.83826" lon="1.38874">
        <ele>152.78</ele>
      </trkpt>
      <trkpt lat="43.83774" lon="1.38901">
        <ele>152.5</ele>
      </trkpt>
      <trkpt lat="43.83763" lon="1.38905">
        <ele>152.31</ele>
      </trkpt>
      <trkpt lat="43.8376" lon="1.38904">
        <ele>152.31</ele>
      </trkpt>
      <trkpt lat="43.83754" lon="1.38909">
        <ele>152.31</ele>
      </trkpt>
      <trkpt lat="43.83753" lon="1.38913">
        <ele>152.31</ele>
      </trkpt>
      <trkpt lat="43.83745" lon="1.38922">
        <ele>152.31</ele>
      </trkpt>
      <trkpt lat="43.83731" lon="1.38925">
        <ele>152.31</ele>
      </trkpt>
      <trkpt lat="43.83694" lon="1.38945">
        <ele>152.38</ele>
      </trkpt>
      <trkpt lat="43.83646" lon="1.38969">
        <ele>152.41</ele>
      </trkpt>
      <trkpt lat="43.83641" lon="1.38973">
        <ele>152.41</ele>
      </trkpt>
      <trkpt lat="43.83566" lon="1.39014">
        <ele>152.12</ele>
      </trkpt>
      <trkpt lat="43.83491" lon="1.39054">
        <ele>150.97</ele>
      </trkpt>
      <trkpt lat="43.83464" lon="1.39058">
        <ele>150.36</ele>
      </trkpt>
      <trkpt lat="43.8343" lon="1.39056">
        <ele>150.44</ele>
      </trkpt>
      <trkpt lat="43.834" lon="1.3905">
        <ele>150.32</ele>
      </trkpt>
      <trkpt lat="43.83335" lon="1.3903">
        <ele>151.79</ele>
      </trkpt>
      <trkpt lat="43.83269" lon="1.39009">
        <ele>154.05</ele>
      </trkpt>
      <trkpt lat="43.83207" lon="1.38987">
        <ele>155</ele>
      </trkpt>
      <trkpt lat="43.83165" lon="1.38968">
        <ele>155.79</ele>
      </trkpt>
      <trkpt lat="43.83143" lon="1.38963">
        <ele>155.87</ele>
      </trkpt>
      <trkpt lat="43.83083" lon="1.3897">
        <ele>154.94</ele>
      </trkpt>
      <trkpt lat="43.83067" lon="1.38969">
        <ele>154.37</ele>
      </trkpt>
      <trkpt lat="43.83052" lon="1.38966">
        <ele>153.91</ele>
      </trkpt>
      <trkpt lat="43.83033" lon="1.38959">
        <ele>153.11</ele>
      </trkpt>
      <trkpt lat="43.8302" lon="1.38949">
        <ele>152.37</ele>
      </trkpt>
      <trkpt lat="43.83007" lon="1.38932">
        <ele>151.93</ele>
      </trkpt>
      <trkpt lat="43.8297" lon="1.38861">
        <ele>151.83</ele>
      </trkpt>
      <trkpt lat="43.8295" lon="1.38832">
        <ele>151.83</ele>
      </trkpt>
      <trkpt lat="43.82903" lon="1.38772">
        <ele>151.84</ele>
      </trkpt>
      <trkpt lat="43.82837" lon="1.387">
        <ele>151.84</ele>
      </trkpt>
      <trkpt lat="43.82783" lon="1.38635">
        <ele>150.89</ele>
      </trkpt>
      <trkpt lat="43.82738" lon="1.38576">
        <ele>149.93</ele>
      </trkpt>
      <trkpt lat="43.82694" lon="1.38516">
        <ele>149.98</ele>
      </trkpt>
      <trkpt lat="43.82649" lon="1.38457">
        <ele>148.7</ele>
      </trkpt>
      <trkpt lat="43.82628" lon="1.38434">
        <ele>148.91</ele>
      </trkpt>
      <trkpt lat="43.82558" lon="1.38385">
        <ele>151.02</ele>
      </trkpt>
      <trkpt lat="43.82493" lon="1.38332">
        <ele>150.52</ele>
      </trkpt>
      <trkpt lat="43.82438" lon="1.38305">
        <ele>149.89</ele>
      </trkpt>
      <trkpt lat="43.82395" lon="1.3829">
        <ele>148.47</ele>
      </trkpt>
      <trkpt lat="43.82372" lon="1.38285">
        <ele>147.65</ele>
      </trkpt>
      <trkpt lat="43.82345" lon="1.38282">
        <ele>146.68</ele>
      </trkpt>
      <trkpt lat="43.82309" lon="1.38281">
        <ele>145.63</ele>
      </trkpt>
      <trkpt lat="43.82252" lon="1.38291">
        <ele>146.64</ele>
      </trkpt>
      <trkpt lat="43.82194" lon="1.38301">
        <ele>149.27</ele>
      </trkpt>
      <trkpt lat="43.82162" lon="1.38302">
        <ele>149.41</ele>
      </trkpt>
      <trkpt lat="43.82125" lon="1.38293">
        <ele>149.42</ele>
      </trkpt>
      <trkpt lat="43.82102" lon="1.38283">
        <ele>149.8</ele>
      </trkpt>
      <trkpt lat="43.82071" lon="1.38262">
        <ele>150.38</ele>
      </trkpt>
      <trkpt lat="43.82044" lon="1.38235">
        <ele>150.39</ele>
      </trkpt>
      <trkpt lat="43.81996" lon="1.38169">
        <ele>150.39</ele>
      </trkpt>
      <trkpt lat="43.81968" lon="1.38138">
        <ele>150.28</ele>
      </trkpt>
      <trkpt lat="43.81915" lon="1.38097">
        <ele>150.28</ele>
      </trkpt>
      <trkpt lat="43.81862" lon="1.38055">
        <ele>151.33</ele>
      </trkpt>
      <trkpt lat="43.81809" lon="1.38014">
        <ele>154.48</ele>
      </trkpt>
      <trkpt lat="43.81777" lon="1.37991">
        <ele>155.42</ele>
      </trkpt>
      <trkpt lat="43.81744" lon="1.37975">
        <ele>156.95</ele>
      </trkpt>
      <trkpt lat="43.81697" lon="1.37946">
        <ele>158.26</ele>
      </trkpt>
      <trkpt lat="43.81674" lon="1.37924">
        <ele>158.3</ele>
      </trkpt>
      <trkpt lat="43.81609" lon="1.37855">
        <ele>160.14</ele>
      </trkpt>
      <trkpt lat="43.81586" lon="1.37836">
        <ele>160.2</ele>
      </trkpt>
      <trkpt lat="43.81538" lon="1.37801">
        <ele>161.09</ele>
      </trkpt>
      <trkpt lat="43.81489" lon="1.37765">
        <ele>161.25</ele>
      </trkpt>
      <trkpt lat="43.81461" lon="1.37737">
        <ele>161.62</ele>
      </trkpt>
      <trkpt lat="43.81451" lon="1.3772">
        <ele>162.06</ele>
      </trkpt>
      <trkpt lat="43.81421" lon="1.37639">
        <ele>163.34</ele>
      </trkpt>
      <trkpt lat="43.8139" lon="1.37558">
        <ele>164.69</ele>
      </trkpt>
      <trkpt lat="43.8138" lon="1.37538">
        <ele>165.14</ele>
      </trkpt>
      <trkpt lat="43.81344" lon="1.37486">
        <ele>166.36</ele>
      </trkpt>
      <trkpt lat="43.81298" lon="1.37426">
        <ele>169.37</ele>
      </trkpt>
      <trkpt lat="43.81257" lon="1.37375">
        <ele>170.6</ele>
      </trkpt>
      <trkpt lat="43.81215" lon="1.37324">
        <ele>172.77</ele>
      </trkpt>
      <trkpt lat="43.81186" lon="1.37292">
        <ele>173.72</ele>
      </trkpt>
      <trkpt lat="43.81174" lon="1.37283">
        <ele>173.8</ele>
      </trkpt>
      <trkpt lat="43.8115" lon="1.37266">
        <ele>174.71</ele>
      </trkpt>
      <trkpt lat="43.81079" lon="1.37229">
        <ele>175.51</ele>
      </trkpt>
      <trkpt lat="43.81034" lon="1.372">
        <ele>176.13</ele>
      </trkpt>
      <trkpt lat="43.80962" lon="1.37136">
        <ele>176.93</ele>
      </trkpt>
      <trkpt lat="43.80917" lon="1.37109">
        <ele>177.8</ele>
      </trkpt>
      <trkpt lat="43.80899" lon="1.37091">
        <ele>177.99</ele>
      </trkpt>
      <trkpt lat="43.80891" lon="1.3708">
        <ele>178.26</ele>
      </trkpt>
      <trkpt lat="43.8086" lon="1.37005">
        <ele>178.97</ele>
      </trkpt>
      <trkpt lat="43.80846" lon="1.36983">
        <ele>179.57</ele>
      </trkpt>
      <trkpt lat="43.8083" lon="1.36963">
        <ele>179.81</ele>
      </trkpt>
      <trkpt lat="43.80762" lon="1.3689">
        <ele>180.94</ele>
      </trkpt>
      <trkpt lat="43.80737" lon="1.36866">
        <ele>181.6</ele>
      </trkpt>
      <trkpt lat="43.80736" lon="1.36866">
        <ele>181.61</ele>
      </trkpt>
      <trkpt lat="43.80703" lon="1.36838">
        <ele>181.9</ele>
      </trkpt>
      <trkpt lat="43.80683" lon="1.36812">
        <ele>182.54</ele>
      </trkpt>
      <trkpt lat="43.80628" lon="1.36721">
        <ele>183.72</ele>
      </trkpt>
      <trkpt lat="43.80573" lon="1.36629">
        <ele>182.92</ele>
      </trkpt>
      <trkpt lat="43.80526" lon="1.36548">
        <ele>189.62</ele>
      </trkpt>
      <trkpt lat="43.8048" lon="1.36468">
        <ele>193.68</ele>
      </trkpt>
      <trkpt lat="43.80433" lon="1.36387">
        <ele>196.07</ele>
      </trkpt>
      <trkpt lat="43.80406" lon="1.36346">
        <ele>197.74</ele>
      </trkpt>
      <trkpt lat="43.80389" lon="1.36329">
        <ele>198.8</ele>
      </trkpt>
      <trkpt lat="43.80359" lon="1.36311">
        <ele>200.69</ele>
      </trkpt>
      <trkpt lat="43.80335" lon="1.36301">
        <ele>202.33</ele>
      </trkpt>
      <trkpt lat="43.80321" lon="1.36297">
        <ele>202.85</ele>
      </trkpt>
      <trkpt lat="43.80309" lon="1.36297">
        <ele>203.42</ele>
      </trkpt>
      <trkpt lat="43.80292" lon="1.363">
        <ele>203.78</ele>
      </trkpt>
      <trkpt lat="43.80237" lon="1.36319">
        <ele>206.25</ele>
      </trkpt>
      <trkpt lat="43.80218" lon="1.36328">
        <ele>207.15</ele>
      </trkpt>
      <trkpt lat="43.80175" lon="1.36353">
        <ele>209.53</ele>
      </trkpt>
      <trkpt lat="43.80131" lon="1.36377">
        <ele>211.51</ele>
      </trkpt>
      <trkpt lat="43.80098" lon="1.36394">
        <ele>213.1</ele>
      </trkpt>
      <trkpt lat="43.80069" lon="1.36403">
        <ele>214.38</ele>
      </trkpt>
      <trkpt lat="43.80054" lon="1.36405">
        <ele>214.8</ele>
      </trkpt>
      <trkpt lat="43.80025" lon="1.36404">
        <ele>214.8</ele>
      </trkpt>
      <trkpt lat="43.80002" lon="1.36394">
        <ele>214.77</ele>
      </trkpt>
      <trkpt lat="43.7997" lon="1.36366">
        <ele>214.74</ele>
      </trkpt>
      <trkpt lat="43.79939" lon="1.36331">
        <ele>213.89</ele>
      </trkpt>
      <trkpt lat="43.79906" lon="1.36281">
        <ele>213.74</ele>
      </trkpt>
      <trkpt lat="43.79889" lon="1.36258">
        <ele>213.74</ele>
      </trkpt>
      <trkpt lat="43.79849" lon="1.36212">
        <ele>213.74</ele>
      </trkpt>
      <trkpt lat="43.79809" lon="1.36165">
        <ele>213.66</ele>
      </trkpt>
      <trkpt lat="43.79764" lon="1.36108">
        <ele>213.66</ele>
      </trkpt>
      <trkpt lat="43.79718" lon="1.36051">
        <ele>213.63</ele>
      </trkpt>
      <trkpt lat="43.79701" lon="1.36038">
        <ele>213.41</ele>
      </trkpt>
      <trkpt lat="43.79683" lon="1.3603">
        <ele>212.77</ele>
      </trkpt>
      <trkpt lat="43.79659" lon="1.36024">
        <ele>212.64</ele>
      </trkpt>
      <trkpt lat="43.79599" lon="1.3602">
        <ele>214.05</ele>
      </trkpt>
      <trkpt lat="43.7959" lon="1.36017">
        <ele>214.05</ele>
      </trkpt>
      <trkpt lat="43.79584" lon="1.3601">
        <ele>214.27</ele>
      </trkpt>
      <trkpt lat="43.79577" lon="1.36007">
        <ele>214.53</ele>
      </trkpt>
      <trkpt lat="43.7957" lon="1.36008">
        <ele>214.6</ele>
      </trkpt>
      <trkpt lat="43.79565" lon="1.36004">
        <ele>214.6</ele>
      </trkpt>
      <trkpt lat="43.79531" lon="1.35938">
        <ele>215.11</ele>
      </trkpt>
      <trkpt lat="43.79505" lon="1.359">
        <ele>214.17</ele>
      </trkpt>
      <trkpt lat="43.7946" lon="1.35855">
        <ele>209.32</ele>
      </trkpt>
      <trkpt lat="43.79415" lon="1.35809">
        <ele>205.11</ele>
      </trkpt>
      <trkpt lat="43.79391" lon="1.35779">
        <ele>201.32</ele>
      </trkpt>
      <trkpt lat="43.79346" lon="1.35711">
        <ele>197.8</ele>
      </trkpt>
      <trkpt lat="43.79338" lon="1.35694">
        <ele>196.95</ele>
      </trkpt>
      <trkpt lat="43.79334" lon="1.3568">
        <ele>196.25</ele>
      </trkpt>
      <trkpt lat="43.7933" lon="1.35652">
        <ele>195.51</ele>
      </trkpt>
      <trkpt lat="43.7933" lon="1.35634">
        <ele>195.51</ele>
      </trkpt>
      <trkpt lat="43.79333" lon="1.35615">
        <ele>195.51</ele>
      </trkpt>
      <trkpt lat="43.79357" lon="1.35536">
        <ele>191.6</ele>
      </trkpt>
      <trkpt lat="43.79366" lon="1.35497">
        <ele>190.73</ele>
      </trkpt>
      <trkpt lat="43.7937" lon="1.35464">
        <ele>188.8</ele>
      </trkpt>
      <trkpt lat="43.79366" lon="1.35436">
        <ele>185.87</ele>
      </trkpt>
      <trkpt lat="43.79362" lon="1.35424">
        <ele>185.87</ele>
      </trkpt>
      <trkpt lat="43.79345" lon="1.35392">
        <ele>181.86</ele>
      </trkpt>
      <trkpt lat="43.7934" lon="1.35378">
        <ele>181.21</ele>
      </trkpt>
      <trkpt lat="43.79325" lon="1.35312">
        <ele>177.41</ele>
      </trkpt>
      <trkpt lat="43.79313" lon="1.35282">
        <ele>175.21</ele>
      </trkpt>
      <trkpt lat="43.79298" lon="1.35262">
        <ele>174.02</ele>
      </trkpt>
      <trkpt lat="43.7926" lon="1.35231">
        <ele>172.63</ele>
      </trkpt>
      <trkpt lat="43.79251" lon="1.35217">
        <ele>167.43</ele>
      </trkpt>
      <trkpt lat="43.79231" lon="1.35174">
        <ele>166.05</ele>
      </trkpt>
      <trkpt lat="43.79205" lon="1.35126">
        <ele>163.36</ele>
      </trkpt>
      <trkpt lat="43.79184" lon="1.35093">
        <ele>160.92</ele>
      </trkpt>
      <trkpt lat="43.79173" lon="1.35079">
        <ele>159.39</ele>
      </trkpt>
      <trkpt lat="43.79154" lon="1.35065">
        <ele>157.43</ele>
      </trkpt>
      <trkpt lat="43.79128" lon="1.35053">
        <ele>156.59</ele>
      </trkpt>
      <trkpt lat="43.79098" lon="1.35042">
        <ele>152.41</ele>
      </trkpt>
      <trkpt lat="43.79063" lon="1.35039">
        <ele>150.83</ele>
      </trkpt>
      <trkpt lat="43.79054" lon="1.35037">
        <ele>149.8</ele>
      </trkpt>
      <trkpt lat="43.7904" lon="1.35026">
        <ele>147.24</ele>
      </trkpt>
      <trkpt lat="43.79033" lon="1.35018">
        <ele>146.03</ele>
      </trkpt>
      <trkpt lat="43.78993" lon="1.34953">
        <ele>140.19</ele>
      </trkpt>
      <trkpt lat="43.78988" lon="1.34937">
        <ele>140.19</ele>
      </trkpt>
      <trkpt lat="43.78984" lon="1.34916">
        <ele>138.78</ele>
      </trkpt>
      <trkpt lat="43.7898" lon="1.34844">
        <ele>134.48</ele>
      </trkpt>
      <trkpt lat="43.78976" lon="1.34815">
        <ele>131.93</ele>
      </trkpt>
      <trkpt lat="43.78966" lon="1.34778">
        <ele>130.46</ele>
      </trkpt>
      <trkpt lat="43.78966" lon="1.34777">
        <ele>130.42</ele>
      </trkpt>
      <trkpt lat="43.78953" lon="1.34714">
        <ele>126.67</ele>
      </trkpt>
      <trkpt lat="43.78948" lon="1.34669">
        <ele>125.22</ele>
      </trkpt>
      <trkpt lat="43.78943" lon="1.34601">
        <ele>124.44</ele>
      </trkpt>
      <trkpt lat="43.78922" lon="1.34507">
        <ele>122.11</ele>
      </trkpt>
      <trkpt lat="43.7892" lon="1.34474">
        <ele>120.65</ele>
      </trkpt>
      <trkpt lat="43.78927" lon="1.34459">
        <ele>119.3</ele>
      </trkpt>
      <trkpt lat="43.78926" lon="1.34441">
        <ele>119.3</ele>
      </trkpt>
      <trkpt lat="43.7892" lon="1.34431">
        <ele>117.41</ele>
      </trkpt>
      <trkpt lat="43.78912" lon="1.34425">
        <ele>117.41</ele>
      </trkpt>
      <trkpt lat="43.78903" lon="1.34425">
        <ele>116.98</ele>
      </trkpt>
      <trkpt lat="43.78898" lon="1.34428">
        <ele>116.98</ele>
      </trkpt>
      <trkpt lat="43.78879" lon="1.34416">
        <ele>115.35</ele>
      </trkpt>
      <trkpt lat="43.78845" lon="1.34359">
        <ele>112.7</ele>
      </trkpt>
      <trkpt lat="43.78811" lon="1.34301">
        <ele>111.62</ele>
      </trkpt>
      <trkpt lat="43.78803" lon="1.34285">
        <ele>111.39</ele>
      </trkpt>
      <trkpt lat="43.78801" lon="1.34278">
        <ele>111.35</ele>
      </trkpt>
      <trkpt lat="43.78801" lon="1.34258">
        <ele>111.14</ele>
      </trkpt>
      <trkpt lat="43.78806" lon="1.34246">
        <ele>111.14</ele>
      </trkpt>
      <trkpt lat="43.78808" lon="1.34235">
        <ele>110.94</ele>
      </trkpt>
      <trkpt lat="43.78807" lon="1.34229">
        <ele>110.94</ele>
      </trkpt>
      <trkpt lat="43.78799" lon="1.34212">
        <ele>110.94</ele>
      </trkpt>
      <trkpt lat="43.78794" lon="1.34189">
        <ele>110.83</ele>
      </trkpt>
      <trkpt lat="43.78793" lon="1.34099">
        <ele>110.34</ele>
      </trkpt>
      <trkpt lat="43.78787" lon="1.34059">
        <ele>110.82</ele>
      </trkpt>
      <trkpt lat="43.78777" lon="1.34029">
        <ele>111.5</ele>
      </trkpt>
      <trkpt lat="43.7875" lon="1.33972">
        <ele>113.42</ele>
      </trkpt>
      <trkpt lat="43.78744" lon="1.33963">
        <ele>113.94</ele>
      </trkpt>
      <trkpt lat="43.78734" lon="1.33933">
        <ele>112.77</ele>
      </trkpt>
      <trkpt lat="43.78729" lon="1.33903">
        <ele>112.3</ele>
      </trkpt>
      <trkpt lat="43.7873" lon="1.33884">
        <ele>111.4</ele>
      </trkpt>
      <trkpt lat="43.78733" lon="1.33865">
        <ele>110.85</ele>
      </trkpt>
      <trkpt lat="43.7876" lon="1.33764">
        <ele>110.85</ele>
      </trkpt>
      <trkpt lat="43.78765" lon="1.33737">
        <ele>110.45</ele>
      </trkpt>
      <trkpt lat="43.78766" lon="1.33674">
        <ele>110.45</ele>
      </trkpt>
      <trkpt lat="43.78767" lon="1.33611">
        <ele>110.45</ele>
      </trkpt>
      <trkpt lat="43.78765" lon="1.33549">
        <ele>110.78</ele>
      </trkpt>
      <trkpt lat="43.78762" lon="1.33486">
        <ele>110.78</ele>
      </trkpt>
      <trkpt lat="43.78756" lon="1.3343">
        <ele>110.37</ele>
      </trkpt>
      <trkpt lat="43.78746" lon="1.33367">
        <ele>109.79</ele>
      </trkpt>
      <trkpt lat="43.78735" lon="1.33303">
        <ele>109.73</ele>
      </trkpt>
      <trkpt lat="43.78718" lon="1.33231">
        <ele>109.8</ele>
      </trkpt>
      <trkpt lat="43.78696" lon="1.33172">
        <ele>110.61</ele>
      </trkpt>
      <trkpt lat="43.78674" lon="1.33113">
        <ele>111.26</ele>
      </trkpt>
      <trkpt lat="43.78632" lon="1.33012">
        <ele>110.42</ele>
      </trkpt>
      <trkpt lat="43.78591" lon="1.3291">
        <ele>107.44</ele>
      </trkpt>
      <trkpt lat="43.78549" lon="1.32809">
        <ele>108.35</ele>
      </trkpt>
      <trkpt lat="43.78523" lon="1.32723">
        <ele>109.39</ele>
      </trkpt>
      <trkpt lat="43.78498" lon="1.32638">
        <ele>110.44</ele>
      </trkpt>
      <trkpt lat="43.78472" lon="1.32552">
        <ele>108.48</ele>
      </trkpt>
      <trkpt lat="43.78467" lon="1.32529">
        <ele>108.48</ele>
      </trkpt>
      <trkpt lat="43.78464" lon="1.32504">
        <ele>108.45</ele>
      </trkpt>
      <trkpt lat="43.78465" lon="1.32482">
        <ele>108.45</ele>
      </trkpt>
      <trkpt lat="43.78474" lon="1.32379">
        <ele>107.46</ele>
      </trkpt>
      <trkpt lat="43.78482" lon="1.32276">
        <ele>107.36</ele>
      </trkpt>
      <trkpt lat="43.78487" lon="1.32171">
        <ele>108.15</ele>
      </trkpt>
      <trkpt lat="43.7849" lon="1.32153">
        <ele>108.15</ele>
      </trkpt>
      <trkpt lat="43.78495" lon="1.32141">
        <ele>108.37</ele>
      </trkpt>
      <trkpt lat="43.78495" lon="1.32128">
        <ele>109.05</ele>
      </trkpt>
      <trkpt lat="43.78492" lon="1.32122">
        <ele>109.05</ele>
      </trkpt>
      <trkpt lat="43.78483" lon="1.32116">
        <ele>109.2</ele>
      </trkpt>
      <trkpt lat="43.78478" lon="1.32116">
        <ele>109.1</ele>
      </trkpt>
      <trkpt lat="43.7847" lon="1.32122">
        <ele>109.1</ele>
      </trkpt>
      <trkpt lat="43.78467" lon="1.32128">
        <ele>108.58</ele>
      </trkpt>
      <trkpt lat="43.78466" lon="1.32141">
        <ele>108.58</ele>
      </trkpt>
      <trkpt lat="43.78453" lon="1.32157">
        <ele>108.38</ele>
      </trkpt>
      <trkpt lat="43.78418" lon="1.32178">
        <ele>107.7</ele>
      </trkpt>
      <trkpt lat="43.78367" lon="1.32213">
        <ele>108.05</ele>
      </trkpt>
      <trkpt lat="43.78303" lon="1.32254">
        <ele>107.75</ele>
      </trkpt>
      <trkpt lat="43.78272" lon="1.32277">
        <ele>108.32</ele>
      </trkpt>
      <trkpt lat="43.782" lon="1.32321">
        <ele>108.23</ele>
      </trkpt>
      <trkpt lat="43.7815" lon="1.32357">
        <ele>108.28</ele>
      </trkpt>
      <trkpt lat="43.78099" lon="1.32393">
        <ele>108.28</ele>
      </trkpt>
      <trkpt lat="43.78046" lon="1.32424">
        <ele>108.2</ele>
      </trkpt>
      <trkpt lat="43.77985" lon="1.32484">
        <ele>108.2</ele>
      </trkpt>
      <trkpt lat="43.77948" lon="1.32518">
        <ele>108.2</ele>
      </trkpt>
      <trkpt lat="43.77881" lon="1.32574">
        <ele>108.15</ele>
      </trkpt>
      <trkpt lat="43.77866" lon="1.32588">
        <ele>108.15</ele>
      </trkpt>
      <trkpt lat="43.77853" lon="1.32601">
        <ele>108.15</ele>
      </trkpt>
      <trkpt lat="43.77775" lon="1.32658">
        <ele>108.17</ele>
      </trkpt>
      <trkpt lat="43.77697" lon="1.32715">
        <ele>108.66</ele>
      </trkpt>
      <trkpt lat="43.77679" lon="1.3273">
        <ele>108.83</ele>
      </trkpt>
      <trkpt lat="43.77668" lon="1.32744">
        <ele>108.83</ele>
      </trkpt>
      <trkpt lat="43.77651" lon="1.32775">
        <ele>108.97</ele>
      </trkpt>
      <trkpt lat="43.77621" lon="1.32873">
        <ele>109.3</ele>
      </trkpt>
      <trkpt lat="43.77606" lon="1.32904">
        <ele>109.3</ele>
      </trkpt>
      <trkpt lat="43.77598" lon="1.32916">
        <ele>109.3</ele>
      </trkpt>
      <trkpt lat="43.77547" lon="1.32975">
        <ele>108.92</ele>
      </trkpt>
      <trkpt lat="43.7753" lon="1.33001">
        <ele>108.36</ele>
      </trkpt>
      <trkpt lat="43.77496" lon="1.33097">
        <ele>107.99</ele>
      </trkpt>
      <trkpt lat="43.77479" lon="1.33127">
        <ele>107.81</ele>
      </trkpt>
      <trkpt lat="43.77468" lon="1.33138">
        <ele>107.65</ele>
      </trkpt>
      <trkpt lat="43.77429" lon="1.33163">
        <ele>107.08</ele>
      </trkpt>
      <trkpt lat="43.77352" lon="1.33207">
        <ele>107.08</ele>
      </trkpt>
      <trkpt lat="43.77275" lon="1.33251">
        <ele>107.31</ele>
      </trkpt>
      <trkpt lat="43.77199" lon="1.33294">
        <ele>107.31</ele>
      </trkpt>
      <trkpt lat="43.77122" lon="1.33338">
        <ele>107.36</ele>
      </trkpt>
      <trkpt lat="43.77045" lon="1.33382">
        <ele>108.41</ele>
      </trkpt>
      <trkpt lat="43.76995" lon="1.33405">
        <ele>109.96</ele>
      </trkpt>
      <trkpt lat="43.76977" lon="1.33403">
        <ele>110.17</ele>
      </trkpt>
      <trkpt lat="43.76959" lon="1.33397">
        <ele>110.53</ele>
      </trkpt>
      <trkpt lat="43.76943" lon="1.33384">
        <ele>111.2</ele>
      </trkpt>
      <trkpt lat="43.76901" lon="1.3334">
        <ele>111.42</ele>
      </trkpt>
      <trkpt lat="43.76882" lon="1.33323">
        <ele>111.42</ele>
      </trkpt>
      <trkpt lat="43.76852" lon="1.33302">
        <ele>111.33</ele>
      </trkpt>
      <trkpt lat="43.76782" lon="1.33263">
        <ele>111.72</ele>
      </trkpt>
      <trkpt lat="43.7675" lon="1.33248">
        <ele>111.63</ele>
      </trkpt>
      <trkpt lat="43.76693" lon="1.33228">
        <ele>110.31</ele>
      </trkpt>
      <trkpt lat="43.76647" lon="1.33214">
        <ele>109.96</ele>
      </trkpt>
      <trkpt lat="43.76579" lon="1.332">
        <ele>108.93</ele>
      </trkpt>
      <trkpt lat="43.76511" lon="1.3318">
        <ele>109.5</ele>
      </trkpt>
      <trkpt lat="43.76466" lon="1.33165">
        <ele>110.08</ele>
      </trkpt>
      <trkpt lat="43.76399" lon="1.33141">
        <ele>110.8</ele>
      </trkpt>
      <trkpt lat="43.76332" lon="1.33116">
        <ele>111.08</ele>
      </trkpt>
      <trkpt lat="43.76251" lon="1.33085">
        <ele>110.99</ele>
      </trkpt>
      <trkpt lat="43.76197" lon="1.33067">
        <ele>111.38</ele>
      </trkpt>
      <trkpt lat="43.76188" lon="1.33068">
        <ele>111.4</ele>
      </trkpt>
      <trkpt lat="43.76134" lon="1.3308">
        <ele>111.89</ele>
      </trkpt>
      <trkpt lat="43.76079" lon="1.33092">
        <ele>112.62</ele>
      </trkpt>
      <trkpt lat="43.76022" lon="1.33107">
        <ele>112.56</ele>
      </trkpt>
      <trkpt lat="43.75964" lon="1.33122">
        <ele>113.35</ele>
      </trkpt>
      <trkpt lat="43.75906" lon="1.33133">
        <ele>112.77</ele>
      </trkpt>
      <trkpt lat="43.75879" lon="1.3314">
        <ele>112.4</ele>
      </trkpt>
      <trkpt lat="43.7584" lon="1.33153">
        <ele>112.39</ele>
      </trkpt>
      <trkpt lat="43.75837" lon="1.33156">
        <ele>112.39</ele>
      </trkpt>
      <trkpt lat="43.75828" lon="1.33094">
        <ele>110.72</ele>
      </trkpt>
      <trkpt lat="43.75819" lon="1.33031">
        <ele>109.39</ele>
      </trkpt>
      <trkpt lat="43.75819" lon="1.3303">
        <ele>109.39</ele>
      </trkpt>
      <trkpt lat="43.75808" lon="1.32957">
        <ele>108.42</ele>
      </trkpt>
      <trkpt lat="43.75804" lon="1.32936">
        <ele>108.33</ele>
      </trkpt>
      <trkpt lat="43.75799" lon="1.32925">
        <ele>108.33</ele>
      </trkpt>
      <trkpt lat="43.75786" lon="1.32912">
        <ele>108.33</ele>
      </trkpt>
      <trkpt lat="43.75728" lon="1.32884">
        <ele>108.32</ele>
      </trkpt>
      <trkpt lat="43.7567" lon="1.32856">
        <ele>108.45</ele>
      </trkpt>
      <trkpt lat="43.75653" lon="1.32851">
        <ele>109.04</ele>
      </trkpt>
      <trkpt lat="43.75645" lon="1.32851">
        <ele>109.31</ele>
      </trkpt>
      <trkpt lat="43.75621" lon="1.32863">
        <ele>109.31</ele>
      </trkpt>
      <trkpt lat="43.75591" lon="1.32881">
        <ele>109.31</ele>
      </trkpt>
      <trkpt lat="43.75529" lon="1.32914">
        <ele>109.44</ele>
      </trkpt>
      <trkpt lat="43.75465" lon="1.32948">
        <ele>111.43</ele>
      </trkpt>
      <trkpt lat="43.754" lon="1.32981">
        <ele>111.43</ele>
      </trkpt>
      <trkpt lat="43.75334" lon="1.33017">
        <ele>111.43</ele>
      </trkpt>
      <trkpt lat="43.75268" lon="1.33053">
        <ele>111.39</ele>
      </trkpt>
      <trkpt lat="43.75196" lon="1.3308">
        <ele>111.39</ele>
      </trkpt>
      <trkpt lat="43.75148" lon="1.33094">
        <ele>111.39</ele>
      </trkpt>
      <trkpt lat="43.75132" lon="1.33102">
        <ele>111.39</ele>
      </trkpt>
      <trkpt lat="43.75095" lon="1.33126">
        <ele>111.79</ele>
      </trkpt>
      <trkpt lat="43.75073" lon="1.33135">
        <ele>112.61</ele>
      </trkpt>
      <trkpt lat="43.75004" lon="1.33156">
        <ele>113.72</ele>
      </trkpt>
      <trkpt lat="43.74969" lon="1.3316">
        <ele>113.12</ele>
      </trkpt>
      <trkpt lat="43.74916" lon="1.33153">
        <ele>113.22</ele>
      </trkpt>
      <trkpt lat="43.74863" lon="1.33145">
        <ele>113.35</ele>
      </trkpt>
      <trkpt lat="43.74809" lon="1.33142">
        <ele>113.34</ele>
      </trkpt>
      <trkpt lat="43.74781" lon="1.33143">
        <ele>113.14</ele>
      </trkpt>
      <trkpt lat="43.74747" lon="1.33146">
        <ele>112.52</ele>
      </trkpt>
      <trkpt lat="43.74678" lon="1.33149">
        <ele>112.34</ele>
      </trkpt>
      <trkpt lat="43.74609" lon="1.33152">
        <ele>112.96</ele>
      </trkpt>
      <trkpt lat="43.74586" lon="1.33159">
        <ele>113.16</ele>
      </trkpt>
      <trkpt lat="43.74515" lon="1.33197">
        <ele>113.02</ele>
      </trkpt>
      <trkpt lat="43.74443" lon="1.33235">
        <ele>113.03</ele>
      </trkpt>
      <trkpt lat="43.74403" lon="1.33254">
        <ele>113.39</ele>
      </trkpt>
      <trkpt lat="43.74359" lon="1.33272">
        <ele>113.94</ele>
      </trkpt>
      <trkpt lat="43.74314" lon="1.3329">
        <ele>113.84</ele>
      </trkpt>
      <trkpt lat="43.74294" lon="1.33296">
        <ele>113.53</ele>
      </trkpt>
      <trkpt lat="43.74254" lon="1.33303">
        <ele>112.98</ele>
      </trkpt>
      <trkpt lat="43.7418" lon="1.33328">
        <ele>112.94</ele>
      </trkpt>
      <trkpt lat="43.74152" lon="1.33335">
        <ele>112.94</ele>
      </trkpt>
      <trkpt lat="43.74098" lon="1.33342">
        <ele>112.94</ele>
      </trkpt>
      <trkpt lat="43.74043" lon="1.33349">
        <ele>113.22</ele>
      </trkpt>
      <trkpt lat="43.73992" lon="1.33351">
        <ele>113.22</ele>
      </trkpt>
      <trkpt lat="43.73957" lon="1.33348">
        <ele>113.13</ele>
      </trkpt>
      <trkpt lat="43.7393" lon="1.33349">
        <ele>113.15</ele>
      </trkpt>
      <trkpt lat="43.73842" lon="1.33357">
        <ele>113.86</ele>
      </trkpt>
      <trkpt lat="43.73794" lon="1.33365">
        <ele>113.39</ele>
      </trkpt>
      <trkpt lat="43.73747" lon="1.33379">
        <ele>113.39</ele>
      </trkpt>
      <trkpt lat="43.737" lon="1.33393">
        <ele>113.39</ele>
      </trkpt>
      <trkpt lat="43.73663" lon="1.33408">
        <ele>113.14</ele>
      </trkpt>
      <trkpt lat="43.73616" lon="1.33432">
        <ele>113.14</ele>
      </trkpt>
      <trkpt lat="43.73598" lon="1.33446">
        <ele>113.14</ele>
      </trkpt>
      <trkpt lat="43.73582" lon="1.33464">
        <ele>113.14</ele>
      </trkpt>
      <trkpt lat="43.73561" lon="1.33499">
        <ele>113.81</ele>
      </trkpt>
      <trkpt lat="43.73519" lon="1.33584">
        <ele>113.55</ele>
      </trkpt>
      <trkpt lat="43.73498" lon="1.33619">
        <ele>113.1</ele>
      </trkpt>
      <trkpt lat="43.7345" lon="1.33692">
        <ele>112.94</ele>
      </trkpt>
      <trkpt lat="43.73402" lon="1.33764">
        <ele>113.07</ele>
      </trkpt>
      <trkpt lat="43.73382" lon="1.33787">
        <ele>113.78</ele>
      </trkpt>
      <trkpt lat="43.73356" lon="1.33809">
        <ele>113.78</ele>
      </trkpt>
      <trkpt lat="43.73301" lon="1.33847">
        <ele>113.65</ele>
      </trkpt>
      <trkpt lat="43.73264" lon="1.33867">
        <ele>113.65</ele>
      </trkpt>
      <trkpt lat="43.73264" lon="1.33868">
        <ele>113.65</ele>
      </trkpt>
      <trkpt lat="43.7318" lon="1.33911">
        <ele>113.82</ele>
      </trkpt>
      <trkpt lat="43.73118" lon="1.33939">
        <ele>114.53</ele>
      </trkpt>
      <trkpt lat="43.73064" lon="1.33969">
        <ele>115.4</ele>
      </trkpt>
      <trkpt lat="43.72993" lon="1.34011">
        <ele>115.39</ele>
      </trkpt>
      <trkpt lat="43.72921" lon="1.34053">
        <ele>116.32</ele>
      </trkpt>
      <trkpt lat="43.7285" lon="1.34096">
        <ele>115.4</ele>
      </trkpt>
      <trkpt lat="43.72778" lon="1.34138">
        <ele>115.32</ele>
      </trkpt>
      <trkpt lat="43.72707" lon="1.3418">
        <ele>116.18</ele>
      </trkpt>
      <trkpt lat="43.72662" lon="1.34209">
        <ele>116.28</ele>
      </trkpt>
      <trkpt lat="43.72617" lon="1.34238">
        <ele>116.25</ele>
      </trkpt>
      <trkpt lat="43.72595" lon="1.34254">
        <ele>116.23</ele>
      </trkpt>
      <trkpt lat="43.72543" lon="1.34301">
        <ele>116.23</ele>
      </trkpt>
      <trkpt lat="43.72491" lon="1.34348">
        <ele>116.53</ele>
      </trkpt>
      <trkpt lat="43.72433" lon="1.34404">
        <ele>116.53</ele>
      </trkpt>
      <trkpt lat="43.72374" lon="1.3446">
        <ele>116.53</ele>
      </trkpt>
      <trkpt lat="43.72316" lon="1.34516">
        <ele>116.53</ele>
      </trkpt>
      <trkpt lat="43.72283" lon="1.34554">
        <ele>116.33</ele>
      </trkpt>
      <trkpt lat="43.72235" lon="1.3462">
        <ele>116.33</ele>
      </trkpt>
      <trkpt lat="43.72187" lon="1.34685">
        <ele>117.04</ele>
      </trkpt>
      <trkpt lat="43.72139" lon="1.34751">
        <ele>117.26</ele>
      </trkpt>
      <trkpt lat="43.72096" lon="1.34822">
        <ele>117.44</ele>
      </trkpt>
      <trkpt lat="43.72052" lon="1.34892">
        <ele>117.44</ele>
      </trkpt>
      <trkpt lat="43.72009" lon="1.34963">
        <ele>117.44</ele>
      </trkpt>
      <trkpt lat="43.71982" lon="1.35027">
        <ele>117.28</ele>
      </trkpt>
      <trkpt lat="43.71948" lon="1.35119">
        <ele>116.29</ele>
      </trkpt>
      <trkpt lat="43.71913" lon="1.35212">
        <ele>116.01</ele>
      </trkpt>
      <trkpt lat="43.71879" lon="1.35304">
        <ele>116.1</ele>
      </trkpt>
      <trkpt lat="43.71857" lon="1.35384">
        <ele>116.05</ele>
      </trkpt>
      <trkpt lat="43.71834" lon="1.35463">
        <ele>116.46</ele>
      </trkpt>
      <trkpt lat="43.71831" lon="1.35477">
        <ele>116.81</ele>
      </trkpt>
      <trkpt lat="43.7183" lon="1.35505">
        <ele>117.76</ele>
      </trkpt>
      <trkpt lat="43.71837" lon="1.35566">
        <ele>117.99</ele>
      </trkpt>
      <trkpt lat="43.71837" lon="1.35583">
        <ele>117.99</ele>
      </trkpt>
      <trkpt lat="43.71829" lon="1.35619">
        <ele>117.97</ele>
      </trkpt>
      <trkpt lat="43.71822" lon="1.35636">
        <ele>117.97</ele>
      </trkpt>
      <trkpt lat="43.71806" lon="1.35664">
        <ele>117.71</ele>
      </trkpt>
      <trkpt lat="43.71746" lon="1.35751">
        <ele>117.8</ele>
      </trkpt>
      <trkpt lat="43.71685" lon="1.35838">
        <ele>117.57</ele>
      </trkpt>
      <trkpt lat="43.71647" lon="1.35871">
        <ele>115.1</ele>
      </trkpt>
      <trkpt lat="43.71608" lon="1.35903">
        <ele>114.61</ele>
      </trkpt>
      <trkpt lat="43.71581" lon="1.35939">
        <ele>114.61</ele>
      </trkpt>
      <trkpt lat="43.71541" lon="1.36019">
        <ele>114.64</ele>
      </trkpt>
      <trkpt lat="43.71484" lon="1.36115">
        <ele>115.58</ele>
      </trkpt>
      <trkpt lat="43.71427" lon="1.36211">
        <ele>115.66</ele>
      </trkpt>
      <trkpt lat="43.7137" lon="1.36306">
        <ele>116.16</ele>
      </trkpt>
      <trkpt lat="43.71313" lon="1.36402">
        <ele>116.38</ele>
      </trkpt>
      <trkpt lat="43.71298" lon="1.36411">
        <ele>116.25</ele>
      </trkpt>
      <trkpt lat="43.71279" lon="1.36412">
        <ele>116.52</ele>
      </trkpt>
      <trkpt lat="43.71258" lon="1.36418">
        <ele>117.55</ele>
      </trkpt>
      <trkpt lat="43.71193" lon="1.3644">
        <ele>119.36</ele>
      </trkpt>
      <trkpt lat="43.71127" lon="1.36462">
        <ele>119.86</ele>
      </trkpt>
      <trkpt lat="43.71062" lon="1.36484">
        <ele>121.33</ele>
      </trkpt>
      <trkpt lat="43.70996" lon="1.36506">
        <ele>121.71</ele>
      </trkpt>
      <trkpt lat="43.70945" lon="1.36531">
        <ele>121.3</ele>
      </trkpt>
      <trkpt lat="43.70894" lon="1.36555">
        <ele>121.3</ele>
      </trkpt>
      <trkpt lat="43.7081" lon="1.36586">
        <ele>120.35</ele>
      </trkpt>
      <trkpt lat="43.70795" lon="1.36589">
        <ele>120.32</ele>
      </trkpt>
      <trkpt lat="43.70733" lon="1.36592">
        <ele>120.31</ele>
      </trkpt>
      <trkpt lat="43.70689" lon="1.36601">
        <ele>120.31</ele>
      </trkpt>
      <trkpt lat="43.70663" lon="1.36611">
        <ele>120.37</ele>
      </trkpt>
      <trkpt lat="43.70638" lon="1.36623">
        <ele>120.85</ele>
      </trkpt>
      <trkpt lat="43.70587" lon="1.36657">
        <ele>121.3</ele>
      </trkpt>
      <trkpt lat="43.70528" lon="1.36698">
        <ele>120.54</ele>
      </trkpt>
      <trkpt lat="43.7047" lon="1.3674">
        <ele>119.19</ele>
      </trkpt>
      <trkpt lat="43.70411" lon="1.36781">
        <ele>120.87</ele>
      </trkpt>
      <trkpt lat="43.70346" lon="1.3682">
        <ele>120.08</ele>
      </trkpt>
      <trkpt lat="43.70283" lon="1.36844">
        <ele>120.27</ele>
      </trkpt>
      <trkpt lat="43.7022" lon="1.36868">
        <ele>119.87</ele>
      </trkpt>
      <trkpt lat="43.70206" lon="1.36875">
        <ele>119.74</ele>
      </trkpt>
      <trkpt lat="43.70189" lon="1.36889">
        <ele>119.26</ele>
      </trkpt>
      <trkpt lat="43.70167" lon="1.36932">
        <ele>119.6</ele>
      </trkpt>
      <trkpt lat="43.70152" lon="1.36936">
        <ele>119.43</ele>
      </trkpt>
      <trkpt lat="43.70142" lon="1.36934">
        <ele>119.24</ele>
      </trkpt>
      <trkpt lat="43.70135" lon="1.36941">
        <ele>119.3</ele>
      </trkpt>
      <trkpt lat="43.70133" lon="1.36954">
        <ele>119.55</ele>
      </trkpt>
      <trkpt lat="43.70122" lon="1.36977">
        <ele>120.02</ele>
      </trkpt>
      <trkpt lat="43.70075" lon="1.37013">
        <ele>120.24</ele>
      </trkpt>
      <trkpt lat="43.70052" lon="1.37035">
        <ele>120.65</ele>
      </trkpt>
      <trkpt lat="43.69996" lon="1.37099">
        <ele>119.38</ele>
      </trkpt>
      <trkpt lat="43.69954" lon="1.37153">
        <ele>119.88</ele>
      </trkpt>
      <trkpt lat="43.69911" lon="1.37207">
        <ele>119.81</ele>
      </trkpt>
      <trkpt lat="43.69886" lon="1.37244">
        <ele>120.14</ele>
      </trkpt>
      <trkpt lat="43.69837" lon="1.3733">
        <ele>122.21</ele>
      </trkpt>
      <trkpt lat="43.69812" lon="1.37362">
        <ele>122.32</ele>
      </trkpt>
      <trkpt lat="43.69799" lon="1.37369">
        <ele>122.32</ele>
      </trkpt>
      <trkpt lat="43.6979" lon="1.37369">
        <ele>122.32</ele>
      </trkpt>
      <trkpt lat="43.69769" lon="1.37362">
        <ele>122.64</ele>
      </trkpt>
      <trkpt lat="43.69756" lon="1.37353">
        <ele>122.64</ele>
      </trkpt>
      <trkpt lat="43.6974" lon="1.37348">
        <ele>122.27</ele>
      </trkpt>
      <trkpt lat="43.69688" lon="1.37349">
        <ele>121.99</ele>
      </trkpt>
      <trkpt lat="43.69636" lon="1.37349">
        <ele>121.73</ele>
      </trkpt>
      <trkpt lat="43.69612" lon="1.37352">
        <ele>121.64</ele>
      </trkpt>
      <trkpt lat="43.69541" lon="1.37371">
        <ele>122.19</ele>
      </trkpt>
      <trkpt lat="43.69465" lon="1.3739">
        <ele>123.66</ele>
      </trkpt>
      <trkpt lat="43.69389" lon="1.37409">
        <ele>121.82</ele>
      </trkpt>
      <trkpt lat="43.69312" lon="1.37428">
        <ele>121.97</ele>
      </trkpt>
      <trkpt lat="43.69236" lon="1.37447">
        <ele>122.14</ele>
      </trkpt>
      <trkpt lat="43.6916" lon="1.37466">
        <ele>122.04</ele>
      </trkpt>
      <trkpt lat="43.69113" lon="1.37488">
        <ele>122.05</ele>
      </trkpt>
      <trkpt lat="43.69055" lon="1.37522">
        <ele>120.8</ele>
      </trkpt>
      <trkpt lat="43.69039" lon="1.37533">
        <ele>120.34</ele>
      </trkpt>
      <trkpt lat="43.69019" lon="1.37543">
        <ele>120.34</ele>
      </trkpt>
      <trkpt lat="43.69001" lon="1.37544">
        <ele>120.88</ele>
      </trkpt>
      <trkpt lat="43.6899" lon="1.37549">
        <ele>120.88</ele>
      </trkpt>
      <trkpt lat="43.68986" lon="1.37554">
        <ele>120.88</ele>
      </trkpt>
      <trkpt lat="43.6898" lon="1.37567">
        <ele>120.93</ele>
      </trkpt>
      <trkpt lat="43.68958" lon="1.37589">
        <ele>120.92</ele>
      </trkpt>
      <trkpt lat="43.68926" lon="1.37618">
        <ele>122.36</ele>
      </trkpt>
      <trkpt lat="43.68869" lon="1.37685">
        <ele>123.96</ele>
      </trkpt>
      <trkpt lat="43.6885" lon="1.37709">
        <ele>124.64</ele>
      </trkpt>
      <trkpt lat="43.68835" lon="1.3773">
        <ele>124.81</ele>
      </trkpt>
      <trkpt lat="43.68813" lon="1.37775">
        <ele>124.85</ele>
      </trkpt>
      <trkpt lat="43.68791" lon="1.37814">
        <ele>124.81</ele>
      </trkpt>
      <trkpt lat="43.68757" lon="1.37869">
        <ele>123.6</ele>
      </trkpt>
      <trkpt lat="43.6875" lon="1.37886">
        <ele>123.6</ele>
      </trkpt>
      <trkpt lat="43.6872" lon="1.37952">
        <ele>123.73</ele>
      </trkpt>
      <trkpt lat="43.68689" lon="1.38017">
        <ele>124.11</ele>
      </trkpt>
      <trkpt lat="43.68671" lon="1.38051">
        <ele>124.82</ele>
      </trkpt>
      <trkpt lat="43.68613" lon="1.38123">
        <ele>125.16</ele>
      </trkpt>
      <trkpt lat="43.68595" lon="1.38141">
        <ele>125.17</ele>
      </trkpt>
      <trkpt lat="43.68556" lon="1.38176">
        <ele>125</ele>
      </trkpt>
      <trkpt lat="43.68548" lon="1.38181">
        <ele>124.92</ele>
      </trkpt>
      <trkpt lat="43.68546" lon="1.38186">
        <ele>124.92</ele>
      </trkpt>
      <trkpt lat="43.68541" lon="1.38186">
        <ele>124.92</ele>
      </trkpt>
      <trkpt lat="43.68536" lon="1.38189">
        <ele>124.92</ele>
      </trkpt>
      <trkpt lat="43.68522" lon="1.38188">
        <ele>124.92</ele>
      </trkpt>
      <trkpt lat="43.68474" lon="1.38158">
        <ele>124.64</ele>
      </trkpt>
      <trkpt lat="43.68463" lon="1.3816">
        <ele>124.64</ele>
      </trkpt>
      <trkpt lat="43.68451" lon="1.38169">
        <ele>124.5</ele>
      </trkpt>
      <trkpt lat="43.68445" lon="1.3818">
        <ele>124.5</ele>
      </trkpt>
      <trkpt lat="43.68434" lon="1.3819">
        <ele>124.5</ele>
      </trkpt>
      <trkpt lat="43.68396" lon="1.38234">
        <ele>124.65</ele>
      </trkpt>
      <trkpt lat="43.68358" lon="1.38291">
        <ele>125.63</ele>
      </trkpt>
      <trkpt lat="43.68346" lon="1.38315">
        <ele>125.76</ele>
      </trkpt>
      <trkpt lat="43.68318" lon="1.38363">
        <ele>125.66</ele>
      </trkpt>
      <trkpt lat="43.68294" lon="1.384">
        <ele>125.28</ele>
      </trkpt>
      <trkpt lat="43.6825" lon="1.38451">
        <ele>124.87</ele>
      </trkpt>
      <trkpt lat="43.68226" lon="1.38475">
        <ele>124.87</ele>
      </trkpt>
      <trkpt lat="43.68177" lon="1.38514">
        <ele>125.08</ele>
      </trkpt>
      <trkpt lat="43.6815" lon="1.38527">
        <ele>125.08</ele>
      </trkpt>
      <trkpt lat="43.68108" lon="1.38538">
        <ele>125.08</ele>
      </trkpt>
      <trkpt lat="43.68092" lon="1.38544">
        <ele>125.08</ele>
      </trkpt>
      <trkpt lat="43.68081" lon="1.3855">
        <ele>125.09</ele>
      </trkpt>
      <trkpt lat="43.68066" lon="1.38562">
        <ele>124.95</ele>
      </trkpt>
      <trkpt lat="43.68061" lon="1.38568">
        <ele>124.76</ele>
      </trkpt>
      <trkpt lat="43.6805" lon="1.3859">
        <ele>124.15</ele>
      </trkpt>
      <trkpt lat="43.68037" lon="1.38647">
        <ele>123.83</ele>
      </trkpt>
      <trkpt lat="43.68008" lon="1.38761">
        <ele>124.23</ele>
      </trkpt>
      <trkpt lat="43.67979" lon="1.38875">
        <ele>124.5</ele>
      </trkpt>
      <trkpt lat="43.67955" lon="1.3895">
        <ele>123.53</ele>
      </trkpt>
      <trkpt lat="43.67941" lon="1.38984">
        <ele>123.46</ele>
      </trkpt>
      <trkpt lat="43.6793" lon="1.39003">
        <ele>123.41</ele>
      </trkpt>
      <trkpt lat="43.67926" lon="1.39018">
        <ele>123.61</ele>
      </trkpt>
      <trkpt lat="43.67895" lon="1.39075">
        <ele>124.66</ele>
      </trkpt>
      <trkpt lat="43.67889" lon="1.39093">
        <ele>124.8</ele>
      </trkpt>
      <trkpt lat="43.67847" lon="1.39166">
        <ele>126.17</ele>
      </trkpt>
      <trkpt lat="43.67835" lon="1.39181">
        <ele>126.17</ele>
      </trkpt>
      <trkpt lat="43.67794" lon="1.39257">
        <ele>126.84</ele>
      </trkpt>
      <trkpt lat="43.67747" lon="1.39332">
        <ele>126.84</ele>
      </trkpt>
      <trkpt lat="43.67699" lon="1.39407">
        <ele>127.15</ele>
      </trkpt>
      <trkpt lat="43.67678" lon="1.3945">
        <ele>127.5</ele>
      </trkpt>
      <trkpt lat="43.67652" lon="1.39509">
        <ele>127.68</ele>
      </trkpt>
      <trkpt lat="43.67626" lon="1.39573">
        <ele>126.26</ele>
      </trkpt>
      <trkpt lat="43.67598" lon="1.39676">
        <ele>125.61</ele>
      </trkpt>
      <trkpt lat="43.67559" lon="1.39758">
        <ele>124.13</ele>
      </trkpt>
      <trkpt lat="43.67548" lon="1.39774">
        <ele>124.28</ele>
      </trkpt>
      <trkpt lat="43.67541" lon="1.39787">
        <ele>124.28</ele>
      </trkpt>
      <trkpt lat="43.67527" lon="1.39803">
        <ele>124.44</ele>
      </trkpt>
      <trkpt lat="43.67506" lon="1.39818">
        <ele>124.52</ele>
      </trkpt>
      <trkpt lat="43.67458" lon="1.39844">
        <ele>124.66</ele>
      </trkpt>
      <trkpt lat="43.67427" lon="1.39876">
        <ele>124.7</ele>
      </trkpt>
      <trkpt lat="43.67413" lon="1.39888">
        <ele>125.09</ele>
      </trkpt>
      <trkpt lat="43.67402" lon="1.39895">
        <ele>125.09</ele>
      </trkpt>
      <trkpt lat="43.6738" lon="1.39906">
        <ele>125.09</ele>
      </trkpt>
      <trkpt lat="43.67305" lon="1.39925">
        <ele>123.95</ele>
      </trkpt>
      <trkpt lat="43.67272" lon="1.39938">
        <ele>123.45</ele>
      </trkpt>
      <trkpt lat="43.67244" lon="1.39952">
        <ele>123.39</ele>
      </trkpt>
      <trkpt lat="43.67202" lon="1.39979">
        <ele>123.85</ele>
      </trkpt>
      <trkpt lat="43.67177" lon="1.4">
        <ele>124.1</ele>
      </trkpt>
      <trkpt lat="43.67149" lon="1.40035">
        <ele>124.17</ele>
      </trkpt>
      <trkpt lat="43.67117" lon="1.40087">
        <ele>124.17</ele>
      </trkpt>
      <trkpt lat="43.67088" lon="1.40123">
        <ele>124.17</ele>
      </trkpt>
      <trkpt lat="43.67037" lon="1.4017">
        <ele>124.12</ele>
      </trkpt>
      <trkpt lat="43.67023" lon="1.40181">
        <ele>124.12</ele>
      </trkpt>
      <trkpt lat="43.66972" lon="1.40215">
        <ele>124.12</ele>
      </trkpt>
      <trkpt lat="43.66921" lon="1.40248">
        <ele>124.12</ele>
      </trkpt>
      <trkpt lat="43.66905" lon="1.40261">
        <ele>124.12</ele>
      </trkpt>
      <trkpt lat="43.66895" lon="1.40272">
        <ele>124.12</ele>
      </trkpt>
      <trkpt lat="43.66882" lon="1.403">
        <ele>124.58</ele>
      </trkpt>
      <trkpt lat="43.66851" lon="1.40391">
        <ele>125.15</ele>
      </trkpt>
      <trkpt lat="43.66839" lon="1.40412">
        <ele>125.73</ele>
      </trkpt>
      <trkpt lat="43.66836" lon="1.4041">
        <ele>125.73</ele>
      </trkpt>
      <trkpt lat="43.66829" lon="1.40411">
        <ele>125.73</ele>
      </trkpt>
      <trkpt lat="43.66824" lon="1.40418">
        <ele>125.73</ele>
      </trkpt>
      <trkpt lat="43.66823" lon="1.40423">
        <ele>125.73</ele>
      </trkpt>
      <trkpt lat="43.66805" lon="1.40427">
        <ele>125.8</ele>
      </trkpt>
      <trkpt lat="43.66785" lon="1.40438">
        <ele>125.8</ele>
      </trkpt>
      <trkpt lat="43.66738" lon="1.40459">
        <ele>126.73</ele>
      </trkpt>
      <trkpt lat="43.66662" lon="1.40496">
        <ele>126.79</ele>
      </trkpt>
      <trkpt lat="43.66648" lon="1.40506">
        <ele>126.84</ele>
      </trkpt>
      <trkpt lat="43.66628" lon="1.40516">
        <ele>127.19</ele>
      </trkpt>
      <trkpt lat="43.66606" lon="1.40524">
        <ele>127.66</ele>
      </trkpt>
      <trkpt lat="43.66554" lon="1.4055">
        <ele>127.79</ele>
      </trkpt>
      <trkpt lat="43.66484" lon="1.40593">
        <ele>127.33</ele>
      </trkpt>
      <trkpt lat="43.66415" lon="1.40637">
        <ele>127.13</ele>
      </trkpt>
      <trkpt lat="43.66345" lon="1.4068">
        <ele>127.92</ele>
      </trkpt>
      <trkpt lat="43.66275" lon="1.40723">
        <ele>127.95</ele>
      </trkpt>
      <trkpt lat="43.66204" lon="1.40751">
        <ele>127.71</ele>
      </trkpt>
      <trkpt lat="43.66132" lon="1.40779">
        <ele>128.11</ele>
      </trkpt>
      <trkpt lat="43.66061" lon="1.40807">
        <ele>127.93</ele>
      </trkpt>
      <trkpt lat="43.6602" lon="1.40826">
        <ele>127.58</ele>
      </trkpt>
      <trkpt lat="43.65995" lon="1.40843">
        <ele>127.58</ele>
      </trkpt>
      <trkpt lat="43.65963" lon="1.40876">
        <ele>127.98</ele>
      </trkpt>
      <trkpt lat="43.65955" lon="1.40889">
        <ele>127.98</ele>
      </trkpt>
      <trkpt lat="43.65931" lon="1.4097">
        <ele>129.16</ele>
      </trkpt>
      <trkpt lat="43.65927" lon="1.40969">
        <ele>129.25</ele>
      </trkpt>
      <trkpt lat="43.65923" lon="1.40971">
        <ele>129.25</ele>
      </trkpt>
      <trkpt lat="43.6592" lon="1.40978">
        <ele>129.03</ele>
      </trkpt>
      <trkpt lat="43.65921" lon="1.40986">
        <ele>129.03</ele>
      </trkpt>
      <trkpt lat="43.65899" lon="1.41006">
        <ele>129.02</ele>
      </trkpt>
      <trkpt lat="43.65824" lon="1.4105">
        <ele>129.18</ele>
      </trkpt>
      <trkpt lat="43.65748" lon="1.41093">
        <ele>129.81</ele>
      </trkpt>
      <trkpt lat="43.65718" lon="1.41109">
        <ele>129.81</ele>
      </trkpt>
      <trkpt lat="43.65675" lon="1.41127">
        <ele>130.29</ele>
      </trkpt>
      <trkpt lat="43.65671" lon="1.41119">
        <ele>130.46</ele>
      </trkpt>
      <trkpt lat="43.65666" lon="1.41119">
        <ele>130.46</ele>
      </trkpt>
      <trkpt lat="43.65662" lon="1.41122">
        <ele>130.46</ele>
      </trkpt>
      <trkpt lat="43.6566" lon="1.41131">
        <ele>130.34</ele>
      </trkpt>
      <trkpt lat="43.65639" lon="1.41138">
        <ele>130.35</ele>
      </trkpt>
      <trkpt lat="43.65567" lon="1.41154">
        <ele>129.84</ele>
      </trkpt>
      <trkpt lat="43.65494" lon="1.4117">
        <ele>131.33</ele>
      </trkpt>
      <trkpt lat="43.65417" lon="1.4119">
        <ele>130.41</ele>
      </trkpt>
      <trkpt lat="43.65358" lon="1.41202">
        <ele>130.08</ele>
      </trkpt>
      <trkpt lat="43.65316" lon="1.41222">
        <ele>128.9</ele>
      </trkpt>
      <trkpt lat="43.65248" lon="1.4125">
        <ele>128.9</ele>
      </trkpt>
      <trkpt lat="43.65179" lon="1.41278">
        <ele>128.55</ele>
      </trkpt>
      <trkpt lat="43.65127" lon="1.41307">
        <ele>128.55</ele>
      </trkpt>
      <trkpt lat="43.65074" lon="1.41336">
        <ele>128.18</ele>
      </trkpt>
      <trkpt lat="43.65006" lon="1.41354">
        <ele>128.87</ele>
      </trkpt>
      <trkpt lat="43.64927" lon="1.41369">
        <ele>129.38</ele>
      </trkpt>
      <trkpt lat="43.64847" lon="1.41384">
        <ele>130.32</ele>
      </trkpt>
      <trkpt lat="43.64801" lon="1.41401">
        <ele>130.6</ele>
      </trkpt>
      <trkpt lat="43.64755" lon="1.41417">
        <ele>130.86</ele>
      </trkpt>
      <trkpt lat="43.64751" lon="1.41423">
        <ele>130.86</ele>
      </trkpt>
      <trkpt lat="43.64749" lon="1.41433">
        <ele>130.86</ele>
      </trkpt>
      <trkpt lat="43.64737" lon="1.41427">
        <ele>130.88</ele>
      </trkpt>
      <trkpt lat="43.64731" lon="1.41427">
        <ele>130.88</ele>
      </trkpt>
      <trkpt lat="43.64692" lon="1.41439">
        <ele>131.58</ele>
      </trkpt>
      <trkpt lat="43.64651" lon="1.41449">
        <ele>131.8</ele>
      </trkpt>
      <trkpt lat="43.64572" lon="1.41456">
        <ele>131.7</ele>
      </trkpt>
      <trkpt lat="43.64508" lon="1.4147">
        <ele>130.71</ele>
      </trkpt>
      <trkpt lat="43.64459" lon="1.41491">
        <ele>130.68</ele>
      </trkpt>
      <trkpt lat="43.6441" lon="1.41512">
        <ele>130.61</ele>
      </trkpt>
      <trkpt lat="43.64346" lon="1.41546">
        <ele>131.57</ele>
      </trkpt>
      <trkpt lat="43.64281" lon="1.41586">
        <ele>132.66</ele>
      </trkpt>
      <trkpt lat="43.64272" lon="1.41573">
        <ele>132.45</ele>
      </trkpt>
      <trkpt lat="43.64231" lon="1.41483">
        <ele>131.55</ele>
      </trkpt>
      <trkpt lat="43.64231" lon="1.41482">
        <ele>131.55</ele>
      </trkpt>
      <trkpt lat="43.6422" lon="1.41459">
        <ele>131.66</ele>
      </trkpt>
      <trkpt lat="43.64197" lon="1.41415">
        <ele>131.85</ele>
      </trkpt>
      <trkpt lat="43.64189" lon="1.41408">
        <ele>131.85</ele>
      </trkpt>
      <trkpt lat="43.64183" lon="1.41405">
        <ele>131.85</ele>
      </trkpt>
      <trkpt lat="43.64174" lon="1.41404">
        <ele>131.85</ele>
      </trkpt>
      <trkpt lat="43.64163" lon="1.41408">
        <ele>131.85</ele>
      </trkpt>
      <trkpt lat="43.64106" lon="1.41462">
        <ele>131.7</ele>
      </trkpt>
      <trkpt lat="43.64049" lon="1.41516">
        <ele>131.58</ele>
      </trkpt>
      <trkpt lat="43.63992" lon="1.4157">
        <ele>131.78</ele>
      </trkpt>
      <trkpt lat="43.63934" lon="1.41615">
        <ele>131.39</ele>
      </trkpt>
      <trkpt lat="43.63877" lon="1.41661">
        <ele>130.18</ele>
      </trkpt>
      <trkpt lat="43.63819" lon="1.41706">
        <ele>129.85</ele>
      </trkpt>
      <trkpt lat="43.63779" lon="1.41728">
        <ele>131.01</ele>
      </trkpt>
      <trkpt lat="43.63744" lon="1.41739">
        <ele>129.95</ele>
      </trkpt>
      <trkpt lat="43.63731" lon="1.41742">
        <ele>129.95</ele>
      </trkpt>
      <trkpt lat="43.63674" lon="1.4174">
        <ele>130.39</ele>
      </trkpt>
      <trkpt lat="43.63617" lon="1.41737">
        <ele>130.39</ele>
      </trkpt>
      <trkpt lat="43.63571" lon="1.41736">
        <ele>130.62</ele>
      </trkpt>
      <trkpt lat="43.63534" lon="1.4174">
        <ele>130.81</ele>
      </trkpt>
      <trkpt lat="43.6353" lon="1.41737">
        <ele>131</ele>
      </trkpt>
      <trkpt lat="43.63523" lon="1.41736">
        <ele>131</ele>
      </trkpt>
      <trkpt lat="43.63516" lon="1.4174">
        <ele>131</ele>
      </trkpt>
      <trkpt lat="43.63489" lon="1.41731">
        <ele>131.44</ele>
      </trkpt>
      <trkpt lat="43.63451" lon="1.41726">
        <ele>131.78</ele>
      </trkpt>
      <trkpt lat="43.63389" lon="1.41717">
        <ele>130.74</ele>
      </trkpt>
      <trkpt lat="43.63328" lon="1.41708">
        <ele>130.64</ele>
      </trkpt>
      <trkpt lat="43.63266" lon="1.41699">
        <ele>131.43</ele>
      </trkpt>
      <trkpt lat="43.6325" lon="1.41696">
        <ele>131.48</ele>
      </trkpt>
      <trkpt lat="43.6323" lon="1.41686">
        <ele>131.26</ele>
      </trkpt>
      <trkpt lat="43.63213" lon="1.4167">
        <ele>130.72</ele>
      </trkpt>
      <trkpt lat="43.63198" lon="1.41648">
        <ele>130.67</ele>
      </trkpt>
      <trkpt lat="43.63169" lon="1.41567">
        <ele>130.33</ele>
      </trkpt>
      <trkpt lat="43.63172" lon="1.41562">
        <ele>130.33</ele>
      </trkpt>
      <trkpt lat="43.63171" lon="1.41557">
        <ele>130.33</ele>
      </trkpt>
      <trkpt lat="43.63167" lon="1.4155">
        <ele>130.43</ele>
      </trkpt>
      <trkpt lat="43.63162" lon="1.4155">
        <ele>130.43</ele>
      </trkpt>
      <trkpt lat="43.63122" lon="1.41439">
        <ele>132.04</ele>
      </trkpt>
      <trkpt lat="43.63082" lon="1.41328">
        <ele>132.18</ele>
      </trkpt>
      <trkpt lat="43.63042" lon="1.41217">
        <ele>132.26</ele>
      </trkpt>
      <trkpt lat="43.63002" lon="1.41106">
        <ele>131.99</ele>
      </trkpt>
      <trkpt lat="43.62992" lon="1.41088">
        <ele>131.99</ele>
      </trkpt>
      <trkpt lat="43.62978" lon="1.41068">
        <ele>131.84</ele>
      </trkpt>
      <trkpt lat="43.62951" lon="1.41044">
        <ele>132.41</ele>
      </trkpt>
      <trkpt lat="43.62924" lon="1.41031">
        <ele>131.92</ele>
      </trkpt>
      <trkpt lat="43.62924" lon="1.41024">
        <ele>131.92</ele>
      </trkpt>
      <trkpt lat="43.62918" lon="1.41012">
        <ele>131.96</ele>
      </trkpt>
      <trkpt lat="43.62913" lon="1.41009">
        <ele>131.96</ele>
      </trkpt>
      <trkpt lat="43.62908" lon="1.41009">
        <ele>131.96</ele>
      </trkpt>
      <trkpt lat="43.62902" lon="1.41012">
        <ele>131.96</ele>
      </trkpt>
      <trkpt lat="43.62899" lon="1.41017">
        <ele>131.85</ele>
      </trkpt>
      <trkpt lat="43.62896" lon="1.41027">
        <ele>131.85</ele>
      </trkpt>
      <trkpt lat="43.62865" lon="1.41032">
        <ele>131.07</ele>
      </trkpt>
      <trkpt lat="43.62816" lon="1.41047">
        <ele>131.46</ele>
      </trkpt>
      <trkpt lat="43.62766" lon="1.41061">
        <ele>130.91</ele>
      </trkpt>
      <trkpt lat="43.62733" lon="1.41075">
        <ele>130.83</ele>
      </trkpt>
      <trkpt lat="43.62693" lon="1.41096">
        <ele>130.98</ele>
      </trkpt>
      <trkpt lat="43.62641" lon="1.41134">
        <ele>133.05</ele>
      </trkpt>
      <trkpt lat="43.6263" lon="1.41137">
        <ele>133.05</ele>
      </trkpt>
      <trkpt lat="43.62615" lon="1.41125">
        <ele>133.06</ele>
      </trkpt>
      <trkpt lat="43.62612" lon="1.41114">
        <ele>133.06</ele>
      </trkpt>
      <trkpt lat="43.62604" lon="1.41105">
        <ele>132.94</ele>
      </trkpt>
      <trkpt lat="43.626" lon="1.41103">
        <ele>132.94</ele>
      </trkpt>
      <trkpt lat="43.6259" lon="1.41105">
        <ele>132.94</ele>
      </trkpt>
      <trkpt lat="43.62583" lon="1.41113">
        <ele>133.08</ele>
      </trkpt>
      <trkpt lat="43.62581" lon="1.41118">
        <ele>133.08</ele>
      </trkpt>
      <trkpt lat="43.62565" lon="1.41127">
        <ele>133.1</ele>
      </trkpt>
      <trkpt lat="43.62499" lon="1.41128">
        <ele>132.18</ele>
      </trkpt>
      <trkpt lat="43.62473" lon="1.41126">
        <ele>132.05</ele>
      </trkpt>
      <trkpt lat="43.62452" lon="1.41119">
        <ele>132.12</ele>
      </trkpt>
      <trkpt lat="43.62449" lon="1.41111">
        <ele>132.01</ele>
      </trkpt>
      <trkpt lat="43.62444" lon="1.41105">
        <ele>132.01</ele>
      </trkpt>
      <trkpt lat="43.62437" lon="1.41102">
        <ele>131.95</ele>
      </trkpt>
      <trkpt lat="43.62429" lon="1.41103">
        <ele>131.95</ele>
      </trkpt>
      <trkpt lat="43.62422" lon="1.41092">
        <ele>131.37</ele>
      </trkpt>
      <trkpt lat="43.6242" lon="1.41082">
        <ele>131.37</ele>
      </trkpt>
      <trkpt lat="43.62434" lon="1.41057">
        <ele>130.37</ele>
      </trkpt>
      <trkpt lat="43.62439" lon="1.41042">
        <ele>129.7</ele>
      </trkpt>
      <trkpt lat="43.62436" lon="1.41028">
        <ele>129.51</ele>
      </trkpt>
      <trkpt lat="43.624" lon="1.40958">
        <ele>130.18</ele>
      </trkpt>
      <trkpt lat="43.62363" lon="1.40889">
        <ele>130.61</ele>
      </trkpt>
      <trkpt lat="43.62327" lon="1.40819">
        <ele>132.04</ele>
      </trkpt>
      <trkpt lat="43.62276" lon="1.40819">
        <ele>132.37</ele>
      </trkpt>
      <trkpt lat="43.62225" lon="1.40819">
        <ele>132.2</ele>
      </trkpt>
      <trkpt lat="43.62558" lon="1.40863">
        <ele>128.3</ele>
      </trkpt>
    </trkseg>
  </trk>
  <trk>
    <name><![CDATA[TOAC Maison]]></name>
    <trkseg>
      <trkpt lat="43.62232" lon="1.4082">
        <ele>131.94174194336</ele>
        <time>2020-05-31T18:11:44.000Z</time>
      </trkpt>
      <trkpt lat="43.6233" lon="1.40821">
        <ele>131.92973327637</ele>
        <time>2020-05-31T18:11:44.016Z</time>
      </trkpt>
      <trkpt lat="43.62317" lon="1.40796">
        <ele>132</ele>
        <time>2020-05-31T18:11:44.035Z</time>
      </trkpt>
      <trkpt lat="43.62267" lon="1.407">
        <ele>131.27857971191</ele>
        <time>2020-05-31T18:11:44.068Z</time>
      </trkpt>
      <trkpt lat="43.62217" lon="1.40606">
        <ele>131.75068664551</ele>
        <time>2020-05-31T18:11:44.115Z</time>
      </trkpt>
      <trkpt lat="43.62216" lon="1.406">
        <ele>131.84666442871</ele>
        <time>2020-05-31T18:11:44.162Z</time>
      </trkpt>
      <trkpt lat="43.62223" lon="1.40579">
        <ele>132.21520996094</ele>
        <time>2020-05-31T18:11:44.212Z</time>
      </trkpt>
      <trkpt lat="43.62225" lon="1.40579">
        <ele>132.19120788574</ele>
        <time>2020-05-31T18:11:44.262Z</time>
      </trkpt>
      <trkpt lat="43.62229" lon="1.40579">
        <ele>132.14321899414</ele>
        <time>2020-05-31T18:11:44.313Z</time>
      </trkpt>
      <trkpt lat="43.62235" lon="1.40574">
        <ele>132.19120788574</ele>
        <time>2020-05-31T18:11:44.365Z</time>
      </trkpt>
      <trkpt lat="43.62237" lon="1.40566">
        <ele>132.35917663574</ele>
        <time>2020-05-31T18:11:44.418Z</time>
      </trkpt>
      <trkpt lat="43.62237" lon="1.40558">
        <ele>132.3807220459</ele>
        <time>2020-05-31T18:11:44.472Z</time>
      </trkpt>
      <trkpt lat="43.62236" lon="1.40554">
        <ele>132.39273071289</ele>
        <time>2020-05-31T18:11:44.526Z</time>
      </trkpt>
      <trkpt lat="43.62239" lon="1.40539">
        <ele>132.35673522949</ele>
        <time>2020-05-31T18:11:44.582Z</time>
      </trkpt>
      <trkpt lat="43.62241" lon="1.40533">
        <ele>132.54243469238</ele>
        <time>2020-05-31T18:11:44.639Z</time>
      </trkpt>
      <trkpt lat="43.62252" lon="1.40524">
        <ele>133.37030029297</ele>
        <time>2020-05-31T18:11:44.698Z</time>
      </trkpt>
      <trkpt lat="43.62267" lon="1.40514">
        <ele>134.39012145996</ele>
        <time>2020-05-31T18:11:44.760Z</time>
      </trkpt>
      <trkpt lat="43.62266" lon="1.40508">
        <ele>134.64208984375</ele>
        <time>2020-05-31T18:11:44.822Z</time>
      </trkpt>
      <trkpt lat="43.62257" lon="1.40466">
        <ele>135.3404083252</ele>
        <time>2020-05-31T18:11:44.890Z</time>
      </trkpt>
      <trkpt lat="43.62241" lon="1.40412">
        <ele>133.66069030762</ele>
        <time>2020-05-31T18:11:44.964Z</time>
      </trkpt>
      <trkpt lat="43.62224" lon="1.40351">
        <ele>132.89450073242</ele>
        <time>2020-05-31T18:11:45.046Z</time>
      </trkpt>
      <trkpt lat="43.62219" lon="1.40327">
        <ele>132.54655456543</ele>
        <time>2020-05-31T18:11:45.131Z</time>
      </trkpt>
      <trkpt lat="43.62217" lon="1.40309">
        <ele>131.57946777344</ele>
        <time>2020-05-31T18:11:45.218Z</time>
      </trkpt>
      <trkpt lat="43.62212" lon="1.40283">
        <ele>128.08805847168</ele>
        <time>2020-05-31T18:11:45.308Z</time>
      </trkpt>
      <trkpt lat="43.62194" lon="1.40224">
        <ele>121.93022918701</ele>
        <time>2020-05-31T18:11:45.405Z</time>
      </trkpt>
      <trkpt lat="43.62162" lon="1.40112">
        <ele>128.26167297363</ele>
        <time>2020-05-31T18:11:45.516Z</time>
      </trkpt>
      <trkpt lat="43.6214" lon="1.40032">
        <ele>137.94068908691</ele>
        <time>2020-05-31T18:11:45.637Z</time>
      </trkpt>
      <trkpt lat="43.62133" lon="1.4">
        <ele>138.10546875</ele>
        <time>2020-05-31T18:11:45.762Z</time>
      </trkpt>
      <trkpt lat="43.62129" lon="1.39968">
        <ele>137.8655090332</ele>
        <time>2020-05-31T18:11:45.891Z</time>
      </trkpt>
      <trkpt lat="43.62122" lon="1.39927">
        <ele>137.62554931641</ele>
        <time>2020-05-31T18:11:46.025Z</time>
      </trkpt>
      <trkpt lat="43.62119" lon="1.39878">
        <ele>137.59298706055</ele>
        <time>2020-05-31T18:11:46.165Z</time>
      </trkpt>
      <trkpt lat="43.62119" lon="1.39839">
        <ele>137.59298706055</ele>
        <time>2020-05-31T18:11:46.309Z</time>
      </trkpt>
      <trkpt lat="43.62123" lon="1.39779">
        <ele>136.81384277344</ele>
        <time>2020-05-31T18:11:46.460Z</time>
      </trkpt>
      <trkpt lat="43.62124" lon="1.39729">
        <ele>137</ele>
        <time>2020-05-31T18:11:46.617Z</time>
      </trkpt>
      <trkpt lat="43.62125" lon="1.39704">
        <ele>137</ele>
        <time>2020-05-31T18:11:46.777Z</time>
      </trkpt>
      <trkpt lat="43.6213" lon="1.39695">
        <ele>137</ele>
        <time>2020-05-31T18:11:46.938Z</time>
      </trkpt>
      <trkpt lat="43.62138" lon="1.397">
        <ele>137</ele>
        <time>2020-05-31T18:11:47.101Z</time>
      </trkpt>
      <trkpt lat="43.62149" lon="1.39699">
        <ele>137</ele>
        <time>2020-05-31T18:11:47.265Z</time>
      </trkpt>
      <trkpt lat="43.62174" lon="1.39696">
        <ele>137.58177185059</ele>
        <time>2020-05-31T18:11:47.433Z</time>
      </trkpt>
      <trkpt lat="43.62182" lon="1.39695">
        <ele>137.79772949219</ele>
        <time>2020-05-31T18:11:47.603Z</time>
      </trkpt>
      <trkpt lat="43.62186" lon="1.39691">
        <ele>137.98233032227</ele>
        <time>2020-05-31T18:11:47.773Z</time>
      </trkpt>
      <trkpt lat="43.62191" lon="1.39685">
        <ele>138.18629455566</ele>
        <time>2020-05-31T18:11:47.945Z</time>
      </trkpt>
      <trkpt lat="43.62194" lon="1.39674">
        <ele>138.48625183105</ele>
        <time>2020-05-31T18:11:48.118Z</time>
      </trkpt>
      <trkpt lat="43.62193" lon="1.39663">
        <ele>138.73820495605</ele>
        <time>2020-05-31T18:11:48.292Z</time>
      </trkpt>
      <trkpt lat="43.62188" lon="1.39653">
        <ele>138.91816711426</ele>
        <time>2020-05-31T18:11:48.468Z</time>
      </trkpt>
      <trkpt lat="43.6218" lon="1.39649">
        <ele>138.85356140137</ele>
        <time>2020-05-31T18:11:48.645Z</time>
      </trkpt>
      <trkpt lat="43.62143" lon="1.39656">
        <ele>137.79772949219</ele>
        <time>2020-05-31T18:11:48.828Z</time>
      </trkpt>
      <trkpt lat="43.62133" lon="1.3966">
        <ele>137.46179199219</ele>
        <time>2020-05-31T18:11:49.013Z</time>
      </trkpt>
      <trkpt lat="43.62127" lon="1.39667">
        <ele>137.14984130859</ele>
        <time>2020-05-31T18:11:49.199Z</time>
      </trkpt>
      <trkpt lat="43.62125" lon="1.39674">
        <ele>137</ele>
        <time>2020-05-31T18:11:49.386Z</time>
      </trkpt>
      <trkpt lat="43.62103" lon="1.39672">
        <ele>137</ele>
        <time>2020-05-31T18:11:49.576Z</time>
      </trkpt>
      <trkpt lat="43.62059" lon="1.39675">
        <ele>139.06549072266</ele>
        <time>2020-05-31T18:11:49.773Z</time>
      </trkpt>
      <trkpt lat="43.61994" lon="1.39679">
        <ele>145.72583007812</ele>
        <time>2020-05-31T18:11:49.981Z</time>
      </trkpt>
      <trkpt lat="43.61949" lon="1.39681">
        <ele>148.24247741699</ele>
        <time>2020-05-31T18:11:50.196Z</time>
      </trkpt>
      <trkpt lat="43.61884" lon="1.39681">
        <ele>151.00856018066</ele>
        <time>2020-05-31T18:11:50.421Z</time>
      </trkpt>
      <trkpt lat="43.61883" lon="1.39678">
        <ele>150.93827819824</ele>
        <time>2020-05-31T18:11:50.647Z</time>
      </trkpt>
      <trkpt lat="43.61881" lon="1.39677">
        <ele>150.98626708984</ele>
        <time>2020-05-31T18:11:50.873Z</time>
      </trkpt>
      <trkpt lat="43.61877" lon="1.39675">
        <ele>151.02056884766</ele>
        <time>2020-05-31T18:11:51.100Z</time>
      </trkpt>
      <trkpt lat="43.6187" lon="1.39677">
        <ele>151.12854003906</ele>
        <time>2020-05-31T18:11:51.328Z</time>
      </trkpt>
      <trkpt lat="43.61868" lon="1.39679">
        <ele>151.17652893066</ele>
        <time>2020-05-31T18:11:51.556Z</time>
      </trkpt>
      <trkpt lat="43.61867" lon="1.3968">
        <ele>151.20053100586</ele>
        <time>2020-05-31T18:11:51.784Z</time>
      </trkpt>
      <trkpt lat="43.61833" lon="1.39682">
        <ele>152.31622314453</ele>
        <time>2020-05-31T18:11:52.018Z</time>
      </trkpt>
      <trkpt lat="43.61757" lon="1.39686">
        <ele>153.81539916992</ele>
        <time>2020-05-31T18:11:52.264Z</time>
      </trkpt>
      <trkpt lat="43.61734" lon="1.39688">
        <ele>153.21549987793</ele>
        <time>2020-05-31T18:11:52.514Z</time>
      </trkpt>
      <trkpt lat="43.61631" lon="1.39696">
        <ele>151.14501953125</ele>
        <time>2020-05-31T18:11:52.780Z</time>
      </trkpt>
      <trkpt lat="43.61582" lon="1.39697">
        <ele>151.40844726562</ele>
        <time>2020-05-31T18:11:53.054Z</time>
      </trkpt>
      <trkpt lat="43.61554" lon="1.39698">
        <ele>150.90902709961</ele>
        <time>2020-05-31T18:11:53.333Z</time>
      </trkpt>
      <trkpt lat="43.61499" lon="1.39699">
        <ele>149.17448425293</ele>
        <time>2020-05-31T18:11:53.620Z</time>
      </trkpt>
      <trkpt lat="43.61457" lon="1.397">
        <ele>149.8578338623</ele>
        <time>2020-05-31T18:11:53.914Z</time>
      </trkpt>
      <trkpt lat="43.61439" lon="1.39707">
        <ele>150.20576477051</ele>
        <time>2020-05-31T18:11:54.211Z</time>
      </trkpt>
      <trkpt lat="43.61426" lon="1.39717">
        <ele>150.3977355957</ele>
        <time>2020-05-31T18:11:54.511Z</time>
      </trkpt>
      <trkpt lat="43.61422" lon="1.39722">
        <ele>150.4337310791</ele>
        <time>2020-05-31T18:11:54.811Z</time>
      </trkpt>
      <trkpt lat="43.61414" lon="1.39719">
        <ele>150.6616973877</ele>
        <time>2020-05-31T18:11:55.113Z</time>
      </trkpt>
      <trkpt lat="43.6141" lon="1.3972">
        <ele>150.7456817627</ele>
        <time>2020-05-31T18:11:55.415Z</time>
      </trkpt>
      <trkpt lat="43.61406" lon="1.39722">
        <ele>150.81767272949</ele>
        <time>2020-05-31T18:11:55.718Z</time>
      </trkpt>
      <trkpt lat="43.61401" lon="1.3973">
        <ele>150.8416595459</ele>
        <time>2020-05-31T18:11:56.022Z</time>
      </trkpt>
      <trkpt lat="43.61392" lon="1.39732">
        <ele>151.03807067871</ele>
        <time>2020-05-31T18:11:56.328Z</time>
      </trkpt>
      <trkpt lat="43.61379" lon="1.39728">
        <ele>151.39356994629</ele>
        <time>2020-05-31T18:11:56.636Z</time>
      </trkpt>
      <trkpt lat="43.61363" lon="1.3972">
        <ele>151.87348937988</ele>
        <time>2020-05-31T18:11:56.947Z</time>
      </trkpt>
      <trkpt lat="43.61348" lon="1.39715">
        <ele>152.34037780762</ele>
        <time>2020-05-31T18:11:57.260Z</time>
      </trkpt>
      <trkpt lat="43.61332" lon="1.39713">
        <ele>152.92488098145</ele>
        <time>2020-05-31T18:11:57.576Z</time>
      </trkpt>
      <trkpt lat="43.61281" lon="1.39714">
        <ele>154.12467956543</ele>
        <time>2020-05-31T18:11:57.900Z</time>
      </trkpt>
      <trkpt lat="43.61174" lon="1.39718">
        <ele>151.49058532715</ele>
        <time>2020-05-31T18:11:58.241Z</time>
      </trkpt>
      <trkpt lat="43.61157" lon="1.39717">
        <ele>151.85266113281</ele>
        <time>2020-05-31T18:11:58.585Z</time>
      </trkpt>
      <trkpt lat="43.61141" lon="1.39717">
        <ele>152.2366027832</ele>
        <time>2020-05-31T18:11:58.931Z</time>
      </trkpt>
      <trkpt lat="43.61108" lon="1.39717">
        <ele>153.02847290039</ele>
        <time>2020-05-31T18:11:59.282Z</time>
      </trkpt>
      <trkpt lat="43.61025" lon="1.3972">
        <ele>154.84460449219</ele>
        <time>2020-05-31T18:11:59.647Z</time>
      </trkpt>
      <trkpt lat="43.60971" lon="1.39723">
        <ele>155.72622680664</ele>
        <time>2020-05-31T18:12:00.020Z</time>
      </trkpt>
      <trkpt lat="43.60935" lon="1.39722">
        <ele>156.5357208252</ele>
        <time>2020-05-31T18:12:00.399Z</time>
      </trkpt>
      <trkpt lat="43.60935" lon="1.39721">
        <ele>156.48773193359</ele>
        <time>2020-05-31T18:12:00.778Z</time>
      </trkpt>
      <trkpt lat="43.60935" lon="1.3972">
        <ele>156.43974304199</ele>
        <time>2020-05-31T18:12:01.157Z</time>
      </trkpt>
      <trkpt lat="43.60935" lon="1.39718">
        <ele>156.34375</ele>
        <time>2020-05-31T18:12:01.537Z</time>
      </trkpt>
      <trkpt lat="43.60934" lon="1.39717">
        <ele>156.2837677002</ele>
        <time>2020-05-31T18:12:01.917Z</time>
      </trkpt>
      <trkpt lat="43.60933" lon="1.39714">
        <ele>156.1277923584</ele>
        <time>2020-05-31T18:12:02.297Z</time>
      </trkpt>
      <trkpt lat="43.6093" lon="1.39713">
        <ele>156.0438079834</ele>
        <time>2020-05-31T18:12:02.678Z</time>
      </trkpt>
      <trkpt lat="43.60926" lon="1.39714">
        <ele>156.0438079834</ele>
        <time>2020-05-31T18:12:03.059Z</time>
      </trkpt>
      <trkpt lat="43.60923" lon="1.3972">
        <ele>156.2957611084</ele>
        <time>2020-05-31T18:12:03.441Z</time>
      </trkpt>
      <trkpt lat="43.60923" lon="1.39721">
        <ele>156.34375</ele>
        <time>2020-05-31T18:12:03.823Z</time>
      </trkpt>
      <trkpt lat="43.60923" lon="1.39722">
        <ele>156.3917388916</ele>
        <time>2020-05-31T18:12:04.205Z</time>
      </trkpt>
      <trkpt lat="43.60871" lon="1.39727">
        <ele>156.0078125</ele>
        <time>2020-05-31T18:12:04.596Z</time>
      </trkpt>
      <trkpt lat="43.60811" lon="1.39728">
        <ele>154.88960266113</ele>
        <time>2020-05-31T18:12:04.996Z</time>
      </trkpt>
      <trkpt lat="43.60809" lon="1.39724">
        <ele>154.69763183594</ele>
        <time>2020-05-31T18:12:05.397Z</time>
      </trkpt>
      <trkpt lat="43.60805" lon="1.39716">
        <ele>154.31369018555</ele>
        <time>2020-05-31T18:12:05.799Z</time>
      </trkpt>
      <trkpt lat="43.608" lon="1.39711">
        <ele>154.01374816895</ele>
        <time>2020-05-31T18:12:06.202Z</time>
      </trkpt>
      <trkpt lat="43.60794" lon="1.39709">
        <ele>153.79777526855</ele>
        <time>2020-05-31T18:12:06.606Z</time>
      </trkpt>
      <trkpt lat="43.60783" lon="1.39713">
        <ele>153.67779541016</ele>
        <time>2020-05-31T18:12:07.012Z</time>
      </trkpt>
      <trkpt lat="43.60776" lon="1.39723">
        <ele>153.86976623535</ele>
        <time>2020-05-31T18:12:07.419Z</time>
      </trkpt>
      <trkpt lat="43.60771" lon="1.39743">
        <ele>154.45407104492</ele>
        <time>2020-05-31T18:12:07.829Z</time>
      </trkpt>
      <trkpt lat="43.60774" lon="1.39751">
        <ele>154.86199951172</ele>
        <time>2020-05-31T18:12:08.240Z</time>
      </trkpt>
      <trkpt lat="43.60777" lon="1.39754">
        <ele>155.14994812012</ele>
        <time>2020-05-31T18:12:08.652Z</time>
      </trkpt>
      <trkpt lat="43.60779" lon="1.39755">
        <ele>155.31791687012</ele>
        <time>2020-05-31T18:12:09.064Z</time>
      </trkpt>
      <trkpt lat="43.60767" lon="1.39783">
        <ele>155.23268127441</ele>
        <time>2020-05-31T18:12:09.480Z</time>
      </trkpt>
      <trkpt lat="43.60709" lon="1.39913">
        <ele>154.02571105957</ele>
        <time>2020-05-31T18:12:09.913Z</time>
      </trkpt>
      <trkpt lat="43.6065" lon="1.40044">
        <ele>148.91343688965</ele>
        <time>2020-05-31T18:12:10.364Z</time>
      </trkpt>
      <trkpt lat="43.60594" lon="1.40153">
        <ele>146.62855529785</ele>
        <time>2020-05-31T18:12:10.831Z</time>
      </trkpt>
      <trkpt lat="43.60592" lon="1.40154">
        <ele>146.54457092285</ele>
        <time>2020-05-31T18:12:11.298Z</time>
      </trkpt>
      <trkpt lat="43.6059" lon="1.40156">
        <ele>146.40060424805</ele>
        <time>2020-05-31T18:12:11.766Z</time>
      </trkpt>
      <trkpt lat="43.60586" lon="1.40161">
        <ele>146.05265808105</ele>
        <time>2020-05-31T18:12:12.234Z</time>
      </trkpt>
      <trkpt lat="43.60585" lon="1.40169">
        <ele>145.56074523926</ele>
        <time>2020-05-31T18:12:12.703Z</time>
      </trkpt>
      <trkpt lat="43.6057" lon="1.40207">
        <ele>143.44068908691</ele>
        <time>2020-05-31T18:12:13.177Z</time>
      </trkpt>
      <trkpt lat="43.60524" lon="1.40313">
        <ele>142.91604614258</ele>
        <time>2020-05-31T18:12:13.666Z</time>
      </trkpt>
      <trkpt lat="43.60513" lon="1.40337">
        <ele>142.41036987305</ele>
        <time>2020-05-31T18:12:14.158Z</time>
      </trkpt>
      <trkpt lat="43.60479" lon="1.40412">
        <ele>140.56433105469</ele>
        <time>2020-05-31T18:12:14.660Z</time>
      </trkpt>
      <trkpt lat="43.60452" lon="1.40466">
        <ele>138.58090209961</ele>
        <time>2020-05-31T18:12:15.170Z</time>
      </trkpt>
      <trkpt lat="43.60437" lon="1.40495">
        <ele>138.74882507324</ele>
        <time>2020-05-31T18:12:15.684Z</time>
      </trkpt>
      <trkpt lat="43.60406" lon="1.40571">
        <ele>142.23110961914</ele>
        <time>2020-05-31T18:12:16.208Z</time>
      </trkpt>
      <trkpt lat="43.60385" lon="1.40644">
        <ele>140.85133361816</ele>
        <time>2020-05-31T18:12:16.741Z</time>
      </trkpt>
      <trkpt lat="43.60334" lon="1.40752">
        <ele>139.57415771484</ele>
        <time>2020-05-31T18:12:17.289Z</time>
      </trkpt>
      <trkpt lat="43.60324" lon="1.40771">
        <ele>139.33419799805</ele>
        <time>2020-05-31T18:12:17.840Z</time>
      </trkpt>
      <trkpt lat="43.60306" lon="1.40826">
        <ele>139.3208770752</ele>
        <time>2020-05-31T18:12:18.398Z</time>
      </trkpt>
      <trkpt lat="43.60203" lon="1.41053">
        <ele>140.50773620605</ele>
        <time>2020-05-31T18:12:18.987Z</time>
      </trkpt>
      <trkpt lat="43.60089" lon="1.41309">
        <ele>142.0717010498</ele>
        <time>2020-05-31T18:12:19.611Z</time>
      </trkpt>
      <trkpt lat="43.60038" lon="1.41423">
        <ele>141.41610717773</ele>
        <time>2020-05-31T18:12:20.251Z</time>
      </trkpt>
      <trkpt lat="43.60038" lon="1.41423">
        <ele>141.41395568848</ele>
        <time>2020-05-31T18:12:20.891Z</time>
      </trkpt>
      <trkpt lat="43.60014" lon="1.41475">
        <ele>140.03076171875</ele>
        <time>2020-05-31T18:12:21.538Z</time>
      </trkpt>
      <trkpt lat="43.60002" lon="1.41499">
        <ele>140.59742736816</ele>
        <time>2020-05-31T18:12:22.188Z</time>
      </trkpt>
      <trkpt lat="43.59975" lon="1.41561">
        <ele>141.52020263672</ele>
        <time>2020-05-31T18:12:22.847Z</time>
      </trkpt>
      <trkpt lat="43.59925" lon="1.41682">
        <ele>142.87989807129</ele>
        <time>2020-05-31T18:12:23.522Z</time>
      </trkpt>
      <trkpt lat="43.59889" lon="1.41759">
        <ele>143.32438659668</ele>
        <time>2020-05-31T18:12:24.207Z</time>
      </trkpt>
      <trkpt lat="43.59827" lon="1.41895">
        <ele>142.45207214355</ele>
        <time>2020-05-31T18:12:24.911Z</time>
      </trkpt>
      <trkpt lat="43.59822" lon="1.41901">
        <ele>142.26010131836</ele>
        <time>2020-05-31T18:12:25.616Z</time>
      </trkpt>
      <trkpt lat="43.59786" lon="1.41983">
        <ele>141.22412109375</ele>
        <time>2020-05-31T18:12:26.332Z</time>
      </trkpt>
      <trkpt lat="43.59785" lon="1.41983">
        <ele>141.21211242676</ele>
        <time>2020-05-31T18:12:27.048Z</time>
      </trkpt>
      <trkpt lat="43.59783" lon="1.41984">
        <ele>141.20011901855</ele>
        <time>2020-05-31T18:12:27.765Z</time>
      </trkpt>
      <trkpt lat="43.59772" lon="1.41981">
        <ele>141.04420471191</ele>
        <time>2020-05-31T18:12:28.484Z</time>
      </trkpt>
      <trkpt lat="43.59695" lon="1.41967">
        <ele>147.31703186035</ele>
        <time>2020-05-31T18:12:29.215Z</time>
      </trkpt>
      <trkpt lat="43.59627" lon="1.41956">
        <ele>149.04547119141</ele>
        <time>2020-05-31T18:12:29.957Z</time>
      </trkpt>
      <trkpt lat="43.59609" lon="1.41954">
        <ele>149.86134338379</ele>
        <time>2020-05-31T18:12:30.702Z</time>
      </trkpt>
      <trkpt lat="43.59586" lon="1.41944">
        <ele>148.79676818848</ele>
        <time>2020-05-31T18:12:31.451Z</time>
      </trkpt>
      <trkpt lat="43.59585" lon="1.41943">
        <ele>148.65280151367</ele>
        <time>2020-05-31T18:12:32.200Z</time>
      </trkpt>
      <trkpt lat="43.59582" lon="1.4194">
        <ele>148.22087097168</ele>
        <time>2020-05-31T18:12:32.950Z</time>
      </trkpt>
      <trkpt lat="43.59579" lon="1.41939">
        <ele>148.05290222168</ele>
        <time>2020-05-31T18:12:33.700Z</time>
      </trkpt>
      <trkpt lat="43.59573" lon="1.41942">
        <ele>148.37684631348</ele>
        <time>2020-05-31T18:12:34.451Z</time>
      </trkpt>
      <trkpt lat="43.59571" lon="1.41944">
        <ele>148.61680603027</ele>
        <time>2020-05-31T18:12:35.202Z</time>
      </trkpt>
      <trkpt lat="43.59571" lon="1.41945">
        <ele>148.74877929688</ele>
        <time>2020-05-31T18:12:35.954Z</time>
      </trkpt>
      <trkpt lat="43.5953" lon="1.41933">
        <ele>144.50228881836</ele>
        <time>2020-05-31T18:12:36.712Z</time>
      </trkpt>
      <trkpt lat="43.59526" lon="1.41932">
        <ele>144.06173706055</ele>
        <time>2020-05-31T18:12:37.471Z</time>
      </trkpt>
      <trkpt lat="43.59526" lon="1.41932">
        <ele>144.06137084961</ele>
        <time>2020-05-31T18:12:38.230Z</time>
      </trkpt>
      <trkpt lat="43.59525" lon="1.41931">
        <ele>143.89039611816</ele>
        <time>2020-05-31T18:12:38.989Z</time>
      </trkpt>
      <trkpt lat="43.59525" lon="1.41933">
        <ele>143.96238708496</ele>
        <time>2020-05-31T18:12:39.748Z</time>
      </trkpt>
      <trkpt lat="43.59521" lon="1.41933">
        <ele>143.53045654297</ele>
        <time>2020-05-31T18:12:40.508Z</time>
      </trkpt>
      <trkpt lat="43.59516" lon="1.41935">
        <ele>143.28082275391</ele>
        <time>2020-05-31T18:12:41.269Z</time>
      </trkpt>
      <trkpt lat="43.59498" lon="1.41933">
        <ele>142.99287414551</ele>
        <time>2020-05-31T18:12:42.033Z</time>
      </trkpt>
      <trkpt lat="43.59431" lon="1.41925">
        <ele>141.18846130371</ele>
        <time>2020-05-31T18:12:42.807Z</time>
      </trkpt>
      <trkpt lat="43.59419" lon="1.41923">
        <ele>141.7643737793</ele>
        <time>2020-05-31T18:12:43.583Z</time>
      </trkpt>
      <trkpt lat="43.59397" lon="1.4192">
        <ele>142.82019042969</ele>
        <time>2020-05-31T18:12:44.363Z</time>
      </trkpt>
      <trkpt lat="43.5939" lon="1.41919">
        <ele>143.15614318848</ele>
        <time>2020-05-31T18:12:45.144Z</time>
      </trkpt>
      <trkpt lat="43.59306" lon="1.41905">
        <ele>145</ele>
        <time>2020-05-31T18:12:45.939Z</time>
      </trkpt>
      <trkpt lat="43.59272" lon="1.41904">
        <ele>144.98110961914</ele>
        <time>2020-05-31T18:12:46.739Z</time>
      </trkpt>
      <trkpt lat="43.59247" lon="1.41902">
        <ele>143.94090270996</ele>
        <time>2020-05-31T18:12:47.543Z</time>
      </trkpt>
      <trkpt lat="43.59182" lon="1.41889">
        <ele>141.75389099121</ele>
        <time>2020-05-31T18:12:48.358Z</time>
      </trkpt>
      <trkpt lat="43.59163" lon="1.41888">
        <ele>141.38360595703</ele>
        <time>2020-05-31T18:12:49.176Z</time>
      </trkpt>
      <trkpt lat="43.59139" lon="1.41899">
        <ele>141</ele>
        <time>2020-05-31T18:12:49.998Z</time>
      </trkpt>
      <trkpt lat="43.59126" lon="1.41905">
        <ele>141</ele>
        <time>2020-05-31T18:12:50.822Z</time>
      </trkpt>
      <trkpt lat="43.5912" lon="1.41914">
        <ele>141</ele>
        <time>2020-05-31T18:12:51.647Z</time>
      </trkpt>
      <trkpt lat="43.59106" lon="1.41936">
        <ele>141</ele>
        <time>2020-05-31T18:12:52.476Z</time>
      </trkpt>
      <trkpt lat="43.59093" lon="1.41956">
        <ele>141.1009979248</ele>
        <time>2020-05-31T18:12:53.308Z</time>
      </trkpt>
      <trkpt lat="43.59091" lon="1.41959">
        <ele>141.12643432617</ele>
        <time>2020-05-31T18:12:54.140Z</time>
      </trkpt>
      <trkpt lat="43.59115" lon="1.41921">
        <ele>141</ele>
        <time>2020-05-31T18:12:54.978Z</time>
      </trkpt>
      <trkpt lat="43.59121" lon="1.41933">
        <ele>141</ele>
        <time>2020-05-31T18:12:55.818Z</time>
      </trkpt>
      <trkpt lat="43.59123" lon="1.41936">
        <ele>141</ele>
        <time>2020-05-31T18:12:56.658Z</time>
      </trkpt>
      <trkpt lat="43.59117" lon="1.41943">
        <ele>141</ele>
        <time>2020-05-31T18:12:57.500Z</time>
      </trkpt>
      <trkpt lat="43.59076" lon="1.42005">
        <ele>142.50152587891</ele>
        <time>2020-05-31T18:12:58.351Z</time>
      </trkpt>
      <trkpt lat="43.59062" lon="1.42029">
        <ele>143.46136474609</ele>
        <time>2020-05-31T18:12:59.206Z</time>
      </trkpt>
      <trkpt lat="43.59024" lon="1.42084">
        <ele>145.41313171387</ele>
        <time>2020-05-31T18:13:00.070Z</time>
      </trkpt>
      <trkpt lat="43.58951" lon="1.42198">
        <ele>144</ele>
        <time>2020-05-31T18:13:00.951Z</time>
      </trkpt>
      <trkpt lat="43.58928" lon="1.42239">
        <ele>143.8331451416</ele>
        <time>2020-05-31T18:13:01.838Z</time>
      </trkpt>
      <trkpt lat="43.58923" lon="1.42249">
        <ele>143.5931854248</ele>
        <time>2020-05-31T18:13:02.727Z</time>
      </trkpt>
      <trkpt lat="43.58876" lon="1.42322">
        <ele>141.29399108887</ele>
        <time>2020-05-31T18:13:03.627Z</time>
      </trkpt>
      <trkpt lat="43.58865" lon="1.42339">
        <ele>141.16201782227</ele>
        <time>2020-05-31T18:13:04.530Z</time>
      </trkpt>
      <trkpt lat="43.58835" lon="1.42387">
        <ele>141.25497436523</ele>
        <time>2020-05-31T18:13:05.440Z</time>
      </trkpt>
      <trkpt lat="43.5879" lon="1.42454">
        <ele>143</ele>
        <time>2020-05-31T18:13:06.361Z</time>
      </trkpt>
      <trkpt lat="43.58776" lon="1.42473">
        <ele>143</ele>
        <time>2020-05-31T18:13:07.285Z</time>
      </trkpt>
      <trkpt lat="43.58753" lon="1.42504">
        <ele>143.62641906738</ele>
        <time>2020-05-31T18:13:08.214Z</time>
      </trkpt>
      <trkpt lat="43.58735" lon="1.4253">
        <ele>144.37872314453</ele>
        <time>2020-05-31T18:13:09.147Z</time>
      </trkpt>
      <trkpt lat="43.58733" lon="1.42533">
        <ele>144.29147338867</ele>
        <time>2020-05-31T18:13:10.081Z</time>
      </trkpt>
      <trkpt lat="43.58595" lon="1.42744">
        <ele>145.2198638916</ele>
        <time>2020-05-31T18:13:11.048Z</time>
      </trkpt>
      <trkpt lat="43.58586" lon="1.42771">
        <ele>145.65179443359</ele>
        <time>2020-05-31T18:13:12.018Z</time>
      </trkpt>
      <trkpt lat="43.58552" lon="1.42827">
        <ele>146.13824462891</ele>
        <time>2020-05-31T18:13:12.997Z</time>
      </trkpt>
      <trkpt lat="43.5854" lon="1.42846">
        <ele>145.84846496582</ele>
        <time>2020-05-31T18:13:13.979Z</time>
      </trkpt>
      <trkpt lat="43.58531" lon="1.42839">
        <ele>145.64450073242</ele>
        <time>2020-05-31T18:13:14.962Z</time>
      </trkpt>
      <trkpt lat="43.58522" lon="1.42831">
        <ele>145.48852539062</ele>
        <time>2020-05-31T18:13:15.947Z</time>
      </trkpt>
      <trkpt lat="43.58522" lon="1.4283">
        <ele>145.53652954102</ele>
        <time>2020-05-31T18:13:16.932Z</time>
      </trkpt>
      <trkpt lat="43.58522" lon="1.42827">
        <ele>145.68049621582</ele>
        <time>2020-05-31T18:13:17.917Z</time>
      </trkpt>
      <trkpt lat="43.5852" lon="1.4282">
        <ele>145.89646911621</ele>
        <time>2020-05-31T18:13:18.903Z</time>
      </trkpt>
      <trkpt lat="43.58517" lon="1.42816">
        <ele>146.00148010254</ele>
        <time>2020-05-31T18:13:19.890Z</time>
      </trkpt>
      <trkpt lat="43.58513" lon="1.42814">
        <ele>146.10484313965</ele>
        <time>2020-05-31T18:13:20.878Z</time>
      </trkpt>
      <trkpt lat="43.58508" lon="1.42814">
        <ele>146.22482299805</ele>
        <time>2020-05-31T18:13:21.866Z</time>
      </trkpt>
      <trkpt lat="43.58504" lon="1.42816">
        <ele>146.31343078613</ele>
        <time>2020-05-31T18:13:22.855Z</time>
      </trkpt>
      <trkpt lat="43.58499" lon="1.42827">
        <ele>145.90550231934</ele>
        <time>2020-05-31T18:13:23.846Z</time>
      </trkpt>
      <trkpt lat="43.585" lon="1.42833">
        <ele>145.59355163574</ele>
        <time>2020-05-31T18:13:24.837Z</time>
      </trkpt>
      <trkpt lat="43.58494" lon="1.42853">
        <ele>144.77767944336</ele>
        <time>2020-05-31T18:13:25.831Z</time>
      </trkpt>
      <trkpt lat="43.58485" lon="1.42907">
        <ele>145.07969665527</ele>
        <time>2020-05-31T18:13:26.831Z</time>
      </trkpt>
      <trkpt lat="43.58452" lon="1.43117">
        <ele>139</ele>
        <time>2020-05-31T18:13:27.856Z</time>
      </trkpt>
      <trkpt lat="43.58448" lon="1.43148">
        <ele>139</ele>
        <time>2020-05-31T18:13:28.885Z</time>
      </trkpt>
      <trkpt lat="43.58448" lon="1.43149">
        <ele>138.99678039551</ele>
        <time>2020-05-31T18:13:29.914Z</time>
      </trkpt>
      <trkpt lat="43.58447" lon="1.43148">
        <ele>139</ele>
        <time>2020-05-31T18:13:30.943Z</time>
      </trkpt>
      <trkpt lat="43.58448" lon="1.43149">
        <ele>138.99678039551</ele>
        <time>2020-05-31T18:13:31.972Z</time>
      </trkpt>
      <trkpt lat="43.58442" lon="1.43267">
        <ele>141.47883605957</ele>
        <time>2020-05-31T18:13:33.015Z</time>
      </trkpt>
      <trkpt lat="43.58423" lon="1.43675">
        <ele>139.51599121094</ele>
        <time>2020-05-31T18:13:34.106Z</time>
      </trkpt>
      <trkpt lat="43.5842" lon="1.4373">
        <ele>138.38174438477</ele>
        <time>2020-05-31T18:13:35.203Z</time>
      </trkpt>
      <trkpt lat="43.58412" lon="1.43932">
        <ele>145.26065063477</ele>
        <time>2020-05-31T18:13:36.324Z</time>
      </trkpt>
      <trkpt lat="43.58409" lon="1.43978">
        <ele>148.79180908203</ele>
        <time>2020-05-31T18:13:37.450Z</time>
      </trkpt>
      <trkpt lat="43.58399" lon="1.44184">
        <ele>149.29667663574</ele>
        <time>2020-05-31T18:13:38.600Z</time>
      </trkpt>
      <trkpt lat="43.58394" lon="1.44268">
        <ele>147.48904418945</ele>
        <time>2020-05-31T18:13:39.760Z</time>
      </trkpt>
      <trkpt lat="43.5839" lon="1.44386">
        <ele>148.37254333496</ele>
        <time>2020-05-31T18:13:40.934Z</time>
      </trkpt>
      <trkpt lat="43.5839" lon="1.44418">
        <ele>149</ele>
        <time>2020-05-31T18:13:42.111Z</time>
      </trkpt>
      <trkpt lat="43.58361" lon="1.44416">
        <ele>149.17610168457</ele>
        <time>2020-05-31T18:13:43.293Z</time>
      </trkpt>
      <trkpt lat="43.58291" lon="1.44411">
        <ele>148.56134033203</ele>
        <time>2020-05-31T18:13:44.486Z</time>
      </trkpt>
      <trkpt lat="43.58245" lon="1.44406">
        <ele>148.71968078613</ele>
        <time>2020-05-31T18:13:45.687Z</time>
      </trkpt>
      <trkpt lat="43.58217" lon="1.44407">
        <ele>149.41555786133</ele>
        <time>2020-05-31T18:13:46.892Z</time>
      </trkpt>
      <trkpt lat="43.58169" lon="1.44415">
        <ele>149.81140136719</ele>
        <time>2020-05-31T18:13:48.105Z</time>
      </trkpt>
      <trkpt lat="43.58158" lon="1.44419">
        <ele>149.67942810059</ele>
        <time>2020-05-31T18:13:49.320Z</time>
      </trkpt>
      <trkpt lat="43.58116" lon="1.44445">
        <ele>149.92651367188</ele>
        <time>2020-05-31T18:13:50.542Z</time>
      </trkpt>
      <trkpt lat="43.5807" lon="1.44492">
        <ele>149.75588989258</ele>
        <time>2020-05-31T18:13:51.773Z</time>
      </trkpt>
      <trkpt lat="43.58009" lon="1.44554">
        <ele>148.85879516602</ele>
        <time>2020-05-31T18:13:53.016Z</time>
      </trkpt>
      <trkpt lat="43.57909" lon="1.44652">
        <ele>150</ele>
        <time>2020-05-31T18:13:54.279Z</time>
      </trkpt>
      <trkpt lat="43.57824" lon="1.44727">
        <ele>148</ele>
        <time>2020-05-31T18:13:55.558Z</time>
      </trkpt>
      <trkpt lat="43.578" lon="1.44748">
        <ele>148</ele>
        <time>2020-05-31T18:13:56.842Z</time>
      </trkpt>
      <trkpt lat="43.57746" lon="1.44798">
        <ele>148.25881958008</ele>
        <time>2020-05-31T18:13:58.136Z</time>
      </trkpt>
      <trkpt lat="43.57674" lon="1.44852">
        <ele>147.99600219727</ele>
        <time>2020-05-31T18:13:59.443Z</time>
      </trkpt>
      <trkpt lat="43.57593" lon="1.44923">
        <ele>148.38549804688</ele>
        <time>2020-05-31T18:14:00.766Z</time>
      </trkpt>
      <trkpt lat="43.5753" lon="1.44979">
        <ele>149</ele>
        <time>2020-05-31T18:14:02.101Z</time>
      </trkpt>
      <trkpt lat="43.57487" lon="1.45024">
        <ele>149.99571228027</ele>
        <time>2020-05-31T18:14:03.444Z</time>
      </trkpt>
      <trkpt lat="43.57458" lon="1.45055">
        <ele>149.56378173828</ele>
        <time>2020-05-31T18:14:04.793Z</time>
      </trkpt>
      <trkpt lat="43.57454" lon="1.45059">
        <ele>149.46566772461</ele>
        <time>2020-05-31T18:14:06.143Z</time>
      </trkpt>
      <trkpt lat="43.57379" lon="1.45139">
        <ele>149.08824157715</ele>
        <time>2020-05-31T18:14:07.508Z</time>
      </trkpt>
      <trkpt lat="43.57386" lon="1.45166">
        <ele>149.41697692871</ele>
        <time>2020-05-31T18:14:08.876Z</time>
      </trkpt>
      <trkpt lat="43.57389" lon="1.45178">
        <ele>149.45297241211</ele>
        <time>2020-05-31T18:14:10.246Z</time>
      </trkpt>
      <trkpt lat="43.57386" lon="1.45186">
        <ele>149.4660949707</ele>
        <time>2020-05-31T18:14:11.617Z</time>
      </trkpt>
      <trkpt lat="43.57381" lon="1.45204">
        <ele>149.9580078125</ele>
        <time>2020-05-31T18:14:12.990Z</time>
      </trkpt>
      <trkpt lat="43.5737" lon="1.45208">
        <ele>150.18597412109</ele>
        <time>2020-05-31T18:14:14.365Z</time>
      </trkpt>
      <trkpt lat="43.57345" lon="1.45217">
        <ele>150.626953125</ele>
        <time>2020-05-31T18:14:15.744Z</time>
      </trkpt>
      <trkpt lat="43.57331" lon="1.45222">
        <ele>150.39778137207</ele>
        <time>2020-05-31T18:14:17.125Z</time>
      </trkpt>
      <trkpt lat="43.57293" lon="1.45239">
        <ele>149.05833435059</ele>
        <time>2020-05-31T18:14:18.513Z</time>
      </trkpt>
      <trkpt lat="43.5728" lon="1.45248">
        <ele>148.72592163086</ele>
        <time>2020-05-31T18:14:19.903Z</time>
      </trkpt>
      <trkpt lat="43.57256" lon="1.45268">
        <ele>148.4282989502</ele>
        <time>2020-05-31T18:14:21.298Z</time>
      </trkpt>
      <trkpt lat="43.57191" lon="1.45342">
        <ele>149.45468139648</ele>
        <time>2020-05-31T18:14:22.706Z</time>
      </trkpt>
      <trkpt lat="43.57139" lon="1.45394">
        <ele>150.57672119141</ele>
        <time>2020-05-31T18:14:24.124Z</time>
      </trkpt>
      <trkpt lat="43.56987" lon="1.45556">
        <ele>152.22988891602</ele>
        <time>2020-05-31T18:14:25.573Z</time>
      </trkpt>
      <trkpt lat="43.56934" lon="1.45613">
        <ele>154.01225280762</ele>
        <time>2020-05-31T18:14:27.033Z</time>
      </trkpt>
      <trkpt lat="43.56903" lon="1.45647">
        <ele>154.40544128418</ele>
        <time>2020-05-31T18:14:28.499Z</time>
      </trkpt>
      <trkpt lat="43.56854" lon="1.45695">
        <ele>154.41744995117</ele>
        <time>2020-05-31T18:14:29.975Z</time>
      </trkpt>
      <trkpt lat="43.56795" lon="1.45751">
        <ele>154.8942565918</ele>
        <time>2020-05-31T18:14:31.462Z</time>
      </trkpt>
      <trkpt lat="43.56715" lon="1.45823">
        <ele>155.7875213623</ele>
        <time>2020-05-31T18:14:32.965Z</time>
      </trkpt>
      <trkpt lat="43.56627" lon="1.45895">
        <ele>159.43090820312</ele>
        <time>2020-05-31T18:14:34.484Z</time>
      </trkpt>
      <trkpt lat="43.5661" lon="1.45909">
        <ele>159.77738952637</ele>
        <time>2020-05-31T18:14:36.006Z</time>
      </trkpt>
      <trkpt lat="43.56605" lon="1.45909">
        <ele>159.83737182617</ele>
        <time>2020-05-31T18:14:37.529Z</time>
      </trkpt>
      <trkpt lat="43.56603" lon="1.4591">
        <ele>159.84938049316</ele>
        <time>2020-05-31T18:14:39.052Z</time>
      </trkpt>
      <trkpt lat="43.56547" lon="1.45956">
        <ele>159.63067626953</ele>
        <time>2020-05-31T18:14:40.586Z</time>
      </trkpt>
      <trkpt lat="43.56512" lon="1.45987">
        <ele>158.13856506348</ele>
        <time>2020-05-31T18:14:42.126Z</time>
      </trkpt>
      <trkpt lat="43.56507" lon="1.45988">
        <ele>158.25854492188</ele>
        <time>2020-05-31T18:14:43.667Z</time>
      </trkpt>
      <trkpt lat="43.56504" lon="1.45989">
        <ele>158.33052062988</ele>
        <time>2020-05-31T18:14:45.209Z</time>
      </trkpt>
      <trkpt lat="43.56489" lon="1.46">
        <ele>158.69046020508</ele>
        <time>2020-05-31T18:14:46.753Z</time>
      </trkpt>
      <trkpt lat="43.56442" lon="1.46038">
        <ele>159.24530029297</ele>
        <time>2020-05-31T18:14:48.306Z</time>
      </trkpt>
      <trkpt lat="43.56408" lon="1.4606">
        <ele>158.97178649902</ele>
        <time>2020-05-31T18:14:49.865Z</time>
      </trkpt>
      <trkpt lat="43.5635" lon="1.46084">
        <ele>158.48329162598</ele>
        <time>2020-05-31T18:14:51.434Z</time>
      </trkpt>
      <trkpt lat="43.56343" lon="1.46078">
        <ele>158.67526245117</ele>
        <time>2020-05-31T18:14:53.004Z</time>
      </trkpt>
      <trkpt lat="43.56327" lon="1.46072">
        <ele>159.29916381836</ele>
        <time>2020-05-31T18:14:54.577Z</time>
      </trkpt>
      <trkpt lat="43.5631" lon="1.46061">
        <ele>160.0919342041</ele>
        <time>2020-05-31T18:14:56.153Z</time>
      </trkpt>
      <trkpt lat="43.56288" lon="1.46039">
        <ele>161.67565917969</ele>
        <time>2020-05-31T18:14:57.733Z</time>
      </trkpt>
      <trkpt lat="43.56259" lon="1.45996">
        <ele>164.21115112305</ele>
        <time>2020-05-31T18:14:59.320Z</time>
      </trkpt>
      <trkpt lat="43.56256" lon="1.45992">
        <ele>164.47999572754</ele>
        <time>2020-05-31T18:15:00.908Z</time>
      </trkpt>
      <trkpt lat="43.56145" lon="1.45826">
        <ele>169.1222076416</ele>
        <time>2020-05-31T18:15:02.522Z</time>
      </trkpt>
      <trkpt lat="43.56134" lon="1.45813">
        <ele>170.20120239258</ele>
        <time>2020-05-31T18:15:04.138Z</time>
      </trkpt>
      <trkpt lat="43.56126" lon="1.45807">
        <ele>171.04107666016</ele>
        <time>2020-05-31T18:15:05.756Z</time>
      </trkpt>
      <trkpt lat="43.56052" lon="1.45774">
        <ele>177.04107666016</ele>
        <time>2020-05-31T18:15:07.386Z</time>
      </trkpt>
      <trkpt lat="43.56042" lon="1.45765">
        <ele>178.08489990234</ele>
        <time>2020-05-31T18:15:09.018Z</time>
      </trkpt>
      <trkpt lat="43.55998" lon="1.45742">
        <ele>180.89898681641</ele>
        <time>2020-05-31T18:15:10.658Z</time>
      </trkpt>
      <trkpt lat="43.5598" lon="1.45739">
        <ele>181.2229309082</ele>
        <time>2020-05-31T18:15:12.300Z</time>
      </trkpt>
      <trkpt lat="43.55974" lon="1.45746">
        <ele>181.04295349121</ele>
        <time>2020-05-31T18:15:13.944Z</time>
      </trkpt>
      <trkpt lat="43.55957" lon="1.45758">
        <ele>180.88011169434</ele>
        <time>2020-05-31T18:15:15.591Z</time>
      </trkpt>
      <trkpt lat="43.55946" lon="1.45766">
        <ele>181.18006896973</ele>
        <time>2020-05-31T18:15:17.240Z</time>
      </trkpt>
      <trkpt lat="43.55935" lon="1.45769">
        <ele>181.54000854492</ele>
        <time>2020-05-31T18:15:18.891Z</time>
      </trkpt>
      <trkpt lat="43.55921" lon="1.45771">
        <ele>182.98051452637</ele>
        <time>2020-05-31T18:15:20.544Z</time>
      </trkpt>
      <trkpt lat="43.55908" lon="1.4577">
        <ele>184.39627075195</ele>
        <time>2020-05-31T18:15:22.199Z</time>
      </trkpt>
      <trkpt lat="43.55899" lon="1.45768">
        <ele>185.41955566406</ele>
        <time>2020-05-31T18:15:23.855Z</time>
      </trkpt>
      <trkpt lat="43.55899" lon="1.45768">
        <ele>185.42059326172</ele>
        <time>2020-05-31T18:15:25.511Z</time>
      </trkpt>
      <trkpt lat="43.55894" lon="1.45767">
        <ele>185.94401550293</ele>
        <time>2020-05-31T18:15:27.168Z</time>
      </trkpt>
      <trkpt lat="43.55867" lon="1.45757">
        <ele>189.28065490723</ele>
        <time>2020-05-31T18:15:28.830Z</time>
      </trkpt>
      <trkpt lat="43.55822" lon="1.45738">
        <ele>193.56416320801</ele>
        <time>2020-05-31T18:15:30.499Z</time>
      </trkpt>
      <trkpt lat="43.55752" lon="1.45715">
        <ele>198.30422973633</ele>
        <time>2020-05-31T18:15:32.180Z</time>
      </trkpt>
      <trkpt lat="43.55716" lon="1.45701">
        <ele>200.6805267334</ele>
        <time>2020-05-31T18:15:33.867Z</time>
      </trkpt>
      <trkpt lat="43.55704" lon="1.45697">
        <ele>201.54438781738</ele>
        <time>2020-05-31T18:15:35.556Z</time>
      </trkpt>
      <trkpt lat="43.5568" lon="1.45697">
        <ele>203.53831481934</ele>
        <time>2020-05-31T18:15:37.249Z</time>
      </trkpt>
      <trkpt lat="43.55634" lon="1.45697">
        <ele>205.3462677002</ele>
        <time>2020-05-31T18:15:38.949Z</time>
      </trkpt>
      <trkpt lat="43.55584" lon="1.45693">
        <ele>208.05889892578</ele>
        <time>2020-05-31T18:15:40.657Z</time>
      </trkpt>
      <trkpt lat="43.55551" lon="1.45693">
        <ele>208.52774047852</ele>
        <time>2020-05-31T18:15:42.370Z</time>
      </trkpt>
      <trkpt lat="43.55524" lon="1.45692">
        <ele>206.89601135254</ele>
        <time>2020-05-31T18:15:44.087Z</time>
      </trkpt>
      <trkpt lat="43.5551" lon="1.45687">
        <ele>206.9089050293</ele>
        <time>2020-05-31T18:15:45.807Z</time>
      </trkpt>
      <trkpt lat="43.55503" lon="1.45678">
        <ele>207.22085571289</ele>
        <time>2020-05-31T18:15:47.528Z</time>
      </trkpt>
      <trkpt lat="43.55495" lon="1.45673">
        <ele>207.64079284668</ele>
        <time>2020-05-31T18:15:49.251Z</time>
      </trkpt>
      <trkpt lat="43.5549" lon="1.45673">
        <ele>207.94073486328</ele>
        <time>2020-05-31T18:15:50.975Z</time>
      </trkpt>
      <trkpt lat="43.55485" lon="1.45676">
        <ele>208.27668762207</ele>
        <time>2020-05-31T18:15:52.699Z</time>
      </trkpt>
      <trkpt lat="43.55483" lon="1.45683">
        <ele>208.48065185547</ele>
        <time>2020-05-31T18:15:54.424Z</time>
      </trkpt>
      <trkpt lat="43.55482" lon="1.45685">
        <ele>208.56463623047</ele>
        <time>2020-05-31T18:15:56.150Z</time>
      </trkpt>
      <trkpt lat="43.55478" lon="1.4568">
        <ele>208.74459838867</ele>
        <time>2020-05-31T18:15:57.876Z</time>
      </trkpt>
      <trkpt lat="43.55472" lon="1.45675">
        <ele>209.04455566406</ele>
        <time>2020-05-31T18:15:59.604Z</time>
      </trkpt>
      <trkpt lat="43.55465" lon="1.45672">
        <ele>209.42849731445</ele>
        <time>2020-05-31T18:16:01.333Z</time>
      </trkpt>
      <trkpt lat="43.55455" lon="1.45668">
        <ele>209.98039245605</ele>
        <time>2020-05-31T18:16:03.063Z</time>
      </trkpt>
      <trkpt lat="43.55424" lon="1.45663">
        <ele>211.73861694336</ele>
        <time>2020-05-31T18:16:04.798Z</time>
      </trkpt>
      <trkpt lat="43.55407" lon="1.45663">
        <ele>212.96241760254</ele>
        <time>2020-05-31T18:16:06.536Z</time>
      </trkpt>
      <trkpt lat="43.55383" lon="1.45668">
        <ele>214.69012451172</ele>
        <time>2020-05-31T18:16:08.278Z</time>
      </trkpt>
      <trkpt lat="43.5533" lon="1.4568">
        <ele>219.34457397461</ele>
        <time>2020-05-31T18:16:10.029Z</time>
      </trkpt>
      <trkpt lat="43.55273" lon="1.45699">
        <ele>223.44607543945</ele>
        <time>2020-05-31T18:16:11.789Z</time>
      </trkpt>
      <trkpt lat="43.55243" lon="1.45709">
        <ele>224.70945739746</ele>
        <time>2020-05-31T18:16:13.554Z</time>
      </trkpt>
      <trkpt lat="43.55238" lon="1.45707">
        <ele>224.44549560547</ele>
        <time>2020-05-31T18:16:15.320Z</time>
      </trkpt>
      <trkpt lat="43.55207" lon="1.45716">
        <ele>224.34951782227</ele>
        <time>2020-05-31T18:16:17.091Z</time>
      </trkpt>
      <trkpt lat="43.55158" lon="1.45727">
        <ele>225.87617492676</ele>
        <time>2020-05-31T18:16:18.870Z</time>
      </trkpt>
      <trkpt lat="43.5514" lon="1.4573">
        <ele>226.56005859375</ele>
        <time>2020-05-31T18:16:20.652Z</time>
      </trkpt>
      <trkpt lat="43.55137" lon="1.45725">
        <ele>226.60804748535</ele>
        <time>2020-05-31T18:16:22.434Z</time>
      </trkpt>
      <trkpt lat="43.55133" lon="1.45726">
        <ele>226.76402282715</ele>
        <time>2020-05-31T18:16:24.217Z</time>
      </trkpt>
      <trkpt lat="43.55131" lon="1.4573">
        <ele>226.88400268555</ele>
        <time>2020-05-31T18:16:26.001Z</time>
      </trkpt>
      <trkpt lat="43.5513" lon="1.45732">
        <ele>226.94398498535</ele>
        <time>2020-05-31T18:16:27.785Z</time>
      </trkpt>
      <trkpt lat="43.5512" lon="1.45734">
        <ele>227.37724304199</ele>
        <time>2020-05-31T18:16:29.571Z</time>
      </trkpt>
      <trkpt lat="43.55045" lon="1.45748">
        <ele>230.49696350098</ele>
        <time>2020-05-31T18:16:31.369Z</time>
      </trkpt>
      <trkpt lat="43.55039" lon="1.45748">
        <ele>230.78492736816</ele>
        <time>2020-05-31T18:16:33.168Z</time>
      </trkpt>
      <trkpt lat="43.55006" lon="1.45747">
        <ele>232.89958190918</ele>
        <time>2020-05-31T18:16:34.972Z</time>
      </trkpt>
      <trkpt lat="43.54959" lon="1.45735">
        <ele>238.26268005371</ele>
        <time>2020-05-31T18:16:36.784Z</time>
      </trkpt>
      <trkpt lat="43.54948" lon="1.45728">
        <ele>239.39627075195</ele>
        <time>2020-05-31T18:16:38.597Z</time>
      </trkpt>
      <trkpt lat="43.54943" lon="1.45722">
        <ele>239.79220581055</ele>
        <time>2020-05-31T18:16:40.412Z</time>
      </trkpt>
      <trkpt lat="43.54916" lon="1.45663">
        <ele>240.41960144043</ele>
        <time>2020-05-31T18:16:42.235Z</time>
      </trkpt>
      <trkpt lat="43.54868" lon="1.45549">
        <ele>241.96995544434</ele>
        <time>2020-05-31T18:16:44.073Z</time>
      </trkpt>
      <trkpt lat="43.54865" lon="1.4554">
        <ele>242.14993286133</ele>
        <time>2020-05-31T18:16:45.912Z</time>
      </trkpt>
      <trkpt lat="43.54862" lon="1.45544">
        <ele>242.32989501953</ele>
        <time>2020-05-31T18:16:47.752Z</time>
      </trkpt>
      <trkpt lat="43.54856" lon="1.45552">
        <ele>242.72065734863</ele>
        <time>2020-05-31T18:16:49.593Z</time>
      </trkpt>
      <trkpt lat="43.54853" lon="1.45555">
        <ele>242.86981201172</ele>
        <time>2020-05-31T18:16:51.435Z</time>
      </trkpt>
      <trkpt lat="43.54788" lon="1.45657">
        <ele>242.87579345703</ele>
        <time>2020-05-31T18:16:53.292Z</time>
      </trkpt>
      <trkpt lat="43.54779" lon="1.45663">
        <ele>242.40068054199</ele>
        <time>2020-05-31T18:16:55.151Z</time>
      </trkpt>
      <trkpt lat="43.54771" lon="1.45663">
        <ele>242.0167388916</ele>
        <time>2020-05-31T18:16:57.011Z</time>
      </trkpt>
      <trkpt lat="43.5476" lon="1.45657">
        <ele>242.08251953125</ele>
        <time>2020-05-31T18:16:58.873Z</time>
      </trkpt>
      <trkpt lat="43.54745" lon="1.45642">
        <ele>242.01600646973</ele>
        <time>2020-05-31T18:17:00.738Z</time>
      </trkpt>
      <trkpt lat="43.54741" lon="1.45639">
        <ele>241.80004882812</ele>
        <time>2020-05-31T18:17:02.604Z</time>
      </trkpt>
      <trkpt lat="43.54734" lon="1.45637">
        <ele>241.50009155273</ele>
        <time>2020-05-31T18:17:04.471Z</time>
      </trkpt>
      <trkpt lat="43.54572" lon="1.45626">
        <ele>237.96380615234</ele>
        <time>2020-05-31T18:17:06.364Z</time>
      </trkpt>
      <trkpt lat="43.5456" lon="1.45623">
        <ele>237.53187561035</ele>
        <time>2020-05-31T18:17:08.259Z</time>
      </trkpt>
      <trkpt lat="43.54559" lon="1.4562">
        <ele>237.49588012695</ele>
        <time>2020-05-31T18:17:10.154Z</time>
      </trkpt>
      <trkpt lat="43.54555" lon="1.45616">
        <ele>237.35189819336</ele>
        <time>2020-05-31T18:17:12.050Z</time>
      </trkpt>
      <trkpt lat="43.54551" lon="1.45619">
        <ele>237.20793151855</ele>
        <time>2020-05-31T18:17:13.947Z</time>
      </trkpt>
      <trkpt lat="43.5455" lon="1.45621">
        <ele>237.17193603516</ele>
        <time>2020-05-31T18:17:15.844Z</time>
      </trkpt>
      <trkpt lat="43.54526" lon="1.45618">
        <ele>236.30807495117</ele>
        <time>2020-05-31T18:17:17.745Z</time>
      </trkpt>
      <trkpt lat="43.545" lon="1.45612">
        <ele>235.16297912598</ele>
        <time>2020-05-31T18:17:19.650Z</time>
      </trkpt>
      <trkpt lat="43.54486" lon="1.45607">
        <ele>234.49108886719</ele>
        <time>2020-05-31T18:17:21.558Z</time>
      </trkpt>
      <trkpt lat="43.54482" lon="1.45604">
        <ele>234.29911804199</ele>
        <time>2020-05-31T18:17:23.466Z</time>
      </trkpt>
      <trkpt lat="43.54461" lon="1.45595">
        <ele>233.26539611816</ele>
        <time>2020-05-31T18:17:25.378Z</time>
      </trkpt>
      <trkpt lat="43.54449" lon="1.45585">
        <ele>232.66549682617</ele>
        <time>2020-05-31T18:17:27.292Z</time>
      </trkpt>
      <trkpt lat="43.54443" lon="1.45575">
        <ele>232.42553710938</ele>
        <time>2020-05-31T18:17:29.208Z</time>
      </trkpt>
      <trkpt lat="43.54437" lon="1.45572">
        <ele>232.10159301758</ele>
        <time>2020-05-31T18:17:31.125Z</time>
      </trkpt>
      <trkpt lat="43.54431" lon="1.45573">
        <ele>231.87812805176</ele>
        <time>2020-05-31T18:17:33.043Z</time>
      </trkpt>
      <trkpt lat="43.54426" lon="1.45578">
        <ele>231.75814819336</ele>
        <time>2020-05-31T18:17:34.962Z</time>
      </trkpt>
      <trkpt lat="43.54424" lon="1.45584">
        <ele>231.66215515137</ele>
        <time>2020-05-31T18:17:36.881Z</time>
      </trkpt>
      <trkpt lat="43.54423" lon="1.45599">
        <ele>231.47018432617</ele>
        <time>2020-05-31T18:17:38.802Z</time>
      </trkpt>
      <trkpt lat="43.54426" lon="1.45606">
        <ele>231.42219543457</ele>
        <time>2020-05-31T18:17:40.724Z</time>
      </trkpt>
      <trkpt lat="43.5443" lon="1.4561">
        <ele>231.42219543457</ele>
        <time>2020-05-31T18:17:42.647Z</time>
      </trkpt>
      <trkpt lat="43.54433" lon="1.45611">
        <ele>231.44619750977</ele>
        <time>2020-05-31T18:17:44.570Z</time>
      </trkpt>
      <trkpt lat="43.54426" lon="1.45682">
        <ele>230.02069091797</ele>
        <time>2020-05-31T18:17:46.502Z</time>
      </trkpt>
      <trkpt lat="43.54409" lon="1.45708">
        <ele>228.99443054199</ele>
        <time>2020-05-31T18:17:48.438Z</time>
      </trkpt>
      <trkpt lat="43.544" lon="1.45732">
        <ele>228.5984954834</ele>
        <time>2020-05-31T18:17:50.377Z</time>
      </trkpt>
      <trkpt lat="43.54398" lon="1.45737">
        <ele>228.5145111084</ele>
        <time>2020-05-31T18:17:52.317Z</time>
      </trkpt>
      <trkpt lat="43.54397" lon="1.45743">
        <ele>228.4305267334</ele>
        <time>2020-05-31T18:17:54.257Z</time>
      </trkpt>
      <trkpt lat="43.54387" lon="1.4574">
        <ele>228.3465423584</ele>
        <time>2020-05-31T18:17:56.199Z</time>
      </trkpt>
      <trkpt lat="43.54384" lon="1.45739">
        <ele>228.3225402832</ele>
        <time>2020-05-31T18:17:58.141Z</time>
      </trkpt>
      <trkpt lat="43.54377" lon="1.45739">
        <ele>228.2385559082</ele>
        <time>2020-05-31T18:18:00.084Z</time>
      </trkpt>
      <trkpt lat="43.54372" lon="1.45742">
        <ele>228.142578125</ele>
        <time>2020-05-31T18:18:02.028Z</time>
      </trkpt>
      <trkpt lat="43.54365" lon="1.45751">
        <ele>227.85182189941</ele>
        <time>2020-05-31T18:18:03.974Z</time>
      </trkpt>
      <trkpt lat="43.54333" lon="1.45803">
        <ele>226.1630859375</ele>
        <time>2020-05-31T18:18:05.928Z</time>
      </trkpt>
      <trkpt lat="43.5433" lon="1.45816">
        <ele>225.99067687988</ele>
        <time>2020-05-31T18:18:07.883Z</time>
      </trkpt>
    </trkseg>
  </trk>
</gpx>